[[{"header":{"parameterUnit":"m.s-1","parameterCategory":1,"la1":30.6,"la2":28.766,"lo1":-90.7593,"lo2":-88.6598,"dy":0.0162,"dx":0.0183,"nx":116,"ny":114,"refTime":"2024-05-16T18:00:00:Z","depth":0,"parameterNumber":2,"parameterNumberName":"U-component_of_WINDS"},"data":[0.0,0.0,0.0,0.0,0.0,0.0,0.0,0.0,0.0,0.0,0.0,0.0,0.0,0.0,0.0,0.0,0.0,0.0,0.0,0.0,0.0,0.0,0.0,0.0,0.0,0.0,0.0,0.0,0.0,0.0,0.0,0.0,0.0,0.0,0.0,0.0,0.0,0.0,0.0,0.0,0.0,0.0,0.0,0.0,0.0,0.0,0.0,0.0,0.0,0.0,0.0,0.0,0.0,0.0,0.0,0.0,0.0,0.0,0.0,0.0,0.0,0.0,0.0,0.0,0.0,0.0,0.0,0.0,0.0,0.0,0.0,0.0,0.0,0.0,0.0,0.0,0.0,0.0,0.0,0.0,0.0,0.0,0.0,0.0,0.0,0.0,0.0,0.0,0.0,0.0,0.0,0.0,0.0,0.0,0.0,0.0,0.0,0.0,0.0,0.0,0.0,0.0,0.0,0.0,0.0,0.0,0.0,0.0,0.0,0.0,0.0,0.0,0.0,0.0,0.0,0.0,0.0,0.0,0.0,0.0,0.0,0.0,0.0,0.0,0.0,0.0,0.0,0.0,0.0,0.0,0.0,0.0,0.0,0.0,0.0,0.0,0.0,0.0,0.0,0.0,0.0,0.0,0.0,0.0,0.0,0.0,0.0,0.0,0.0,0.0,0.0,0.0,0.0,0.0,0.0,0.0,0.0,0.0,0.0,0.0,0.0,0.0,0.0,0.0,0.0,0.0,0.0,0.0,0.0,0.0,0.0,0.0,0.0,0.0,0.0,0.0,0.0,0.0,0.0,0.0,0.0,0.0,0.0,0.0,0.0,0.0,0.0,0.0,0.0,0.0,0.0,0.0,0.0,0.0,0.0,0.0,0.0,0.0,0.0,0.0,0.0,0.0,0.0,0.0,0.0,0.0,0.0,0.0,0.0,0.0,0.0,0.0,0.0,0.0,0.0,0.0,0.0,0.0,0.0,0.0,0.0,0.0,0.0,0.0,0.0,0.0,0.0,0.0,0.0,0.0,0.0,0.0,0.0,0.0,0.0,0.0,0.0,0.0,0.0,0.0,0.0,0.0,0.0,0.0,0.0,0.0,0.0,0.0,0.0,0.0,0.0,0.0,0.0,0.0,0.0,0.0,0.0,0.0,0.0,0.0,0.0,0.0,0.0,0.0,0.0,0.0,0.0,0.0,0.0,0.0,0.0,0.0,0.0,0.0,0.0,0.0,0.0,0.0,0.0,0.0,0.0,0.0,0.0,0.0,0.0,0.0,0.0,0.0,0.0,0.0,0.0,0.0,0.0,0.0,0.0,0.0,0.0,0.0,0.0,0.0,0.0,0.0,0.0,0.0,0.0,0.0,0.0,0.0,0.0,0.0,0.0,0.0,0.0,0.0,0.0,0.0,0.0,0.0,0.0,0.0,0.0,0.0,0.0,0.0,0.0,0.0,0.0,0.0,0.0,0.0,0.0,0.0,0.0,0.0,0.0,0.0,0.0,0.0,0.0,0.0,0.0,0.0,0.0,0.0,0.0,0.0,0.0,0.0,0.0,0.0,0.0,0.0,0.0,0.0,0.0,0.0,0.0,0.0,0.0,0.0,0.0,0.0,0.0,0.0,0.0,0.0,0.0,0.0,0.0,0.0,0.0,0.0,0.0,0.0,0.0,0.0,0.0,0.0,0.0,0.0,0.0,0.0,0.0,0.0,0.0,0.0,0.0,0.0,0.0,0.0,0.0,0.0,0.0,0.0,0.0,0.0,0.0,0.0,0.0,0.0,0.0,0.0,0.0,0.0,0.0,0.0,0.0,0.0,0.0,0.0,0.0,0.0,0.0,0.0,0.0,0.0,0.0,0.0,0.0,0.0,0.0,0.0,0.0,0.0,0.0,0.0,0.0,0.0,0.0,0.0,0.0,0.0,0.0,0.0,0.0,0.0,0.0,0.0,0.0,0.0,0.0,0.0,0.0,0.0,0.0,0.0,0.0,0.0,0.0,0.0,0.0,0.0,0.0,0.0,0.0,0.0,0.0,0.0,0.0,0.0,0.0,0.0,0.0,0.0,0.0,0.0,0.0,0.0,0.0,0.0,0.0,0.0,0.0,0.0,0.0,0.0,0.0,0.0,0.0,0.0,0.0,0.0,0.0,0.0,0.0,0.0,0.0,0.0,0.0,0.0,0.0,0.0,0.0,0.0,0.0,0.0,0.0,0.0,0.0,0.0,0.0,0.0,0.0,0.0,0.0,0.0,0.0,0.0,0.0,0.0,0.0,0.0,0.0,0.0,0.0,0.0,0.0,0.0,0.0,0.0,0.0,0.0,0.0,0.0,0.0,0.0,0.0,0.0,0.0,0.0,0.0,0.0,0.0,0.0,0.0,0.0,0.0,0.0,0.0,0.0,0.0,0.0,0.0,0.0,0.0,0.0,0.0,0.0,0.0,0.0,0.0,0.0,0.0,0.0,0.0,0.0,0.0,0.0,0.0,0.0,0.0,0.0,0.0,0.0,0.0,0.0,0.0,0.0,0.0,0.0,0.0,0.0,0.0,0.0,0.0,0.0,0.0,0.0,0.0,0.0,0.0,0.0,0.0,0.0,0.0,0.0,0.0,0.0,0.0,0.0,0.0,0.0,0.0,0.0,0.0,0.0,0.0,0.0,0.0,0.0,0.0,0.0,0.0,0.0,0.0,0.0,0.0,0.0,0.0,0.0,0.0,0.0,0.0,0.0,0.0,0.0,0.0,0.0,0.0,0.0,0.0,0.0,0.0,0.0,0.0,0.0,0.0,0.0,0.0,0.0,0.0,0.0,0.0,0.0,0.0,0.0,0.0,0.0,0.0,0.0,0.0,0.0,0.0,0.0,0.0,0.0,0.0,0.0,0.0,0.0,0.0,0.0,0.0,0.0,0.0,0.0,0.0,0.0,0.0,0.0,0.0,0.0,0.0,0.0,0.0,0.0,0.0,0.0,0.0,0.0,0.0,0.0,0.0,0.0,0.0,0.0,0.0,0.0,0.0,0.0,0.0,0.0,0.0,0.0,0.0,0.0,0.0,0.0,0.0,0.0,0.0,0.0,0.0,0.0,0.0,0.0,0.0,0.0,0.0,0.0,0.0,0.0,0.0,0.0,0.0,0.0,0.0,0.0,0.0,0.0,0.0,0.0,0.0,0.0,0.0,0.0,0.0,0.0,0.0,0.0,0.0,0.0,0.0,0.0,0.0,0.0,0.0,0.0,0.0,0.0,0.0,0.0,0.0,0.0,0.0,0.0,0.0,0.0,0.0,0.0,0.0,0.0,0.0,0.0,0.0,0.0,0.0,0.0,0.0,0.0,0.0,0.0,0.0,0.0,0.0,0.0,0.0,0.0,0.0,0.0,0.0,0.0,0.0,0.0,0.0,0.0,0.0,0.0,0.0,0.0,0.0,0.0,0.0,0.0,0.0,0.0,0.0,0.0,0.0,0.0,0.0,0.0,0.0,0.0,0.0,0.0,0.0,0.0,0.0,0.0,0.0,0.0,0.0,0.0,0.0,0.0,0.0,0.0,0.0,0.0,0.0,0.0,0.0,0.0,0.0,0.0,0.0,0.0,0.0,0.0,0.0,0.0,0.0,0.0,0.0,0.0,0.0,0.0,0.0,0.0,0.0,0.0,0.0,0.0,0.0,0.0,0.0,0.0,0.0,0.0,0.0,0.0,0.0,0.0,0.0,0.0,0.0,0.0,0.0,0.0,0.0,0.0,0.0,0.0,0.0,0.0,0.0,0.0,0.0,0.0,0.0,0.0,0.0,0.0,0.0,0.0,0.0,0.0,0.0,0.0,0.0,0.0,0.0,0.0,0.0,0.0,0.0,0.0,0.0,0.0,0.0,0.0,0.0,0.0,0.0,0.0,0.0,0.0,0.0,0.0,0.0,0.0,0.0,0.0,0.0,0.0,0.0,0.0,0.0,0.0,0.0,0.0,0.0,0.0,0.0,0.0,0.0,0.0,0.0,0.0,0.0,0.0,0.0,0.0,0.0,0.0,0.0,0.0,0.0,0.0,0.0,0.0,0.0,0.0,0.0,0.0,0.0,0.0,0.0,0.0,0.0,0.0,0.0,0.0,0.0,0.0,0.0,0.0,0.0,0.0,0.0,0.0,0.0,0.0,0.0,0.0,0.0,0.0,0.0,0.0,0.0,0.0,0.0,0.0,0.0,0.0,0.0,0.0,0.0,0.0,0.0,0.0,0.0,0.0,0.0,0.0,0.0,0.0,0.0,0.0,0.0,0.0,0.0,0.0,0.0,0.0,0.0,0.0,0.0,0.0,0.0,0.0,0.0,0.0,0.0,0.0,0.0,0.0,0.0,0.0,0.0,0.0,0.0,0.0,0.0,0.0,0.0,0.0,0.0,0.0,0.0,0.0,0.0,0.0,0.0,0.0,0.0,0.0,0.0,0.0,0.0,0.0,0.0,0.0,0.0,0.0,0.0,0.0,0.0,0.0,0.0,0.0,0.0,0.0,0.0,0.0,0.0,0.0,0.0,0.0,0.0,0.0,0.0,0.0,0.0,0.0,0.0,0.0,0.0,0.0,0.0,0.0,0.0,0.0,0.0,0.0,0.0,0.0,0.0,0.0,0.0,0.0,0.0,0.0,0.0,0.0,0.0,0.0,0.0,0.0,0.0,0.0,0.0,0.0,0.0,0.0,0.0,0.0,0.0,0.0,0.0,0.0,0.0,0.0,0.0,0.0,0.0,0.0,0.0,0.0,0.0,0.0,0.0,0.0,0.0,0.0,0.0,0.0,0.0,0.0,0.0,0.0,0.0,0.0,0.0,0.0,0.0,0.0,0.0,0.0,0.0,0.0,0.0,0.0,0.0,0.0,0.0,0.0,0.0,0.0,0.0,0.0,0.0,0.0,0.0,0.0,0.0,0.0,0.0,0.0,0.0,0.0,0.0,0.0,0.0,0.0,0.0,0.0,0.0,0.0,0.0,0.0,0.0,0.0,0.0,0.0,0.0,0.0,0.0,0.0,0.0,0.0,0.0,0.0,0.0,0.0,0.0,0.0,0.0,0.0,0.0,0.0,0.0,0.0,0.0,0.0,0.0,0.0,0.0,0.0,0.0,0.0,0.0,0.0,0.0,0.0,0.0,0.0,0.0,0.0,0.0,0.0,0.0,0.0,0.0,0.0,0.0,0.0,0.0,0.0,0.0,0.0,0.0,0.0,0.0,0.0,0.0,0.0,0.0,0.0,0.0,0.0,0.0,0.0,0.0,0.0,0.0,0.0,0.0,0.0,0.0,0.0,0.0,0.0,0.0,0.0,0.0,0.0,0.0,0.0,0.0,0.0,0.0,0.0,0.0,0.0,0.0,0.0,0.0,0.0,0.0,0.0,0.0,0.0,0.0,0.0,0.0,0.0,0.0,0.0,0.0,0.0,0.0,0.0,0.0,0.0,0.0,0.0,0.0,0.0,0.0,0.0,0.0,0.0,0.0,0.0,0.0,0.0,0.0,0.0,0.0,0.0,0.0,0.0,0.0,0.0,0.0,0.0,0.0,0.0,0.0,0.0,0.0,0.0,0.0,0.0,0.0,0.0,0.0,0.0,0.0,0.0,0.0,0.0,0.0,0.0,0.0,0.0,0.0,0.0,0.0,0.0,0.0,0.0,0.0,0.0,0.0,0.0,0.0,0.0,0.0,0.0,0.0,0.0,0.0,0.0,0.0,0.0,0.0,0.0,0.0,0.0,0.0,0.0,0.0,0.0,0.0,0.0,0.0,0.0,0.0,0.0,0.0,0.0,0.0,0.0,0.0,0.0,0.0,0.0,0.0,0.0,0.0,0.0,0.0,0.0,0.0,0.0,0.0,0.0,0.0,0.0,0.0,0.0,0.0,0.0,0.0,0.0,0.0,0.0,0.0,0.0,0.0,0.0,0.0,0.0,0.0,0.0,0.0,0.0,0.0,0.0,0.0,0.0,0.0,0.0,0.0,0.0,0.0,0.0,0.0,0.0,0.0,0.0,0.0,0.0,0.0,0.0,0.0,0.0,0.0,0.0,0.0,0.0,0.0,0.0,0.0,0.0,0.0,0.0,0.0,0.0,0.0,0.0,0.0,0.0,0.0,0.0,0.0,0.0,-2.4384,-2.2333,0.0,0.0,0.0,0.0,0.0,0.0,0.0,0.0,0.0,0.0,0.0,0.0,0.0,0.0,0.0,0.0,0.0,0.0,0.0,0.0,0.0,0.0,0.0,-2.5423,-2.4479,-2.2687,-2.3618,-2.4236,-2.4185,0.0,0.0,0.0,0.0,0.0,-3.0381,-2.9506,-2.9794,-3.1317,-3.1774,-3.3118,-3.5232,-3.5422,-3.3609,-3.0234,0.0,0.0,0.0,0.0,0.0,0.0,0.0,0.0,0.0,0.0,0.0,0.0,0.0,0.0,0.0,0.0,0.0,0.0,0.0,0.0,0.0,0.0,0.0,0.0,0.0,0.0,0.0,0.0,0.0,0.0,0.0,0.0,0.0,0.0,0.0,0.0,0.0,0.0,0.0,0.0,0.0,0.0,0.0,0.0,0.0,0.0,0.0,0.0,0.0,0.0,0.0,0.0,0.0,0.0,0.0,0.0,0.0,0.0,0.0,0.0,0.0,0.0,0.0,0.0,0.0,0.0,0.0,0.0,0.0,0.0,-2.7229,-2.4786,0.0,0.0,0.0,0.0,0.0,0.0,0.0,0.0,0.0,0.0,0.0,0.0,0.0,0.0,0.0,0.0,0.0,0.0,0.0,0.0,0.0,-2.6405,-2.618,-2.5412,-2.4827,-2.4568,-2.4745,-2.5189,-2.5976,-2.7069,0.0,0.0,0.0,-2.92,-2.9081,-2.8579,-2.9466,-3.1852,-3.3568,-3.6476,-4.0491,-4.0547,-3.8163,-3.3787,-3.2544,0.0,0.0,0.0,0.0,0.0,0.0,0.0,0.0,0.0,0.0,0.0,0.0,0.0,0.0,0.0,0.0,0.0,0.0,0.0,0.0,0.0,0.0,0.0,0.0,0.0,0.0,0.0,0.0,0.0,0.0,0.0,0.0,0.0,0.0,0.0,0.0,0.0,0.0,0.0,0.0,0.0,0.0,0.0,0.0,0.0,0.0,0.0,0.0,0.0,0.0,0.0,0.0,0.0,0.0,0.0,0.0,0.0,0.0,0.0,0.0,0.0,0.0,0.0,-3.1819,-3.2891,-3.4389,-3.3287,-3.3728,-3.5005,-3.0356,-2.794,-2.7417,-2.6483,0.0,0.0,0.0,0.0,0.0,0.0,0.0,0.0,0.0,0.0,0.0,0.0,0.0,0.0,0.0,0.0,0.0,0.0,0.0,-2.5701,-2.5538,-2.5216,-2.4899,-2.4677,-2.5442,-2.5621,-2.5054,-2.6801,0.0,0.0,-2.7815,-2.8547,-2.9246,-2.9666,-3.1254,-3.399,-3.7985,-4.1366,-4.4114,-4.4124,-4.3356,-4.1719,-3.6387,-3.4315,-3.4565,0.0,0.0,0.0,0.0,0.0,0.0,0.0,0.0,0.0,0.0,0.0,0.0,0.0,0.0,0.0,0.0,0.0,0.0,0.0,0.0,0.0,0.0,0.0,0.0,0.0,0.0,0.0,0.0,0.0,0.0,0.0,0.0,0.0,0.0,0.0,0.0,0.0,0.0,0.0,0.0,0.0,-2.7957,-2.8445,0.0,0.0,0.0,0.0,0.0,0.0,0.0,0.0,0.0,0.0,0.0,0.0,0.0,-2.8816,-2.975,-3.0957,-3.1777,-3.2182,-3.3611,-3.4777,-3.5908,-3.5055,-3.5594,-3.7126,-3.4426,0.0,-3.075,-2.9119,0.0,0.0,0.0,0.0,0.0,0.0,0.0,0.0,0.0,0.0,0.0,0.0,0.0,0.0,0.0,0.0,0.0,0.0,0.0,0.0,0.0,-2.7241,-2.7408,-2.7315,-2.8436,-2.8848,-2.8008,-2.8753,-2.8934,-2.819,-2.8043,-2.8377,-2.9234,-3.0516,-3.3427,-3.8104,-4.2962,-4.5655,-4.6242,-4.6169,-4.5715,-4.4783,-4.0574,-3.7591,-3.5503,-3.2519,0.0,0.0,0.0,0.0,0.0,0.0,0.0,0.0,0.0,0.0,0.0,0.0,0.0,0.0,0.0,0.0,0.0,0.0,0.0,0.0,0.0,0.0,0.0,0.0,0.0,0.0,0.0,0.0,0.0,0.0,0.0,0.0,0.0,0.0,0.0,0.0,0.0,0.0,0.0,-2.8495,-2.9683,-2.9731,-2.9561,-2.9077,0.0,0.0,0.0,0.0,0.0,0.0,0.0,0.0,0.0,-2.8321,-2.871,-2.941,-3.032,-3.1019,-3.1792,-3.2539,-3.3197,-3.4327,-3.5415,-3.5572,-3.6375,-3.7656,-3.654,-3.5492,-3.4266,-3.1684,-3.0245,-2.9934,0.0,0.0,0.0,0.0,-2.5649,-2.4734,0.0,0.0,0.0,0.0,0.0,0.0,0.0,0.0,0.0,0.0,0.0,0.0,-2.8457,-2.9407,-3.0209,-3.0585,-3.1434,-3.17,-3.1075,-3.0352,-2.9612,-2.8863,-2.8083,-2.827,-2.9565,-3.2617,-3.6873,-4.2341,-4.5958,-4.7689,-4.7704,-4.7134,-4.6724,-4.626,-4.3506,-4.0427,-3.7195,-3.4212,-3.2454,-3.1569,0.0,0.0,0.0,0.0,0.0,0.0,0.0,0.0,0.0,0.0,0.0,0.0,0.0,0.0,0.0,0.0,0.0,0.0,0.0,0.0,0.0,0.0,0.0,0.0,0.0,0.0,0.0,0.0,0.0,0.0,0.0,0.0,0.0,0.0,0.0,0.0,0.0,-2.9373,-3.0683,-3.0528,-3.0719,-3.0463,0.0,0.0,0.0,0.0,0.0,0.0,-2.9164,-2.8505,-2.8412,-2.8951,-2.9353,-2.9932,-3.0821,-3.1036,-3.1643,-3.2824,-3.3138,-3.4001,-3.5315,-3.596,-3.6886,-3.822,-3.7737,-3.7413,-3.6957,-3.3821,-3.2158,-3.1647,-3.1246,-3.0512,-2.9741,-2.8476,-2.7556,-2.719,0.0,0.0,0.0,0.0,0.0,0.0,0.0,0.0,0.0,0.0,0.0,-2.9374,-2.9406,-3.0876,-3.2475,-3.401,-3.3448,-3.2928,-3.2685,-3.0343,-2.8647,-2.7892,-2.7094,-2.7925,-3.0572,-3.7132,-4.229,-4.5928,-4.5312,-4.6211,-4.8494,-4.6818,-4.646,-4.7016,-4.4013,-4.2409,-4.1674,-3.6962,-3.5461,-3.5907,-3.1665,0.0,0.0,0.0,0.0,0.0,0.0,0.0,0.0,0.0,0.0,0.0,0.0,0.0,0.0,0.0,0.0,0.0,0.0,0.0,0.0,0.0,0.0,0.0,0.0,0.0,0.0,0.0,0.0,0.0,0.0,0.0,0.0,0.0,0.0,0.0,0.0,0.0,0.0,-3.1372,-3.1629,0.0,0.0,0.0,0.0,-3.2505,-3.0683,-3.0665,-3.3405,-3.1222,-3.0537,-3.2158,-3.12,-3.0766,-3.1203,-3.1507,-3.239,-3.3562,-3.3958,-3.5204,-3.709,-3.6876,-3.745,-3.894,-3.8311,-3.8006,-3.7912,-3.5303,-3.3979,-3.3513,-3.344,-3.3185,-3.2757,-3.1913,-3.051,-2.9376,0.0,0.0,0.0,0.0,0.0,-2.3983,-2.4485,-2.5148,-2.5595,-2.5507,-2.7769,-2.9626,-3.0204,-3.2795,-3.4976,-3.6094,-3.6777,-3.6448,-3.4709,-3.2561,-3.1241,-3.1028,-2.9626,-3.139,-3.6831,-4.1003,-4.3712,-4.4965,-4.4877,-4.4909,-4.5041,-4.4199,-4.4068,-4.4471,-4.2833,-4.1644,-4.0731,-3.7747,-3.6546,-3.6523,-3.4697,-3.2456,0.0,0.0,0.0,0.0,0.0,0.0,0.0,0.0,0.0,0.0,0.0,0.0,0.0,0.0,0.0,0.0,0.0,0.0,0.0,0.0,0.0,0.0,0.0,0.0,0.0,0.0,0.0,0.0,0.0,0.0,0.0,0.0,0.0,0.0,0.0,0.0,0.0,-3.1348,-3.2098,0.0,-3.2509,-3.2655,-3.3116,-3.4176,-3.3196,-3.3127,-3.4593,-3.2736,-3.1709,-3.1834,-3.1318,-3.099,-3.0854,-3.2569,-3.4045,-3.5621,-3.6482,-3.7859,-3.974,-3.9285,-3.9355,-3.9838,-3.9178,-3.8642,-3.8396,-3.6612,-3.533,-3.4466,-3.388,-3.381,-3.3722,-3.2059,-3.1365,-3.1199,0.0,0.0,0.0,0.0,-2.298,-2.3311,-2.3625,-2.4202,-2.4918,-2.5742,-2.82,-3.0528,-3.2216,-3.5026,-3.7248,-3.8398,-3.9134,-3.8688,-3.6626,-3.4296,-3.3018,-3.3003,-3.26,-3.497,-4.0427,-4.2903,-4.4129,-4.402,-4.4153,-4.377,-4.2919,-4.2445,-4.2315,-4.2427,-4.1297,-4.0497,-3.975,-3.8111,-3.7265,-3.6922,-3.6101,-3.436,-3.1948,0.0,0.0,0.0,0.0,0.0,0.0,0.0,0.0,0.0,0.0,0.0,0.0,0.0,0.0,0.0,0.0,0.0,0.0,0.0,0.0,0.0,0.0,0.0,0.0,0.0,0.0,0.0,0.0,0.0,0.0,0.0,0.0,0.0,0.0,-2.879,-3.032,-3.0389,-3.1856,-3.2888,-3.2726,-3.3236,-3.4294,-3.5677,-3.4755,-3.4571,-3.5521,-3.3719,-3.2283,-3.1533,-3.1136,-3.1166,-3.1296,-3.3694,-3.5786,-3.7725,-3.8958,-4.0414,-4.1733,-4.1445,-4.1094,-4.08,-3.9952,-3.9418,-3.8844,-3.7475,-3.6505,-3.561,-3.4863,-3.4709,-3.4709,-3.2699,-3.2527,-3.353,0.0,0.0,0.0,-2.291,-2.3409,-2.3717,-2.312,-2.4447,-2.5849,-2.6635,-2.9093,-3.2048,-3.5338,-3.7379,-3.9211,-4.0936,-4.0288,-3.9385,-3.8383,-3.5333,-3.3532,-3.3408,-3.573,-3.8196,-4.0789,-4.285,-4.3751,-4.3497,-4.3192,-4.2881,-4.2585,-4.1757,-4.134,-4.1154,-3.976,-3.9122,-3.9084,-3.8255,-3.7713,-3.7333,-3.5742,-3.5018,-3.4438,0.0,0.0,0.0,0.0,0.0,0.0,0.0,0.0,0.0,0.0,0.0,0.0,0.0,0.0,0.0,0.0,0.0,0.0,0.0,0.0,0.0,0.0,0.0,0.0,0.0,0.0,0.0,0.0,0.0,0.0,0.0,0.0,0.0,-2.6536,-2.7861,-2.8612,-2.8773,-3.1152,-3.2397,-3.1732,-3.314,-3.4899,-3.7115,-3.5434,-3.4895,-3.6605,-3.3875,-3.211,-3.1631,-3.0846,-3.1163,-3.2803,-3.49,-3.7249,-3.9884,-4.148,-4.2644,-4.319,-4.314,-4.2665,-4.174,-4.0913,-4.0078,-3.9152,-3.7863,-3.717,-3.6816,-3.6325,-3.6166,-3.6008,-3.3774,-3.4062,-3.6411,0.0,0.0,-2.287,-2.2708,-2.2271,-2.2343,-2.3464,-2.4063,-2.5102,-2.7108,-2.9333,-3.1992,-3.526,-3.7333,-3.9176,-4.0889,-4.0285,-3.938,-3.8385,-3.5003,-3.3154,-3.3486,-3.7312,-4.0163,-4.172,-4.3284,-4.3844,-4.335,-4.3301,-4.3052,-4.2565,-4.1889,-4.1431,-4.1138,-3.978,-3.8447,-3.7308,-3.7877,-3.7432,-3.6429,-3.8652,-3.8302,-3.6092,0.0,0.0,0.0,0.0,0.0,0.0,0.0,0.0,0.0,0.0,0.0,0.0,0.0,0.0,0.0,0.0,0.0,0.0,0.0,0.0,0.0,0.0,0.0,0.0,0.0,0.0,0.0,0.0,0.0,0.0,0.0,-2.1784,-2.1901,-2.454,-2.6078,-2.7074,-2.772,-2.9993,-3.2008,-3.291,-3.3639,-3.4753,-3.6352,-3.559,-3.4948,-3.5128,-3.3079,-3.1649,-3.1148,-3.0366,-3.0854,-3.2813,-3.4811,-3.7979,-4.2061,-4.2799,-4.4301,-4.6258,-4.4708,-4.324,-4.2043,-4.1369,-4.0148,-3.8689,-3.8362,-3.7806,-3.7112,-3.6368,-3.6086,-3.5926,-3.3644,-3.4819,-3.8266,0.0,-2.2528,-2.2276,-2.1505,-2.1533,-2.2016,-2.3145,-2.4285,-2.5762,-2.7927,-2.9982,-3.2412,-3.5329,-3.7067,-3.8666,-4.0351,-3.9998,-3.8983,-3.741,-3.4749,-3.3766,-3.4902,-3.84,-4.1215,-4.3088,-4.4184,-4.4383,-4.3755,-4.4018,-4.3567,-4.2389,-4.1946,-4.1278,-4.0496,-3.927,-3.8044,-3.6754,-3.6483,-3.6115,-3.59,-3.8091,-3.8356,-3.7161,-3.4185,-2.9611,-2.3994,-1.8873,-1.7784,-1.8792,-1.8644,0.0,0.0,0.0,0.0,0.0,0.0,0.0,0.0,0.0,0.0,0.0,0.0,0.0,0.0,0.0,0.0,0.0,0.0,0.0,0.0,0.0,0.0,0.0,0.0,-1.9823,-2.0109,-2.2,-2.4202,-2.5879,-2.6691,-2.9212,-3.1051,-3.1946,-3.3451,-3.4859,-3.589,-3.5589,-3.5238,-3.4677,-3.2505,-3.0824,-3.0166,-2.9494,-3.014,-3.1955,-3.4983,-3.7957,-4.1212,-4.3359,-4.4664,-4.5123,-4.4359,-4.3119,-4.1504,-4.0684,-3.9741,-3.8766,-3.8441,-3.79,0.0,0.0,0.0,0.0,0.0,-3.7904,-4.1294,0.0,-2.257,-2.196,-2.0418,-2.1323,-2.2355,-2.2732,-2.4927,-2.7117,-2.8764,-3.0791,-3.2996,-3.5441,-3.6638,-3.793,-3.9593,-3.9462,-3.8319,-3.6074,-3.4866,-3.5115,-3.7059,-3.9153,-4.1694,-4.4597,-4.5158,-4.5209,-4.4787,-4.53,-4.4598,-4.2772,-4.2599,-4.1757,-4.0305,-3.9101,-3.822,-3.7437,-3.5127,-3.4455,-3.5038,-3.5771,-3.679,-3.7623,-3.492,-3.1367,-2.6895,-1.9912,-1.9123,-2.0725,-1.6996,0.0,0.0,0.0,0.0,0.0,0.0,0.0,0.0,0.0,0.0,0.0,0.0,0.0,0.0,0.0,0.0,0.0,0.0,0.0,0.0,0.0,0.0,0.0,0.0,-1.7678,-1.8244,-1.9085,-2.2124,-2.4685,-2.5954,-2.843,-3.0032,-2.9914,-3.2703,-3.4844,-3.5399,-3.5419,-3.4999,-3.4139,-3.1613,0.0,0.0,0.0,-2.9398,-3.1067,-3.4949,-3.7708,-3.9125,-4.3214,-4.4047,-4.1872,-4.2981,-4.2327,-4.038,-3.9447,-3.9152,-3.8989,-3.832,-3.783,-3.7577,-3.6799,-3.6422,-3.6454,-3.9475,-4.1915,-4.4506,0.0,-2.3099,-2.2714,-2.2906,-2.2375,-2.2459,-2.4185,-2.5811,-2.7316,-2.8739,-3.0739,-3.2957,-3.536,-3.647,-3.7725,-3.9341,-3.8585,-3.7445,-3.6048,-3.6242,-3.7066,-3.8594,-3.9712,-4.1823,-4.5004,-4.5463,-4.6107,-4.705,-4.7608,-4.7533,-4.6926,-4.6588,-4.5859,-4.4764,-4.2596,-4.0931,-3.9629,-3.7054,-3.424,-3.1806,-3.6064,-3.7588,-3.7033,-3.4857,-3.1213,-2.6372,-1.9906,-1.8962,-2.0139,-1.542,-1.6707,-1.9431,-1.466,-1.5041,0.0,0.0,0.0,0.0,0.0,0.0,0.0,0.0,0.0,0.0,0.0,0.0,0.0,0.0,0.0,0.0,0.0,0.0,0.0,-1.5598,-1.5943,-1.6607,-1.7518,-1.9903,-2.2132,-2.4199,-2.6431,-2.8672,-3.0539,-3.1797,-3.3368,-3.5233,-3.3324,-3.1754,-3.1382,-2.8941,-2.7109,-2.6091,-2.7735,-2.9322,-3.0874,-3.4517,-3.7636,-3.9836,0.0,0.0,-4.3189,-4.2705,-4.188,-4.0692,-4.0277,-3.9476,-3.8391,-3.8663,-3.776,-3.6034,-3.6058,-3.6068,-3.6405,-4.0666,-4.3029,-4.5183,-2.4782,-2.3898,-2.3216,-2.2969,-2.3104,-2.3659,-2.4651,-2.6502,-2.8092,-2.8929,-3.1131,-3.292,-3.3749,-3.5036,-3.6274,-3.7498,-3.6832,-3.6258,-3.6077,-3.6658,-3.7759,-3.9418,-4.1251,-4.3516,-4.6438,-4.6885,-4.7645,-4.8709,-4.8855,-4.866,-4.8115,-4.7748,-4.7333,-4.68,-4.4606,-4.2723,-4.1024,-3.8427,-3.6132,-3.4476,-3.7016,-3.7756,-3.7303,-3.657,-3.3417,-2.8424,-2.135,-2.0391,-2.111,-1.2453,-1.2568,-1.5195,-0.8649,-0.6351,-0.5078,0.0,0.0,0.0,0.0,0.0,0.0,0.0,0.0,0.0,0.0,0.0,0.0,0.0,0.0,-1.1207,0.0,0.0,-1.2288,-1.3171,-1.4147,-1.5027,-1.5361,-1.7652,-2.0139,-2.2766,-2.5495,-2.7836,-2.9339,-3.0951,-3.2438,-3.3309,-3.2222,-3.1239,-3.055,-2.8614,-2.7187,-2.6632,-2.826,-2.9394,-3.0001,-3.4018,-3.666,-3.7656,-4.0158,-4.1395,-4.1541,-4.0808,-4.0327,-4.0175,-3.8356,-3.7876,-3.8597,-3.7876,-3.7175,-3.6599,-3.6375,-3.6507,-3.7696,-4.2047,-4.532,-4.8507,-2.5924,-2.5078,-2.4092,-2.3096,-2.3967,-2.4899,-2.5152,-2.7373,-2.9039,-2.9168,-3.1406,-3.2727,-3.2142,-3.3437,-3.4686,-3.556,-3.5609,-3.5993,-3.6962,-3.751,-3.8816,-4.1069,-4.3358,-4.5737,-4.8163,-4.8515,-4.9111,-5.0018,-4.9825,-4.9418,-4.875,-4.8472,-4.8274,-4.8136,-4.6434,-4.4844,-4.3174,-4.0462,-3.947,-3.9673,-3.8827,-3.8609,-3.889,-3.9106,-3.6244,-3.1082,-2.4137,-2.3102,-2.3189,-1.1244,-0.9663,-1.1383,-0.3462,0.1852,0.5799,0.9307,1.4547,0.0,0.0,0.0,0.0,0.0,0.0,0.0,0.0,0.1821,-0.3189,-0.5023,-0.6597,-0.7864,-0.8632,-0.8581,-0.9008,-1.0923,-1.2515,-1.37,-1.3521,-1.61,-1.8736,-2.1076,-2.4368,-2.6929,-2.7982,-3.0055,-3.1423,-3.1493,-3.1439,-3.1081,-3.0564,-2.9009,-2.8167,-2.7943,-2.9043,-2.9918,-2.9973,-3.4067,-3.6012,-3.5696,-3.9075,-3.9961,-3.9024,-3.8494,-3.8334,-3.8247,-3.5571,-3.578,-3.7808,-3.6018,-3.5906,-3.6822,-3.6175,-3.7501,-3.9995,-4.3947,-4.7775,-5.1777,0.0,-2.6913,-2.6167,-2.5801,-2.5226,-2.5298,-2.6714,-2.8745,-2.9882,-2.9196,-3.0864,-3.2092,-3.2025,-3.2825,-3.3809,-3.5002,-3.6721,-3.8484,-4.0138,-4.0563,-4.2226,-4.5594,-4.6176,-4.7386,-4.9504,-4.932,-4.9854,-5.1128,-5.1037,-5.091,-5.0771,-5.0772,-5.0569,-5.0095,-4.9334,-4.8676,-4.7935,-4.487,-4.4349,-4.5416,-4.2423,-4.1897,-4.2767,-4.2222,-3.8267,-3.2651,-2.8797,-2.7676,-2.644,-1.5955,-1.2135,-0.9907,0.0959,0.7253,1.2319,2.0371,2.6157,3.0734,3.4451,3.6894,3.692,3.0612,2.6053,2.0925,0.0,0.0,0.0668,-0.2412,-0.4834,-0.6518,-0.687,-0.6792,-0.716,-0.8615,-1.1423,-1.3346,-1.2817,-1.6462,-1.9072,-1.8913,-2.1684,-2.485,-2.803,-2.8771,-2.9974,-3.182,-3.0727,-3.0204,-3.1052,-2.9528,-2.8459,-2.8391,-2.9866,-3.1305,-3.2519,-3.5563,-3.7408,-3.8079,-3.9374,-3.901,-3.7201,-3.6427,-3.5502,-3.4587,-3.3753,-3.368,-3.423,-3.2482,-3.288,-3.4347,-3.4532,-3.8368,-4.3988,-4.672,-4.9582,-5.267,0.0,-2.7969,-2.797,-2.7788,-2.7381,-2.7328,-2.8017,-2.9254,-3.0101,-3.0009,-3.1159,-3.1814,-3.1356,-3.245,-3.3352,-3.3673,-3.6692,-3.895,-3.9802,-4.2352,-4.4563,-4.6237,-4.7522,-4.8693,-4.9784,-5.0028,-5.0504,-5.1307,-5.1172,-5.1172,-5.124,-5.1635,-5.1874,-5.1875,-5.1353,-5.0675,-4.9767,-4.7553,-4.6109,-4.5236,-4.3906,-4.2932,-4.2395,-4.253,-4.0532,-3.7074,-3.3207,-3.129,0.0,-1.8221,-1.4194,-1.187,-0.0869,0.703,1.3931,2.2612,3.0155,3.6253,3.8221,3.7051,3.3938,2.8379,2.5219,2.1562,1.4269,0.8344,0.3652,0.0898,-0.1732,-0.3613,-0.3384,-0.3816,-0.4591,0.0,-0.9017,-1.1963,-1.2481,-1.5287,-1.7952,-1.976,-2.1217,-2.3209,-2.6624,-2.7612,-2.8449,-2.9633,-2.9934,-2.9877,-2.9539,-3.0274,-3.0615,-3.0205,-3.1887,-3.3326,-3.4446,-3.6699,-3.7983,-3.8667,-3.8288,-3.7911,-3.7186,-3.4965,-3.3214,-3.1944,-3.3139,-3.3147,-3.247,-3.1986,-3.3169,-3.5591,-3.6731,-4.0668,-4.5922,-4.766,-5.1193,-5.5271,0.0,-2.8803,-2.9047,-2.9155,-2.907,-2.9026,-2.9174,-2.992,-3.0486,-3.0608,-3.12,-3.1514,-3.1184,-3.2377,-3.323,-3.3286,-3.6593,-3.9017,-3.983,-4.3827,-4.645,-4.6985,-4.8785,-4.9912,-5.0152,-5.0597,-5.0972,-5.1271,-5.1171,-5.1172,-5.1249,-5.2016,-5.2407,-5.243,-5.253,-5.1711,-5.0227,-4.8847,-4.6981,-4.4904,-4.4037,-4.2935,-4.1858,-4.2116,-4.1593,-4.0232,-3.7038,-3.4691,-3.1813,-2.2539,-1.8606,-1.5996,-0.7187,0.0714,0.8115,1.5106,2.462,3.4025,3.8789,3.6312,3.1349,2.7212,2.5308,2.2572,1.6043,1.1446,0.7615,0.4345,0.1617,-0.0167,-0.0516,-0.1399,-0.2653,-0.4277,-0.8333,-1.1664,-1.3098,-1.576,-1.8461,-2.118,-2.1768,-2.3043,-2.5897,-2.6435,-2.679,-2.7409,-2.8974,-2.9609,-2.8977,-3.1189,-3.2293,-3.2067,-3.3751,-3.5137,-3.6397,-3.7742,-3.8756,-3.9023,-3.7644,-3.6483,-3.5494,-3.2225,-3.0451,-2.9964,-3.1484,-3.1771,-3.1103,-3.1253,-3.335,-3.6817,-3.8506,-4.2686,-4.7835,-4.9251,-5.2726,-5.687,0.0,0.0,-2.9028,-2.9726,-2.9829,-2.9861,-3.0136,-3.102,-3.1421,-3.0781,-3.0739,-3.1044,-3.1865,-3.2776,-3.3624,-3.4379,-3.6683,-3.9084,-4.1373,-4.5254,-4.7895,-4.8977,-5.0364,-5.1092,-5.0953,-5.1098,-5.1199,-5.1193,-5.1187,-5.1171,-5.1141,-5.2071,-5.1999,-5.1113,-5.2523,-5.1874,-4.9561,-4.8384,-4.7333,-4.6051,-4.2815,-4.1966,-4.256,-4.1247,-4.0734,-4.0624,-3.994,-3.8248,-3.5503,-3.0622,-2.6426,-2.2558,-1.849,-1.3122,-0.7688,-0.4646,0.6709,2.1441,3.5731,3.5474,3.0739,2.8634,2.728,2.496,1.9515,1.6444,1.3295,0.7736,0.5066,0.3026,0.0511,-0.0,-0.1588,-0.5819,-1.0097,-1.3394,-1.4984,-1.8585,-2.1445,-2.2288,-2.3247,-2.4555,0.0,-2.5518,-2.4905,-2.5689,-2.7785,-2.9286,-3.011,-3.1678,-3.3173,-3.394,-3.5048,-3.6443,-3.8395,-3.925,-3.9632,-3.9412,-3.8143,-3.4951,-3.0203,-2.7331,-2.6996,-2.856,-2.8229,-2.8706,-2.967,-2.9403,-3.2365,-3.7285,-3.8591,-4.3993,-5.0902,-5.2377,-5.4524,-5.687,0.0,0.0,0.0,-2.9653,-3.0165,-3.0446,-3.0048,-3.0393,-3.0579,-3.0286,-3.0622,0.0,0.0,0.0,0.0,0.0,-3.684,-3.8887,-4.0296,-4.363,-4.6206,-4.7657,-4.9913,-5.1098,-5.0984,-5.1093,-5.1171,-5.1254,-5.1171,-5.0972,-5.0624,-4.7854,-4.6159,-4.507,-3.5369,-3.3057,-3.5967,-2.8716,-2.9079,-3.434,-3.2772,-3.4734,-3.865,-3.8354,-3.9451,-4.1197,0.0,-4.0614,-3.8722,-3.5824,-3.3386,-3.0905,-2.6871,-2.2419,-1.5413,0.0936,1.1162,1.9682,3.1108,3.1004,2.7287,2.5574,2.5848,2.5366,2.0962,1.8112,1.532,1.147,0.7502,0.4325,0.2697,-0.0684,-0.3462,-0.4879,-0.9703,-1.3938,-1.5519,-1.986,-2.2998,-2.3731,-2.5071,0.0,0.0,0.0,0.0,-2.7196,-2.895,-3.001,-3.0151,-3.2096,-3.3214,-3.3398,-3.5427,-3.7126,-3.8442,-3.9509,-3.9879,-3.9428,-3.5088,-3.1773,-2.9529,-2.7925,-2.7663,-2.8343,-2.8723,-2.8954,-2.9093,-3.0104,-3.2803,-3.6606,-4.0031,-4.5183,-5.0816,-5.3442,-5.5826,-5.7927,0.0,0.0,0.0,0.0,0.0,0.0,0.0,0.0,0.0,0.0,0.0,0.0,0.0,0.0,0.0,0.0,0.0,-3.8461,-3.9722,-4.2301,-4.4594,-4.6434,-4.8486,-4.9552,-4.9484,-4.9322,-4.9127,-4.8995,-4.8652,-4.6745,-4.3332,-3.8832,-3.5696,-3.3351,-1.9972,-1.8102,-2.4362,-1.5763,-1.7771,-2.6695,-2.6618,-3.0613,-3.6793,-3.7333,-3.8908,0.0,-3.6334,-3.6029,-3.756,-3.8454,-3.8568,-3.7656,-3.407,-2.8516,-1.904,0.2734,1.1389,1.6773,2.9542,2.9748,2.6215,2.5743,2.646,2.6298,2.2599,2.0934,1.8948,1.4806,0.8687,0.374,0.262,-0.2972,-0.7524,-0.745,-1.1595,-1.5395,-1.7274,-2.1048,-2.4129,-2.5043,-2.5873,-2.6348,0.0,0.0,0.0,-2.6942,-2.8798,-2.9822,-3.0096,-3.1775,-3.2995,-3.3284,-3.5197,-3.6669,-3.7266,-3.9037,-3.9299,-3.8274,-3.2707,-2.9899,-2.9949,-2.8117,-2.7795,-2.8588,-2.8864,-2.908,-2.8955,-3.1141,-3.4152,-3.7804,-4.1689,-4.6779,-5.2086,-5.4195,-5.6479,-5.8376,0.0,0.0,0.0,0.0,0.0,0.0,0.0,0.0,0.0,0.0,0.0,0.0,0.0,0.0,0.0,0.0,0.0,0.0,-3.953,-4.1168,-4.3094,-4.5289,-4.6125,-4.6574,-4.6691,-4.5954,-4.5295,-4.4751,-4.4018,-3.9389,-3.1108,-2.6923,-2.2806,-1.8484,-0.8551,-0.8779,-1.6251,-1.0514,-1.4224,-2.401,-2.4776,-2.9827,-3.7001,-3.8025,-3.8859,-3.7845,-2.6173,-2.6091,-3.227,-3.7568,-4.0256,-4.0889,-3.8264,-3.0207,-1.7998,0.0624,0.7445,1.2977,3.0883,3.1533,2.7375,2.8897,2.8922,2.7894,2.4864,2.4621,2.3579,1.7634,0.8774,0.1724,0.0,0.0,-1.2752,-1.3143,-1.5112,-1.7391,-1.9758,-2.2371,-2.4674,0.0,0.0,0.0,-2.6877,-2.777,0.0,-2.5298,0.0,-2.8911,-2.969,-3.1087,-3.2355,-3.3524,-3.4745,-3.5319,-3.529,-3.7846,-3.8103,-3.5926,-3.1028,-2.9351,-3.0713,-2.7938,-2.7629,-2.8966,-2.8706,-2.8942,-2.9646,-3.2352,-3.6368,-4.0797,-4.3678,-4.8756,-5.4351,-5.4817,-5.6345,-5.8217,0.0,0.0,0.0,0.0,0.0,0.0,0.0,0.0,0.0,0.0,0.0,0.0,0.0,0.0,0.0,0.0,0.0,0.0,-3.7617,-3.8663,-4.0298,-4.2598,-4.2783,-4.3602,-4.5138,-4.3498,-4.2612,-4.2677,-4.1765,-4.027,-3.8043,-3.3241,-3.0662,-2.9481,-1.5883,-1.4409,-2.1634,-1.3336,-1.6139,-2.6061,-2.6167,-2.9833,-3.5337,-3.593,-3.63,-3.6124,-3.3634,-3.0841,-2.7324,-2.058,0.0,0.0,0.0,-1.1909,-0.4093,0.7557,1.2904,1.7843,3.0736,3.1873,2.9427,2.8889,2.8506,2.7798,2.5749,2.5345,2.4031,1.9426,1.0584,0.3016,0.073,0.0,0.0,-1.1908,-1.4526,0.0,-1.8169,-2.184,0.0,-2.6175,-2.7259,-2.7702,-2.7456,-2.7284,0.0,0.0,-2.7367,-2.8328,-2.8693,-2.9858,-3.1127,-3.2834,-3.4647,-3.5548,-3.5304,-3.5529,-3.5235,-3.4464,-3.0864,-2.9733,-3.0903,-2.8906,-2.8569,-2.9532,-2.9457,-2.9922,-3.0785,-3.3605,-3.7069,-4.1005,-4.5413,-4.9674,-5.3418,-5.5131,-5.6496,-5.7583,0.0,0.0,0.0,0.0,0.0,0.0,0.0,0.0,0.0,0.0,0.0,0.0,0.0,0.0,0.0,0.0,0.0,0.0,0.0,-3.7773,-3.8967,-4.0612,-4.0667,-4.0933,-4.1578,-3.9968,-3.8813,-3.8168,-3.7638,-3.5408,-3.1477,-2.7217,-2.472,-2.328,-1.0659,-1.0385,-1.8939,-1.2189,-1.5655,0.0,0.0,-3.0984,-3.5809,-3.6122,-3.6416,-3.5852,-2.9952,-2.1766,-1.2677,0.0,0.0,-0.6189,-0.3043,0.2427,0.9208,1.6241,0.0,2.4864,3.2129,3.233,3.0219,2.8535,2.8182,2.7848,2.6013,2.716,2.565,1.5312,0.91,0.3079,-0.5004,-1.16,-1.5158,0.0,0.0,0.0,-1.7329,-2.0752,-2.3783,0.0,-2.6509,0.0,-2.65,-2.7101,-2.6694,0.0,-2.6289,-2.7244,-2.7854,-2.8581,-2.9555,-3.0725,-3.2841,-3.4197,-3.4903,-3.3844,-3.352,-3.3916,-3.1447,-3.0509,-3.0903,-2.9823,-2.9419,-2.953,-2.9602,-3.0541,-3.2198,-3.5653,-3.9547,-4.3914,-4.8005,-5.1709,-5.4758,-5.5583,-5.66,-5.7356,0.0,0.0,0.0,0.0,0.0,0.0,0.0,0.0,0.0,0.0,-3.2067,0.0,0.0,0.0,0.0,0.0,0.0,0.0,0.0,0.0,-3.8592,-3.9243,-3.9171,-3.8667,-3.7627,-3.6236,-3.4789,-3.3259,-3.3024,-2.902,-2.1423,-1.8759,-1.6254,-1.369,-0.5641,-0.7566,-1.6612,-1.3641,-1.7913,-2.6988,-2.9808,-3.3688,-3.7726,0.0,-3.7882,-3.6189,-2.2339,-0.9417,0.143,0.0,0.389,0.393,0.8232,1.4693,2.1547,2.5612,2.8824,3.1643,3.4046,3.2561,2.9968,2.7851,2.7364,2.6779,2.4465,2.6417,2.4675,1.0088,0.5965,0.1654,-0.9534,-1.4336,-1.6038,-1.4642,0.0,-1.5529,-1.6602,-1.9464,-2.1626,-2.2422,-2.466,-2.5926,-2.5466,-2.6641,-2.6532,-2.3996,-2.5086,-2.6042,-2.6573,-2.7384,-2.8032,-2.8295,-3.0093,-3.1816,-3.342,-3.1988,-3.184,-3.3337,-3.2029,-3.1284,-3.0903,-3.0616,-3.0142,-2.9474,-2.9756,-3.1388,-3.399,-3.8032,-4.2732,-4.7626,-5.0664,-5.3814,-5.6737,-5.6358,-5.6683,-5.7434,0.0,0.0,0.0,0.0,0.0,0.0,0.0,0.0,0.0,0.0,-3.3907,-3.2082,0.0,0.0,0.0,0.0,0.0,0.0,0.0,0.0,0.0,-3.8646,-3.7408,-3.6834,-3.7031,-3.4186,-3.2583,-3.2444,-3.1235,-3.0379,-2.9832,-3.0351,-3.1106,-3.1919,-3.2172,-3.3515,-3.5677,-3.6026,-3.7456,-3.9522,-3.9576,-4.0193,-4.0844,-3.9761,0.0,0.0,-2.5511,-1.7639,-1.0524,-0.1367,0.8641,1.8203,2.3653,2.7865,3.1371,3.3519,3.2409,3.1192,3.4759,3.2108,2.8163,2.76,2.4446,2.0683,1.7521,1.2689,0.0,0.0,0.394,-0.3328,0.5916,-0.3279,-1.2645,-1.3531,-1.3509,-1.376,-1.4671,-1.64,-1.871,0.0,-2.2984,-2.4323,-2.5889,-2.585,0.0,0.0,-2.4956,-2.4704,-2.4857,-2.5742,-2.6957,-2.8637,-2.9236,-2.9469,-2.9359,-2.8705,-2.8968,-3.0115,-2.9924,-3.0128,-3.0903,-3.0616,-3.0329,-2.9857,-3.0826,0.0,-3.5934,-3.9946,-4.4442,-4.885,-5.222,-5.452,-5.6034,-5.6607,-5.6904,-5.6816,0.0,0.0,0.0,0.0,0.0,0.0,0.0,-3.4755,-3.6907,-3.8978,-3.7501,-3.5969,-3.5128,-3.4887,-3.4797,0.0,0.0,0.0,0.0,0.0,0.0,0.0,-3.7777,-3.7093,-3.6387,-3.4597,-3.3356,-3.2546,0.0,-3.2471,-3.2983,-3.4584,-3.5936,-3.6967,-3.8585,-3.969,-4.0412,-4.1038,-4.1406,-4.16,-4.1647,-4.1405,-4.0996,0.0,0.0,0.0,0.0,0.0,0.0,-1.1138,-0.1757,0.8066,1.8841,2.4694,2.7445,2.6593,2.587,2.5437,2.6214,2.4776,2.2577,1.9796,1.671,1.3275,1.0116,0.0,0.0,0.0,0.3449,0.1664,0.3522,-0.2835,0.0,-0.7692,-0.9287,-1.0884,-1.1816,-1.4258,-1.6876,-1.8886,-2.142,-2.3406,-2.4646,-2.5445,-2.5931,-2.6112,-2.5547,-2.5065,-2.4624,-2.483,-2.5906,-2.7604,-2.7686,-2.7879,-2.8188,-2.7996,-2.832,-2.9532,-2.9098,-2.9746,-3.0903,-3.046,-3.0186,-3.003,-3.2067,-3.475,-3.8095,-4.2624,-4.7285,-5.1991,-5.4854,-5.6745,-5.8025,-5.8019,-5.801,-5.7867,0.0,0.0,0.0,0.0,0.0,0.0,0.0,-3.5856,-3.8196,-4.0535,-4.0872,-4.0179,-3.8175,-3.731,-3.6534,0.0,0.0,0.0,0.0,0.0,0.0,0.0,0.0,-3.7423,-3.5808,0.0,0.0,-3.3217,-3.3845,0.0,0.0,0.0,0.0,0.0,-3.8081,-3.8855,-3.9537,-3.9778,-4.0072,0.0,0.0,-4.1478,0.0,0.0,0.0,0.0,0.0,0.0,0.0,0.0,-1.5745,-0.8628,0.3729,1.2233,1.7276,1.4759,1.5241,1.622,1.4999,1.4838,1.4284,1.0386,0.7729,0.5155,0.214,0.4487,0.0,-0.1176,0.2435,0.5695,0.2117,-0.1138,-0.3034,0.0,-0.5483,-0.8144,-0.9312,-1.2619,-1.4992,0.0,-1.9297,0.0,-2.2719,-2.4547,0.0,-2.5924,-2.5661,-2.5197,-2.4683,-2.4452,-2.4939,-2.6114,-2.6254,-2.6647,-2.7451,-2.7256,-2.7854,-2.9432,-2.8679,-2.9338,-3.0799,-3.029,-3.0201,-3.0478,-3.3191,-3.628,-4.007,-4.5159,-4.9984,-5.43,-5.6862,-5.8696,-5.9772,-5.9413,-5.9303,-5.9192,0.0,0.0,0.0,0.0,0.0,0.0,0.0,-3.5437,-3.8218,-4.1222,-4.2321,-4.2403,-4.13,-3.9261,-3.744,0.0,0.0,0.0,0.0,0.0,0.0,0.0,0.0,0.0,0.0,0.0,0.0,-3.4064,-3.4056,0.0,0.0,0.0,0.0,0.0,0.0,-3.711,-3.696,-3.7423,0.0,0.0,0.0,0.0,0.0,0.0,0.0,0.0,0.0,0.0,0.0,0.0,0.0,-2.2045,-1.9498,-0.8763,0.2994,0.3477,0.0,0.0,0.4747,0.4103,0.2927,0.275,-0.0296,-0.3817,-0.6305,0.0,-1.1092,0.1628,-0.0511,0.016,1.6249,1.1313,0.3054,-0.2516,0.0,-0.6921,-0.826,-1.0832,-1.2936,-1.3378,0.0,0.0,-2.101,-2.2847,-2.4212,-2.4807,-2.4495,-2.4093,-2.4354,-2.4438,-2.4469,-2.4661,-2.4832,-2.499,-2.4779,-2.4811,-2.5858,-2.7972,-2.7996,-2.8845,-3.0512,-3.0757,-3.1002,-3.1596,-3.4247,-3.7419,0.0,-4.6502,-5.0618,-5.3797,-5.6976,-5.869,-5.9248,-5.9745,-5.9911,-5.9828,0.0,0.0,0.0,0.0,0.0,0.0,-3.3259,-3.5799,-3.8517,-4.1967,-4.3188,-4.359,-4.315,-4.1608,-3.9571,-3.7144,0.0,0.0,0.0,0.0,0.0,0.0,0.0,0.0,0.0,0.0,-3.744,-3.7458,-3.6825,0.0,0.0,0.0,0.0,0.0,0.0,-3.7001,-3.7144,-3.7199,0.0,0.0,0.0,0.0,0.0,0.0,0.0,0.0,0.0,0.0,0.0,0.0,0.0,0.0,-2.8784,-2.3693,0.0,0.0,-0.8862,-0.7386,-0.6789,-0.5924,-0.5419,-0.6337,-0.8271,-1.047,-1.2483,0.0,-1.0848,-0.1731,-0.0,0.2889,1.3067,0.98,0.4088,-0.0258,-0.3333,-0.5865,-0.8008,-1.0431,-1.2344,-1.2866,-1.5578,0.0,0.0,0.0,-2.2546,-2.2586,-2.2516,-2.216,-2.1308,-2.154,-2.1541,-2.1262,-2.1652,-2.2365,-2.3425,-2.3372,-2.437,-2.6624,-2.6049,-2.714,-2.9507,-2.9964,-3.1012,-3.3191,-3.7267,-4.0809,0.0,-4.9089,-5.2759,-5.536,-5.8238,-5.9566,-6.0162,-6.1295,-6.1538,-6.1203,0.0,0.0,0.0,0.0,0.0,-2.9554,-3.3287,-3.5665,-3.823,-4.1618,-4.3128,-4.3815,-4.3637,-4.2557,-4.0811,-3.8272,-3.8252,0.0,0.0,0.0,0.0,0.0,0.0,0.0,0.0,0.0,-3.9667,-3.9649,-3.9258,-3.9243,0.0,0.0,-3.7936,-3.7972,0.0,0.0,0.0,0.0,0.0,0.0,0.0,0.0,0.0,0.0,0.0,0.0,0.0,0.0,0.0,0.0,0.0,0.0,0.0,0.0,-2.9343,0.0,-1.9807,-1.7466,-1.7581,-1.5726,-1.3801,-1.4359,-1.5053,-1.582,0.0,-1.3885,-1.0404,-0.5413,-0.1276,0.2711,0.6628,0.5354,0.2485,-0.1241,-0.3962,-0.6402,-0.8871,-1.1082,0.0,0.0,0.0,-1.6784,0.0,-1.9861,-2.097,-2.0548,-2.0572,-1.9929,-1.7663,-1.7889,-1.8487,-1.9249,-1.9472,-2.0588,-2.2828,-2.2606,-2.3799,-2.6219,-2.5376,-2.6443,-2.8993,-3.0122,-3.214,-3.5035,-3.9667,-4.3513,0.0,-5.096,-5.404,-5.6316,-5.8975,-6.0282,-6.0738,-6.2424,-6.2781,-6.2521,0.0,0.0,0.0,0.0,0.0,0.0,-3.2474,-3.4793,-3.7146,-3.9793,-4.1861,-4.2974,-4.256,-4.1609,-4.0565,-3.9502,-3.8302,0.0,0.0,0.0,0.0,0.0,0.0,0.0,0.0,0.0,-3.9946,-3.9681,-4.0675,-4.0877,-4.0274,-3.9191,-3.8153,-3.7146,0.0,0.0,0.0,0.0,0.0,0.0,0.0,0.0,0.0,0.0,0.0,0.0,0.0,0.0,0.0,0.0,0.0,0.0,0.0,0.0,-3.0103,-3.0493,-2.9172,-2.7506,-2.6947,-2.51,-2.2789,-2.0673,-2.0275,-1.9573,-1.6477,-1.5199,-1.316,-0.8471,-0.5573,-0.3176,-0.0769,-0.0113,-0.1743,-0.695,-0.7894,-0.8793,-1.0932,-1.2537,0.0,0.0,0.0,-1.4817,-1.5813,-1.8664,-2.0019,-1.9074,-1.9065,0.0,-1.4062,-1.3877,-1.565,-1.9446,-1.9277,-2.0313,-2.2828,-2.2837,-2.4297,-2.7056,-2.6804,-2.7688,-2.9288,-3.1819,-3.4432,-3.7299,-4.1038,-4.5153,0.0,-5.1771,-5.4087,-5.6316,-5.8975,-6.0282,-6.0793,-6.2604,-6.3544,-6.3701,0.0,0.0,0.0,0.0,0.0,0.0,0.0,-3.3304,-3.5383,-3.7452,-3.9798,-4.1147,-4.0826,-4.0736,-4.0115,-3.8652,-3.8423,0.0,0.0,0.0,0.0,0.0,0.0,0.0,0.0,0.0,-4.145,-4.1566,-4.1525,-4.1361,-4.1035,-3.9483,-3.839,-3.7706,-3.6042,-3.563,0.0,0.0,0.0,0.0,0.0,0.0,0.0,0.0,0.0,0.0,0.0,0.0,0.0,0.0,0.0,0.0,0.0,0.0,0.0,-2.7905,-2.838,0.0,-2.7361,-2.5963,-2.4064,-2.0566,-1.9419,-1.8605,-1.6608,-1.5821,-1.4888,-1.2919,-1.1052,-0.9404,-0.7962,-0.7431,-0.853,-1.24,-1.2922,0.0,0.0,0.0,0.0,-1.4684,-1.5342,-1.6156,0.0,0.0,-1.7655,-1.7019,-1.6116,-1.5003,-1.3877,-1.2915,-1.3158,-1.5222,-1.5466,-1.7061,-2.0121,-2.0897,-2.2548,-2.4924,-2.5681,-2.6934,-2.9212,-3.1877,-3.5557,-3.9722,-4.3175,-4.7292,-5.1376,-5.2941,-5.5069,-5.759,-5.9035,-6.0006,-6.0717,-6.2809,-6.3499,-6.3436,0.0,0.0,0.0,0.0,0.0,0.0,0.0,-3.2474,-3.4178,-3.5964,-3.7815,-3.9141,-3.9471,-3.9618,-3.9287,-3.8447,-3.8664,0.0,0.0,0.0,0.0,0.0,0.0,0.0,-4.0647,-4.1944,-4.2883,-4.3497,-4.3344,-4.2987,-4.2472,-4.0499,-3.931,-3.8856,-3.6781,-3.6197,0.0,0.0,0.0,0.0,0.0,0.0,0.0,0.0,0.0,0.0,0.0,0.0,0.0,0.0,0.0,0.0,0.0,0.0,0.0,0.0,-2.6909,-2.7785,-2.7104,-2.5767,-2.4001,-2.1133,-1.9702,-1.8677,-1.7479,-1.7163,-1.6989,-1.6768,-1.6056,-1.5243,-1.4723,-1.4328,-1.4854,-1.7457,-1.7353,-1.7455,0.0,0.0,0.0,-1.6889,0.0,0.0,0.0,-1.6405,-1.5584,-1.5309,-1.3786,-1.264,-1.2074,-1.1698,-1.1538,-1.1994,-1.313,-1.5321,-1.885,-1.9816,-2.1422,-2.4084,-2.5228,-2.7188,-2.9755,-3.3255,-3.7325,-4.2013,-4.5269,-4.8799,0.0,-5.3716,-5.5517,-5.7569,-5.9097,-6.0073,-6.0891,-6.2509,-6.3335,-6.3663,0.0,0.0,0.0,0.0,0.0,0.0,0.0,-3.216,-3.3492,-3.5103,-3.6066,-3.7085,-3.8285,-3.8199,-3.8223,-3.8575,0.0,0.0,0.0,0.0,0.0,0.0,0.0,0.0,-4.2225,-4.3144,-4.4089,-4.5191,-4.5524,-4.5183,-4.4192,-4.1767,-4.0513,-4.0084,-3.6998,-3.6163,0.0,0.0,0.0,0.0,0.0,0.0,0.0,0.0,0.0,0.0,0.0,0.0,0.0,0.0,0.0,0.0,0.0,0.0,0.0,0.0,0.0,0.0,0.0,-2.4999,-2.3145,-2.2097,-2.0864,-1.9699,-1.9057,-1.9195,0.0,-2.0123,-2.042,-2.0809,-2.1078,-2.0734,-2.0869,-2.2241,-2.1707,-2.1056,0.0,-2.0354,0.0,0.0,-1.6875,0.0,-1.6777,-1.5195,-1.404,-1.3493,-1.1972,-1.0645,-0.9134,-1.0465,-1.0843,-0.9892,-1.1894,-1.4878,-1.8472,-1.9046,-2.0955,-2.4209,-2.6016,-2.8264,-3.1282,-3.554,-3.9899,0.0,-4.7127,-4.9885,-5.2466,-5.4123,-5.5475,-5.6689,-5.8995,-6.0511,-6.1384,-6.1987,-6.2949,-6.4053,0.0,0.0,0.0,0.0,0.0,0.0,0.0,0.0,0.0,0.0,-3.4818,-3.565,-3.573,-3.6963,-3.7507,0.0,0.0,0.0,0.0,0.0,0.0,0.0,0.0,0.0,-4.2036,-4.2903,-4.3585,-4.3981,-4.4361,-4.3818,-4.2422,-4.04,-3.8744,-3.7248,-3.5945,-3.5107,0.0,0.0,0.0,0.0,0.0,0.0,0.0,0.0,0.0,0.0,-3.5217,-3.3991,0.0,0.0,0.0,0.0,0.0,0.0,0.0,0.0,-2.4712,-2.4094,-2.5574,0.0,-2.4008,-2.2164,-2.1916,-2.1899,0.0,-2.1305,-2.2622,-2.3647,-2.4617,-2.5664,-2.714,-2.6758,-2.6743,-2.8121,-2.7428,-2.6077,-2.43,0.0,0.0,-1.8417,-1.7044,-1.5381,-1.3668,-1.3091,-1.2188,-1.1136,-0.9802,-0.9228,-0.9419,-0.9615,-0.9776,-0.9892,-1.1436,-1.3976,-1.7345,-1.8303,-2.0746,-2.4878,-2.7172,-3.0411,-3.4221,-3.8071,-4.1994,-4.588,-4.7852,-5.0128,-5.2466,-5.4123,-5.5709,-5.7297,-5.9156,-6.0376,-6.0974,-6.1545,-6.226,-6.3086,0.0,0.0,0.0,0.0,0.0,0.0,0.0,0.0,0.0,0.0,0.0,-3.4318,-3.4712,-3.6171,0.0,0.0,0.0,0.0,0.0,0.0,0.0,0.0,0.0,-4.1718,-4.2752,-4.2924,-4.335,-4.4045,-4.3526,-4.2711,-4.1565,-3.8654,-3.6711,-3.5714,-3.4293,-3.2961,0.0,0.0,0.0,0.0,0.0,0.0,0.0,0.0,0.0,0.0,-3.232,-3.1186,0.0,-2.8809,-2.7853,-2.7067,0.0,0.0,0.0,0.0,-2.5587,-2.4811,-2.5455,-2.5026,-2.4276,-2.3618,-2.3338,-2.3199,-2.2772,-2.3117,-2.4081,-2.5954,-2.7112,-2.8381,-3.0186,-3.0135,-2.971,-2.9766,-2.8846,0.0,0.0,0.0,-1.9448,-1.83,-1.7032,-1.524,0.0,-1.132,-1.0165,-0.913,-0.7778,-0.7207,-0.7429,-0.7781,-0.8308,-0.9011,-1.1061,-1.3541,-1.6688,-1.8168,-2.0889,-2.5173,-2.8902,-3.2759,-3.6919,-4.0572,-4.4078,-4.7602,-4.8714,-5.046,-5.2839,-5.4505,-5.6176,-5.7879,-5.9615,-6.0647,-6.1162,-6.1217,-6.1821,-6.27,0.0,0.0,0.0,0.0,0.0,0.0,0.0,0.0,0.0,0.0,0.0,0.0,0.0,0.0,0.0,0.0,0.0,0.0,0.0,0.0,0.0,0.0,-4.323,-4.3186,-4.3525,-4.2898,-4.3007,-4.3973,-4.2542,-4.1366,-4.0349,-3.6465,-3.434,-3.3882,-3.1593,-3.0053,0.0,0.0,0.0,0.0,0.0,0.0,0.0,0.0,0.0,0.0,0.0,0.0,0.0,-2.7429,-2.7032,-2.6878,-2.7656,0.0,0.0,0.0,0.0,0.0,-2.5635,-2.4861,-2.4403,-2.5507,-2.4893,-2.4217,-2.4869,-2.4748,-2.5158,-2.7295,-2.8602,-2.9825,-3.1437,-3.1553,0.0,0.0,0.0,0.0,-2.3025,-2.1049,-1.9243,-1.7808,-1.6403,0.0,-1.1945,-0.9529,-0.7781,-0.673,-0.5572,-0.4828,-0.4683,-0.6131,-0.7395,-0.8308,-1.1044,-1.4003,-1.7413,-1.8889,-2.185,-2.6224,-3.115,-3.5477,-3.9496,-4.2981,-4.6243,-4.9171,0.0,0.0,-5.3313,-5.5344,-5.686,-5.8355,-6.01,-6.1054,-6.1407,-6.0945,-6.1494,-6.2398,0.0,0.0,0.0,0.0,0.0,0.0,0.0,0.0,0.0,0.0,0.0,0.0,0.0,0.0,0.0,0.0,0.0,0.0,0.0,0.0,0.0,-4.5152,-4.3518,-4.2615,-4.2663,-4.2205,-4.1662,-4.1099,-4.0261,-3.8757,-3.6694,-3.3709,-3.0854,-2.8077,-2.679,-2.6194,-2.6171,-2.5894,0.0,0.0,0.0,0.0,0.0,0.0,0.0,0.0,0.0,0.0,0.0,-2.4391,-2.5148,-2.6482,-2.5675,0.0,0.0,0.0,0.0,0.0,-2.6104,-2.5878,-2.5586,-2.6148,-2.6126,-2.5987,-2.5843,-2.6153,-2.6839,-2.7955,-2.9355,-3.071,0.0,-3.1462,-3.0517,0.0,0.0,-2.3629,0.0,0.0,-1.7985,-1.6344,0.0,-1.0936,-0.8352,-0.6055,-0.4067,-0.2595,-0.2961,-0.2961,-0.2225,-0.6288,-0.886,-0.9207,-1.3217,-1.7649,-2.2235,-2.1944,-2.4555,-3.0001,-3.4061,-3.8417,-4.2927,-4.5791,-4.8269,-5.0143,0.0,-5.2907,-5.3478,-5.6591,-5.792,-5.8355,-6.01,-6.0837,-6.0891,-6.081,-6.1084,-6.1766,0.0,0.0,0.0,0.0,0.0,0.0,0.0,0.0,0.0,0.0,0.0,0.0,0.0,0.0,0.0,0.0,0.0,0.0,0.0,0.0,-4.56,-4.6119,-4.4086,-4.2853,-4.2668,-4.2115,-4.0983,-3.9279,-3.7463,-3.5165,-3.2442,-2.8785,-2.5937,-2.3892,-2.3578,-2.3422,-2.3477,-2.3357,-2.3929,0.0,0.0,0.0,0.0,0.0,0.0,0.0,0.0,0.0,0.0,0.0,-2.5275,-2.6439,-2.6649,0.0,0.0,0.0,0.0,0.0,-2.5696,-2.5522,-2.5469,-2.5309,-2.599,-2.657,-2.636,-2.6435,-2.6901,-2.8297,-2.9253,-3.011,0.0,0.0,-2.8653,-2.6438,0.0,-2.1747,-2.1679,-1.9337,-1.6726,0.0,0.0,-0.8397,-0.4864,-0.2896,-0.1637,-0.1283,-0.2553,-0.4005,-0.5305,-0.8717,-1.19,-1.4857,-1.7938,-2.2108,-2.7669,-2.8841,-3.1137,-3.4197,-3.7896,-4.2102,-4.6867,-4.8968,-5.1249,-5.3236,0.0,-5.5127,-5.5993,-5.7511,-5.895,-6.0065,-6.0618,-6.0945,-6.1189,-6.1166,-6.1766,-6.2855,0.0,0.0,0.0,0.0,0.0,0.0,0.0,0.0,0.0,0.0,0.0,0.0,0.0,0.0,0.0,0.0,0.0,0.0,0.0,0.0,-4.5733,-4.6187,-4.4204,-4.3048,-4.2923,-4.1627,-3.9776,-3.7348,-3.4546,-3.149,-2.8117,-2.4456,-2.2345,-2.1624,-2.2258,-2.2513,-2.2568,-2.282,-2.3512,0.0,0.0,0.0,0.0,0.0,0.0,0.0,0.0,0.0,0.0,0.0,0.0,0.0,0.0,0.0,0.0,-2.7584,-2.6956,-2.6358,-2.4769,-2.4651,-2.4756,-2.4202,-2.5301,-2.6406,-2.6391,-2.619,-2.6505,-2.8042,-2.879,-2.914,0.0,-2.8089,0.0,-2.3705,-2.1761,-2.0295,-1.9478,-1.7631,-1.5301,-1.2753,-0.983,-0.6396,-0.2317,-0.0891,-0.0714,-0.1797,-0.3924,-0.6586,-0.9843,-1.3079,-1.6951,-2.1345,-2.3619,-2.7405,-3.29,-3.5832,-3.7668,-3.852,-4.1915,-4.5962,-5.0359,-5.192,-5.3711,-5.5676,-5.5956,-5.6912,-5.8164,-5.8573,-5.9878,-6.1352,-6.0945,-6.1027,-6.1352,-6.1439,-6.2498,-6.3989,0.0,0.0,0.0,0.0,0.0,0.0,0.0,0.0,0.0,0.0,0.0,0.0,0.0,0.0,0.0,0.0,0.0,0.0,0.0,0.0,-4.5408,-4.4795,-4.3287,-4.2701,-4.3266,-4.0119,-3.7298,-3.4984,-3.1968,-2.8153,-2.3562,-2.2814,-2.2258,-2.216,-2.3458,-2.4419,-2.5165,-2.553,-2.6708,-2.828,-2.8363,0.0,0.0,0.0,0.0,0.0,0.0,0.0,0.0,0.0,0.0,0.0,0.0,0.0,-2.8524,-2.6738,-2.5702,-2.4957,-2.3485,-2.3448,-2.362,-2.3132,-2.4061,-2.5092,-2.5392,-2.5423,-2.5806,-2.7196,-2.792,-2.8201,-2.7713,-2.5677,-2.325,-2.0698,-2.053,-1.9585,-1.6379,0.0,-1.3631,-1.2803,-0.859,-0.4767,-0.1765,-0.1059,-0.1933,-0.4689,-0.7984,-1.1079,-1.3586,-1.9786,-2.4279,-2.6703,-3.0145,-3.3701,-3.7425,-4.0324,-4.2104,-4.2708,-4.6211,-4.9553,-5.2646,-5.3843,-5.4762,-5.5577,-5.697,-5.7556,-5.7939,-5.977,-6.0755,-6.0837,-6.0782,-6.0782,-6.0947,-6.1923,-6.299,-6.4266,0.0,0.0,0.0,0.0,0.0,0.0,0.0,0.0,0.0,0.0,0.0,0.0,0.0,0.0,0.0,0.0,0.0,0.0,0.0,-4.4549,-4.3171,-4.0071,-4.1446,-3.8573,-3.0407,-3.2523,-3.1901,-2.8247,-2.4648,-2.2526,-2.1803,-2.1513,-2.2161,-2.3729,-2.4707,-2.6135,-2.7825,-2.7749,-2.9238,-3.1572,-3.0343,0.0,0.0,0.0,0.0,0.0,0.0,0.0,0.0,0.0,-2.5644,-2.6626,-2.6479,-2.7262,-2.7642,-2.5172,-2.4172,-2.3673,-2.2321,-2.2517,-2.2983,-2.2635,-2.3203,-2.4264,-2.5483,-2.5476,-2.5645,-2.644,-2.6066,-2.5283,-2.4537,0.0,-2.2586,-2.0435,-1.9803,-1.9098,-1.7695,-1.6162,-1.4885,-1.4006,-1.0688,-0.7803,-0.64,-0.686,-0.8683,-1.2059,-1.6227,-2.0334,-2.4195,-2.8545,-3.2388,-3.5753,-3.7402,-4.0002,-4.3828,-4.4609,-4.6151,-4.8534,-4.9202,-5.1503,-5.5051,-5.5497,-5.6711,-5.8412,-5.8997,-5.9414,-5.9744,-6.0537,-6.0972,-6.1298,-6.1298,-6.1466,-6.1789,-6.2164,-6.397,-6.6099,0.0,0.0,0.0,0.0,0.0,0.0,0.0,0.0,0.0,0.0,0.0,0.0,0.0,0.0,0.0,0.0,0.0,0.0,-4.2965,-4.3412,-4.0685,-3.3942,-3.3318,-2.8467,-1.8548,-2.2011,-2.2893,-2.0507,-1.8161,-1.8197,-2.0512,-2.1241,-2.3048,-2.5847,-2.6806,-2.8602,-3.0874,-3.097,-3.2489,-3.4609,-3.2929,-3.1666,0.0,0.0,0.0,0.0,0.0,0.0,0.0,0.0,-2.569,-2.626,-2.6117,-2.63,-2.6147,-2.3811,-2.2912,-2.2505,-2.1212,-2.1679,-2.2495,-2.242,-2.308,-2.4156,-2.5476,-2.5228,-2.4951,-2.5628,-2.4607,-2.3267,-2.2452,-2.2962,0.0,0.0,-2.1073,-2.0989,-2.0382,-1.9203,-1.8238,-1.7563,-1.527,-1.4788,-1.746,-1.8272,-2.0471,-2.4504,-2.6963,-3.0114,-3.3907,-3.7297,-4.0191,-4.2956,-4.3294,-4.4844,-4.7748,-4.781,-4.9125,-5.1727,-5.1765,-5.3468,-5.666,-5.7025,-5.8183,-6.0039,-6.0177,-6.0315,-6.048,-6.0645,-6.1,-6.1352,-6.1739,-6.2012,-6.2459,-6.3291,-6.4957,-6.6862,0.0,0.0,0.0,0.0,0.0,0.0,0.0,0.0,0.0,0.0,0.0,0.0,0.0,0.0,0.0,0.0,0.0,0.0,-3.9451,-4.1782,-3.8108,-2.6619,-1.7726,-1.1945,-0.9606,-0.9026,-0.992,-1.2409,-1.3373,-1.5787,-1.9659,-2.2203,-2.5067,-2.815,-2.982,-3.1834,-3.4176,-3.5549,-3.6626,-3.7429,-3.6507,-3.4551,-3.2168,0.0,0.0,0.0,0.0,0.0,0.0,0.0,-2.5429,-2.4989,-2.6494,-2.5633,-2.3881,-2.2669,-2.2183,-2.155,-1.9995,-2.0735,-2.209,-2.255,-2.3699,-2.4896,-2.5291,-2.4468,-2.3747,-2.4728,-2.3638,-2.2392,-2.2028,-2.3377,0.0,-2.2519,-2.4344,-2.5653,-2.4324,-2.3723,-2.3575,-2.3502,-2.2863,-2.5945,-3.5187,-3.5539,-3.7202,-4.2042,-4.0121,-3.953,-4.1544,-4.5711,-4.7821,-4.7424,-4.753,-4.7936,-4.8477,-4.9668,-5.0766,-5.1885,-5.4126,-5.5995,-5.7425,-5.856,-5.9228,-5.9648,-6.0039,-6.0039,-5.9648,-6.048,-6.0782,-6.0892,-6.1923,-6.2298,-6.262,-6.5347,-6.5972,-6.5748,0.0,0.0,0.0,0.0,0.0,0.0,0.0,0.0,0.0,0.0,0.0,0.0,0.0,0.0,0.0,0.0,0.0,0.0,-3.5703,-3.3212,-2.7729,-1.8664,-1.5316,-1.0444,-0.3382,-0.5448,-0.7404,-0.9138,-1.2942,-1.699,-2.1139,-2.3305,-2.5592,-2.7964,-2.9841,-3.1707,-3.358,-3.5206,-3.673,-3.803,-3.6581,-3.4767,-3.2861,0.0,0.0,0.0,0.0,0.0,0.0,0.0,0.0,0.0,-2.47,-2.4059,-2.2961,-2.1274,-2.0634,-2.0503,-2.049,-2.1019,-2.2042,-2.3467,-2.4184,-2.4713,-2.5671,-2.475,-2.3306,-2.1888,-2.2271,-2.3168,-2.471,-2.718,0.0,-2.9535,-3.1025,-3.1926,-3.1277,-3.1354,-3.1709,-3.2524,-3.2611,-3.407,-3.7556,-3.9959,-4.2507,-4.5165,-4.6634,-4.7774,-4.9043,-5.0867,-5.1609,-5.0779,-5.1398,-5.1924,-5.199,-5.281,-5.3862,-5.5051,-5.6956,-5.765,-5.6987,-5.7999,-5.8831,-5.9648,-6.0591,-6.0591,-6.0039,-6.0865,-6.1383,-6.1923,-6.2697,-6.3743,-6.4957,-6.6038,-6.6814,-6.7627,0.0,0.0,0.0,0.0,0.0,0.0,0.0,0.0,0.0,0.0,-3.3505,-3.5226,0.0,0.0,0.0,0.0,0.0,0.0,0.0,-2.7507,-2.1585,-1.4396,-1.2866,-0.9828,-0.4446,-0.8146,-1.2006,-1.5865,-1.6036,-1.8387,-2.2522,-2.4034,-2.5827,-2.7939,-2.9114,-3.0673,-3.2647,-3.471,-3.634,-3.7227,-3.6182,-3.4526,-3.2434,0.0,0.0,0.0,0.0,0.0,0.0,0.0,0.0,0.0,-2.3523,-2.2845,-2.228,-2.0825,-2.0181,-2.0161,-2.102,-2.1559,-2.2384,-2.4052,-2.4804,-2.5258,-2.5878,-2.4795,-2.3328,-2.1671,-2.2674,-2.4569,-2.7458,-3.0899,0.0,-3.5521,-3.7234,-3.8487,-3.8814,-3.9206,0.0,0.0,-4.2119,-4.2973,-4.4295,-4.6165,-4.8054,-5.041,-5.1977,-5.3005,-5.3112,-5.3972,-5.3926,-5.2669,-5.2986,-5.3558,-5.4276,-5.4663,-5.5464,-5.6707,-5.853,-5.8926,-5.8133,-5.9209,-6.0212,-6.1002,-6.1519,-6.1519,-6.1247,-6.1519,-6.2058,-6.2564,-6.3488,-6.467,-6.6025,-6.6667,-6.7263,-6.8046,0.0,0.0,0.0,0.0,0.0,0.0,0.0,0.0,0.0,0.0,-3.4168,-3.551,0.0,0.0,0.0,0.0,0.0,0.0,0.0,0.0,-1.8836,-1.327,-1.1435,-1.1162,-1.2371,-1.6063,-2.1401,-2.8362,-2.1587,-2.0236,-2.3892,-2.4384,-2.5635,-2.7542,-2.7473,-2.8788,-3.1141,-3.3888,-3.5268,-3.5511,-3.5368,-3.3724,-3.1309,-3.0622,0.0,0.0,0.0,0.0,0.0,0.0,0.0,0.0,-2.2913,-2.2251,-2.1836,-2.1191,-2.0586,-2.048,-2.1595,-2.2144,-2.2845,-2.4474,-2.5394,-2.6126,-2.6238,-2.5081,-2.3966,-2.3802,0.0,-2.6695,-3.0789,-3.5045,-3.8608,-4.0964,-4.3241,-4.513,-4.6463,-4.7159,0.0,0.0,0.0,0.0,-5.3397,-5.2842,-5.3508,-5.603,-5.5958,-5.5387,-5.4449,-5.5271,-5.5106,-5.3536,-5.3236,-5.3791,-5.5372,-5.5566,-5.6204,-5.7342,-5.9145,-6.0005,-6.0033,-6.1525,-6.2564,-6.3018,-6.2431,-6.2564,-6.3018,-6.2564,-6.2697,-6.315,-6.4224,-6.5116,-6.6154,-6.7263,-6.7473,-6.7457,0.0,0.0,0.0,0.0,0.0,0.0,0.0,0.0,0.0,0.0,0.0,0.0,0.0,0.0,0.0,0.0,0.0,0.0,0.0,0.0,-1.8112,-1.481,-1.6838,-2.1845,-3.0036,-2.6948,-2.6656,-2.9451,-2.5038,-2.3625,-2.4974,-2.4087,-2.3801,-2.3969,-2.4018,-2.5347,-2.7689,-3.1216,-3.3111,-3.3707,-3.3606,-3.2352,-3.0507,-2.9673,-2.831,0.0,0.0,0.0,0.0,0.0,0.0,0.0,-2.3536,-2.2777,-2.1993,-2.137,-2.0959,-2.0898,-2.2026,-2.1612,0.0,-2.4285,-2.5772,-2.6735,-2.7484,-2.79,-2.7877,-2.7019,-2.9053,-3.227,-3.676,-4.0737,-4.4469,-4.7691,-5.0271,-5.2266,-5.3414,-5.3895,-5.4913,0.0,0.0,0.0,0.0,-5.581,-5.5458,-5.5526,-5.555,-5.5131,-5.4092,-5.502,-5.4734,-5.3219,-5.4711,-5.5559,-5.5444,-5.6938,-5.7829,-5.8145,-6.0042,-6.0962,-6.0897,-6.1818,-6.283,-6.3647,-6.2697,-6.283,-6.3647,-6.3357,-6.3488,-6.4196,-6.5489,-6.6294,-6.6853,-6.8147,-6.8111,-6.7276,0.0,0.0,0.0,0.0,0.0,0.0,0.0,0.0,0.0,0.0,0.0,0.0,0.0,0.0,0.0,0.0,0.0,0.0,0.0,-2.2913,-2.1787,-2.2563,-2.5822,-3.023,-3.5712,-3.2596,-3.0771,-3.0501,-2.7589,-2.6117,-2.6008,-2.4238,-2.3173,-2.2814,-2.2871,-2.4106,-2.6538,-3.0152,-3.2008,-3.2448,-3.2961,-3.1889,-3.0049,-2.9822,-2.8812,-2.7491,-2.7461,0.0,0.0,0.0,0.0,0.0,0.0,0.0,-2.2526,-2.2162,-2.1452,-2.1107,-2.2547,0.0,0.0,-2.4585,0.0,-2.7701,-2.961,-3.1584,-3.3388,-3.4438,-3.5285,-3.7154,-4.1635,-4.5957,-4.9861,-5.2646,-5.4894,-5.6624,-5.7691,-5.8113,-5.8565,0.0,0.0,0.0,0.0,0.0,-5.5635,-5.5634,-5.5263,-5.4764,-5.43,-5.4844,-5.4699,-5.3841,-5.5018,-5.5874,-5.6316,-5.7332,-5.8145,-5.8784,-6.009,-6.1048,-6.1687,-6.2406,-6.3022,-6.3532,-6.2894,-6.3022,-6.3561,-6.3593,-6.3836,-6.4306,-6.5455,-6.6403,-6.7301,-6.7627,-6.7457,-6.6991,0.0,0.0,0.0,0.0,0.0,0.0,0.0,0.0,0.0,0.0,0.0,0.0,0.0,0.0,0.0,0.0,0.0,0.0,0.0,-2.6166,-2.7385,-3.176,-3.4546,-3.616,-3.6288,-3.4957,-3.3126,-3.0965,-2.8544,-2.7031,-2.6376,-2.4284,-2.3095,-2.2848,-2.3015,-2.4386,-2.6707,-3.0186,-3.1655,-3.1775,-3.2799,-3.194,-3.0094,-3.0218,-2.9593,-2.8579,-2.8089,-2.7135,-2.5893,-2.4481,0.0,0.0,0.0,0.0,-2.3317,-2.3148,-2.2195,-2.1552,-2.3019,0.0,-2.218,-2.4918,-2.6918,0.0,-3.1951,-3.5435,-3.8781,-4.2131,-4.1636,-4.1922,-4.6073,-5.0375,-5.3952,-5.6033,-5.7819,-5.9251,-5.9892,0.0,0.0,0.0,0.0,0.0,0.0,0.0,0.0,-5.5499,-5.474,-5.4342,-5.4342,-5.4526,-5.4526,-5.4449,-5.4749,-5.5625,-5.7067,-5.7212,-5.7881,-5.9189,-5.9918,-6.0761,-6.1774,-6.247,-6.2877,-6.308,-6.308,-6.308,-6.3138,-6.3777,-6.4038,-6.4096,-6.5115,-6.6184,-6.6957,-6.6433,-6.6412,-6.6375,0.0,0.0,0.0,0.0,0.0,0.0,0.0,0.0,0.0,0.0,-3.6968,-3.9462,-4.291,-4.24,0.0,0.0,0.0,0.0,-2.7341,0.0,0.0,-3.6645,-3.775,-3.8051,-3.7571,-3.4638,-3.1948,-2.9553,-2.6118,-2.4635,-2.489,-2.3842,-2.3349,-2.3294,-2.4395,-2.6056,-2.8195,-3.1322,-3.25,-3.2178,-3.2779,-3.2206,-3.0828,-3.0012,-2.9274,-2.8488,-2.7468,-2.6529,-2.5592,-2.4198,-2.4019,0.0,0.0,0.0,-2.4039,-2.376,-2.334,-2.296,-2.2943,0.0,-2.352,0.0,-2.7579,-3.0519,0.0,0.0,-4.1252,0.0,-4.5962,-4.7133,-5.1119,-5.3166,0.0,0.0,0.0,0.0,0.0,0.0,0.0,0.0,0.0,0.0,0.0,0.0,0.0,0.0,-5.3704,-5.3646,-5.3646,-5.3646,-5.3751,-5.3931,-5.4621,-5.5294,-5.5946,-5.6559,-5.7533,-5.8682,-5.9895,-6.0411,-6.0467,-6.1135,-6.2064,-6.308,-6.308,-6.308,-6.3138,-6.3777,-6.4038,-6.4096,-6.5144,-6.5388,-6.5263,-6.5766,-6.5442,-6.4844,0.0,0.0,0.0,0.0,0.0,0.0,0.0,0.0,0.0,0.0,0.0,-4.0671,-4.3326,-4.2595,0.0,0.0,0.0,0.0,-2.9435,-3.2,0.0,-3.6783,-3.7827,-3.7441,-3.557,-3.2598,-2.9947,-2.7551,-2.451,-2.3737,-2.5144,-2.6017,-2.6494,-2.6775,-2.8418,-3.0158,-3.1957,-3.3508,-3.3753,-3.3128,-3.3479,-3.3183,-3.2509,-3.1766,-3.0997,-3.0183,-2.8879,-2.7373,-2.584,-2.4633,-2.3881,-2.3343,-2.2817,0.0,0.0,0.0,-2.4214,-2.4492,-2.4922,-2.5631,-2.6911,0.0,-3.1066,-3.3672,-3.8695,0.0,-4.4306,-4.781,-4.9522,0.0,0.0,0.0,0.0,0.0,0.0,0.0,0.0,0.0,0.0,0.0,0.0,0.0,0.0,0.0,0.0,0.0,-5.371,-5.3605,-5.35,-5.3605,-5.371,-5.371,-5.4107,-5.4861,-5.587,-5.6657,-5.7595,-5.8822,-5.9138,-5.9392,-5.9713,-6.0351,-6.1135,-6.2035,-6.2035,-6.2238,-6.2558,-6.2848,-6.3291,-6.3764,-6.4264,-6.4606,-6.4774,-6.4453,-6.4352,-6.4298,0.0,0.0,0.0,0.0,0.0,0.0,0.0,0.0,0.0,0.0,0.0,-3.9842,-4.1401,0.0,0.0,0.0,0.0,0.0,-3.0534,0.0,0.0,0.0,0.0,-3.4611,-3.2044,-2.9519,-2.7271,-2.535,-2.3223,-2.3493,-2.6172,-2.8296,-3.0422,-3.2376,-3.3572,-3.4717,-3.5828,-3.6043,-3.5561,-3.4599,-3.4721,-3.4668,-3.437,-3.4212,-3.3635,-3.2778,-3.1026,-2.9076,-2.7185,-2.5846,-2.4467,-2.3187,-2.2898,-2.3225,0.0,0.0,0.0,0.0,0.0,0.0,-3.0308,-3.332,-3.5065,-3.7339,0.0,0.0,-4.7002,0.0,0.0,0.0,0.0,0.0,0.0,0.0,0.0,0.0,0.0,0.0,0.0,0.0,0.0,0.0,0.0,0.0,0.0,0.0,-5.3919,-5.3815,-5.35,-5.371,-5.371,-5.3605,-5.4023,-5.4805,-5.6047,-5.7299,-5.8398,-5.9225,-5.9214,-5.9358,-5.9655,-6.0353,-6.0961,-6.1425,-6.1425,-6.1687,-6.2093,-6.2215,-6.2662,-6.3139,-6.3002,-6.3369,-6.3883,-6.2915,-6.2768,-6.3129,0.0,0.0,0.0,0.0,0.0,0.0,0.0,0.0,0.0,0.0,0.0,0.0,-3.6131,-3.366,-3.028,-2.6133,-2.5759,0.0,0.0,0.0,0.0,0.0,0.0,0.0,-2.7023,-2.5242,-2.3966,-2.3267,-2.2025,-2.3656,-2.7827,-2.9848,-3.4329,-4.0625,-3.9824,-3.921,-3.8763,-3.8805,-3.7959,-3.6663,-3.6674,-3.6487,-3.6357,-3.7158,-3.694,-3.5955,-3.3755,-3.1898,-3.0183,-2.8047,-2.627,-2.4843,-2.4429,-2.4341,-2.4767,0.0,0.0,0.0,0.0,-3.1298,0.0,-3.5748,-3.8407,0.0,0.0,0.0,0.0,0.0,0.0,0.0,0.0,0.0,0.0,0.0,0.0,0.0,0.0,0.0,0.0,0.0,0.0,0.0,0.0,0.0,0.0,0.0,-5.3919,-5.3815,-5.35,-5.35,-5.3605,-5.3919,-5.4611,-5.5418,-5.6353,-5.8978,-6.0126,-5.9925,-6.1092,-6.1177,-6.0511,-6.1494,-6.2006,-6.2035,-6.2035,-6.2064,-6.2093,-6.2487,-6.2348,-6.2028,-6.1702,-6.1577,-6.1673,-6.0936,-6.0697,-6.0931,0.0,0.0,0.0,0.0,0.0,0.0,0.0,0.0,0.0,0.0,0.0,0.0,0.0,-1.2968,-1.3057,-1.4046,-1.919,0.0,0.0,0.0,0.0,0.0,0.0,0.0,-2.3676,-2.3628,-2.3305,-2.2573,-2.318,-2.5463,-2.9258,-3.166,-3.5338,-4.0153,-4.1435,-4.1941,-4.165,-3.9589,-3.7711,-3.5985,-3.5957,-3.6539,-3.749,-3.8182,-3.8262,-3.7742,-3.57,-3.3719,-3.1655,-2.9169,-2.7358,-2.5916,-2.4697,-2.5059,-2.6676,-2.9621,-3.201,-3.3762,0.0,0.0,0.0,-3.8594,-3.9721,-4.1426,0.0,0.0,0.0,0.0,0.0,0.0,0.0,0.0,0.0,0.0,0.0,0.0,0.0,0.0,0.0,0.0,0.0,0.0,0.0,0.0,0.0,0.0,0.0,-5.3993,-5.35,-5.35,-5.3815,-5.4406,-5.4887,-5.6204,-5.8665,-5.9855,-6.0913,-6.1587,-6.1225,-6.1208,-6.1727,-6.1642,-6.2099,-6.2948,-6.2103,-6.1987,-6.237,-6.1616,-6.1401,-6.1553,-6.0439,-6.0359,-6.0811,-5.984,-5.9948,-6.0739,0.0,0.0,0.0,0.0,0.0,0.0,0.0,0.0,-0.934,-0.5916,0.0,0.0,0.0,0.0,-0.2541,-0.7822,-1.562,-2.1615,-2.4925,-2.6362,0.0,0.0,0.0,0.0,-2.1753,-2.2523,-2.3044,-2.3245,-2.4919,-2.7394,-3.0622,-3.2619,-3.5628,-3.9452,-4.0944,-4.2071,-4.2802,-3.996,-3.7934,-3.6579,-3.6168,-3.6619,-3.7792,-3.8913,-3.9033,-3.8439,-3.6636,-3.4562,-3.2286,-2.973,-2.7843,-2.6422,-2.5478,-2.687,-2.9229,-3.2113,-3.4574,-3.6432,-3.6478,0.0,0.0,0.0,0.0,-4.2019,-4.6395,0.0,0.0,0.0,0.0,0.0,0.0,0.0,0.0,0.0,0.0,0.0,0.0,0.0,0.0,0.0,0.0,0.0,0.0,0.0,0.0,0.0,0.0,0.0,-5.35,-5.371,-5.4495,-5.5822,-5.6334,-5.7771,-6.042,-6.0949,-6.1885,-6.3264,-6.2439,-6.2348,-6.2959,-6.244,-6.2318,-6.2549,-6.1821,-6.1821,-6.2175,-6.1011,-6.0556,-6.053,-5.9471,-5.947,-6.0035,-5.9065,-5.9503,-6.0316,0.0,0.0,0.0,0.0,0.0,0.0,0.0,0.0,-0.0732,-0.1455,0.0,0.0,0.0,0.0,0.0,-0.8102,-1.5291,-2.0696,-2.3973,-2.4927,0.0,0.0,0.0,0.0,-2.1221,-2.1859,-2.3115,-2.5126,-2.7011,-2.9279,-3.1916,-3.2712,-3.5276,-3.9257,-3.862,-3.9727,-4.1994,-3.9956,-3.8894,-3.8347,-3.7407,-3.7017,-3.7169,-3.9349,-3.9264,-3.7868,-3.6416,-3.4346,-3.1926,-2.9828,-2.7734,-2.6249,-2.717,-2.9758,-3.253,-3.3481,-3.5217,-3.6846,0.0,0.0,0.0,0.0,0.0,0.0,0.0,0.0,0.0,0.0,0.0,0.0,0.0,0.0,0.0,0.0,0.0,0.0,0.0,0.0,0.0,0.0,0.0,0.0,0.0,0.0,0.0,0.0,-5.4406,-5.4097,-5.3605,-5.4304,-5.5822,-5.8076,-5.9051,-6.016,-6.1435,-6.2424,-6.3372,-6.4595,-6.4969,-6.4685,-6.3932,-6.388,-6.2646,-6.0706,-6.1111,-6.1283,-6.1308,-6.0616,-5.994,-5.9093,-5.8634,-5.8781,-5.9159,-5.8772,-5.9062,-5.9716,0.0,0.0,0.0,0.0,0.0,-0.5132,-0.029,0.594,1.2694,0.0,0.0,0.0,2.5437,1.3288,0.1736,-0.6777,-1.5203,-2.1555,-2.5042,-2.5862,-2.5795,-2.4743,-2.3104,-2.2198,-2.2115,-2.4496,-2.6384,-2.7578,-3.0144,-3.1804,-3.2513,-3.3328,-3.439,-3.571,-3.6492,-3.7184,-3.7775,-3.7467,-3.7299,-3.7194,-3.6006,-3.6635,-3.8213,-3.7364,-3.6472,-3.5129,-3.2152,-2.9559,-2.7535,-2.6313,-2.6371,-2.739,-3.0827,-3.2842,-3.4226,-3.5492,-3.7329,-3.8701,-3.8162,0.0,0.0,0.0,0.0,0.0,0.0,0.0,0.0,0.0,0.0,0.0,0.0,0.0,0.0,0.0,0.0,0.0,0.0,0.0,0.0,0.0,0.0,0.0,0.0,0.0,0.0,0.0,-5.6183,-5.5789,-5.522,-5.6473,-5.75,-5.8366,-6.0038,-6.1403,-6.2424,-6.3531,-6.4729,-6.6048,-6.5324,-6.4941,-6.4972,-6.2553,-6.1404,-6.1081,-5.9315,-5.8654,-5.8971,-5.9328,-5.8893,-5.789,-5.8027,-5.8058,-5.8137,-5.8696,-5.9274,-5.9716,0.0,0.0,-1.441,-0.8985,-0.335,0.2366,0.8271,1.5696,2.3224,0.0,0.0,0.0,2.7093,1.0324,-0.3401,-1.0673,-1.8244,-2.3908,-2.6973,-2.7391,-2.7196,-2.6568,-2.5144,-2.4308,-2.4237,-2.6561,-2.8417,-2.9756,-3.1842,-3.2586,-3.2094,-3.2445,-3.2236,-3.1655,-3.2574,-3.337,-3.3945,-3.4388,-3.5244,-3.6376,-3.5199,-3.5375,-3.6064,-3.4086,-3.2516,-3.1021,-2.7308,-2.529,-2.4545,-2.4077,-2.6464,-3.0263,-3.3534,-3.5249,-3.6129,-3.7064,-3.8394,-3.9468,-3.8965,-3.9414,-4.0015,-3.9698,0.0,0.0,-4.1133,-4.213,0.0,0.0,0.0,0.0,0.0,0.0,0.0,0.0,0.0,0.0,0.0,0.0,0.0,0.0,0.0,0.0,0.0,-5.5883,-5.5883,-5.553,-5.5932,-5.6335,-5.6807,-5.7973,-5.8958,-5.9724,-6.1432,-6.2545,-6.3055,-6.4349,-6.5353,-6.6175,-6.5204,-6.4451,-6.3789,-6.1428,-5.9837,-5.9032,-5.7568,-5.6972,-5.6962,-5.7588,-5.7465,-5.6715,-5.7115,-5.7417,-5.7803,-5.8396,-5.9161,-6.0066,0.0,0.0,-0.6922,-0.0079,0.548,1.1164,1.7335,2.4933,3.0884,0.0,3.5555,3.1449,1.7316,-0.0117,-1.2917,-1.8291,-2.3382,-2.7265,-2.9606,-2.9483,-2.933,-2.9238,-2.8066,-2.7302,-2.7103,-2.8319,-2.9854,-3.1689,-3.2675,-3.2586,-3.1348,-3.0825,-2.9693,-2.7919,-2.8378,-2.9463,-3.0992,-3.1441,-3.3104,-3.5184,-3.4205,-3.3128,-3.2002,-2.9836,-2.7921,-2.6049,-2.2275,-2.1547,-2.2594,-2.3475,-2.8161,-3.403,-3.5917,-3.7317,-3.8191,-3.8556,-3.9188,-3.9785,-3.9753,-3.9771,-3.9873,-4.0788,-3.9715,0.0,-4.0341,-4.164,-4.2833,0.0,0.0,0.0,0.0,0.0,0.0,0.0,0.0,0.0,0.0,0.0,0.0,0.0,0.0,0.0,-5.4269,-5.4922,-5.5018,-5.3963,-5.503,-5.6488,-5.8173,-5.8954,-5.9996,-6.1498,-6.2793,-6.3552,-6.371,-6.4942,-6.5543,-6.5448,-6.4831,-6.3493,-6.1514,-6.0055,-5.8123,-5.5895,-5.6091,-5.5781,-5.5402,-5.5789,-5.5821,-5.5794,-5.6068,-5.6893,-5.7788,-5.7941,-5.8949,-6.0292,-0.7486,-0.4772,-0.114,0.5652,1.0963,1.6577,2.3358,2.9227,3.3846,3.6477,2.4892,1.4244,0.8678,-0.8711,-2.2024,-2.6959,-2.9407,-3.1187,-3.2418,-3.2725,-3.2176,-3.0602,-3.0007,-2.961,-2.933,-3.052,-3.1871,-3.3475,-3.412,-3.3724,-3.2211,-3.0853,-2.9372,-2.7804,-2.7627,-2.8567,-3.036,-3.1637,-3.1785,-3.1208,-3.0348,-2.9574,-2.8652,-2.5864,-2.3397,-2.1128,-1.8479,-1.8574,-2.0729,-2.7758,-3.3117,-3.7144,-3.9283,-4.0088,-4.0304,-4.0946,-4.1342,-4.1693,-4.2096,-4.2538,-4.2565,-4.1576,-4.1187,0.0,-3.8504,-3.9348,-4.0525,0.0,0.0,0.0,0.0,0.0,0.0,0.0,0.0,0.0,0.0,0.0,0.0,0.0,0.0,0.0,-5.4538,-5.4413,-5.5005,-5.6618,-5.7524,-5.8341,-5.9066,-5.9727,-6.0704,-6.2193,-6.3046,-6.4026,-6.5164,-6.5416,-6.5362,-6.4894,-6.3194,-6.1609,-6.0215,-5.7733,-5.65,-5.6216,-5.4977,-5.4629,-5.4831,-5.4417,-5.4687,-5.5311,-5.6113,-5.6694,-5.7236,-5.813,-5.9156,-6.0152,-0.2327,0.1569,0.627,1.2892,1.8915,2.4844,3.1005,3.4315,3.6446,3.746,1.8545,0.3301,-0.1104,-1.7268,-2.9295,-3.3056,-3.3457,-3.3761,-3.4335,-3.4367,-3.3724,-3.2243,-3.1634,-3.1423,-3.1652,-3.1452,-3.2109,-3.3744,-3.3334,-3.252,-3.1302,-3.0214,-2.8789,-2.7172,-2.6757,-2.7746,-2.9651,-3.0208,-2.93,-2.762,-2.7985,-2.7123,-2.5337,-2.2145,-2.0011,-1.8517,-1.7798,-2.0592,-2.5721,-3.252,-3.7315,-4.0522,-4.1877,-4.2569,-4.291,-4.363,-4.4018,-4.4292,-4.4399,-4.4131,-4.3542,-4.22,-4.1057,0.0,0.0,-3.858,-3.9371,-3.9405,0.0,0.0,0.0,0.0,0.0,0.0,0.0,0.0,0.0,0.0,0.0,0.0,0.0,0.0,-5.3429,-5.396,-5.5345,-5.7761,-5.843,-5.9285,-6.0677,-6.0932,-6.1502,-6.258,-6.3209,-6.3647,-6.3994,-6.4127,-6.3589,-6.2414,-6.0652,-5.8954,-5.7464,-5.5653,-5.4853,-5.4725,-5.401,-5.3908,-5.426,-5.3946,-5.4151,-5.464,-5.5248,-5.5857,-5.6531,-5.7549,-5.8604,-5.9577,0.156,0.7125,1.3303,1.9781,2.6266,3.227,3.751,3.767,3.6925,3.6026,1.3731,-0.333,-0.6628,-2.2647,-3.4242,-3.7048,-3.6141,-3.5476,-3.5732,-3.5261,-3.4514,-3.3578,-3.2913,-3.2856,-3.3423,-3.208,-3.202,-3.3363,-3.1973,-3.1027,-3.0378,-2.9581,-2.8442,-2.7066,-2.6572,-2.7457,-2.9447,-2.8913,-2.7657,-2.5987,-2.6833,-2.5145,-2.1831,-1.9297,-1.8294,-1.8429,-2.0857,-2.6238,-3.2839,-3.7512,-4.1055,-4.3621,-4.4152,-4.4843,-4.5716,-4.6275,-4.6773,-4.6962,-4.6504,-4.557,-4.436,-4.3059,-4.1255,-3.9519,0.0,0.0,0.0,-3.858,0.0,0.0,0.0,0.0,0.0,0.0,0.0,0.0,0.0,0.0,0.0,0.0,0.0,0.0,-5.1807,-5.3557,-5.5663,-5.7864,-5.856,-5.9853,-6.1884,-6.179,-6.2076,-6.2776,-6.2956,-6.273,-6.2035,-6.1977,-6.0962,-5.9129,-5.7777,-5.6246,-5.4632,-5.4047,-5.3551,-5.3144,-5.3321,-5.3496,-5.3702,-5.3702,-5.3876,-5.4103,-5.4327,-5.4996,-5.5901,-5.6702,-5.7721,-5.8775,0.3244,1.0675,1.79,2.4285,2.9648,3.4675,3.9396,3.5781,3.1998,3.0435,0.8455,-0.513,0.008,-1.9888,-3.4994,-3.8039,-3.7156,-3.6531,-3.6752,-3.5462,-3.4422,-3.3728,-3.3907,-3.3996,-3.3939,-3.3034,-3.2766,-3.3025,-3.1409,-3.0787,-3.1085,-2.9539,-2.8856,-2.8975,-2.7928,-2.8574,-3.052,-2.9782,-2.9393,-2.9096,-2.7447,-2.3275,-1.8114,-1.8442,-1.969,-2.2384,-3.094,-3.5799,-3.8737,-4.2601,-4.4527,-4.5581,-4.6456,-4.7356,-4.8211,-4.8788,-4.9151,-4.9305,-4.8442,-4.7463,-4.6354,-4.4516,-4.3793,-4.2418,-3.8434,0.0,-3.8488,-3.5857,0.0,0.0,0.0,0.0,0.0,0.0,0.0,0.0,0.0,0.0,0.0,0.0,0.0,0.0,0.0,-5.3371,-5.5978,-5.7168,-5.8324,-5.9649,-6.1148,-6.1344,-6.1882,-6.2776,-6.2007,-6.1405,-6.09,-5.9255,-5.7614,-5.601,-5.5023,-5.3944,-5.2981,-5.3108,-5.3206,-5.3377,-5.3233,-5.3233,-5.3465,-5.3465,-5.3584,-5.3876,-5.4242,-5.4996,-5.5837,-5.6188,-5.6925,-5.7891,-0.0595,0.6915,1.4774,2.2815,2.851,3.3875,3.9535,2.9769,1.8797,1.0642,-0.0715,-0.7943,-0.775,-1.8024,-2.645,-3.0265,-3.1902,-3.2935,-3.3584,-3.3366,-3.3241,-3.3249,-3.3813,-3.4332,-3.4901,-3.3692,-3.2697,-3.1926,-2.9868,-2.8879,-2.882,-2.8656,-2.9125,-3.0138,-2.91,-3.0011,-3.2201,-3.0433,-2.9839,-3.0032,-2.9493,-2.7965,-2.5829,-2.4364,-2.7211,-3.2737,-3.8129,-4.1922,-4.4591,-4.6403,-4.7431,-4.7966,-4.8624,-4.9075,-4.9641,-5.0564,-5.0594,-5.0163,-4.9192,-4.8199,-4.6948,-4.4701,-4.3458,-4.2046,-3.9184,-3.9,-3.8972,0.0,0.0,0.0,0.0,0.0,0.0,0.0,-4.2783,0.0,0.0,0.0,0.0,0.0,0.0,0.0,0.0,0.0,0.0,0.0,-5.7684,-5.8486,-6.0019,-5.9911,-5.982,-5.9755,-5.9376,-5.8709,-5.7777,-5.6493,-5.5265,-5.3999,-5.3161,-5.2317,-5.153,-5.1809,-5.2151,-5.2611,-5.2523,-5.2947,-5.3671,-5.3758,-5.3931,-5.4189,-5.4528,-5.4889,-5.5293,-5.6099,-5.6621,-5.7126,-0.7354,0.0409,0.937,1.9319,2.4412,2.8242,3.1735,1.9604,0.7582,0.0718,-0.4245,-0.7333,-0.7857,-1.3124,-1.8164,-2.2152,-2.5911,-2.8321,-2.9197,-3.0073,-3.0885,-3.1523,-3.3301,-3.4491,-3.495,-3.4451,-3.3284,-3.1471,-2.9254,-2.7902,-2.7548,-2.8402,-2.946,-3.0666,-3.0267,-3.1448,-3.3566,-3.1772,-3.165,-3.2872,-3.3668,-3.5226,-3.6564,-3.3009,-3.6048,-4.2325,-4.4775,-4.7406,-4.9778,-5.0021,-5.0168,0.0,-5.0653,-5.0928,-5.1359,0.0,0.0,0.0,-5.0079,0.0,0.0,0.0,0.0,0.0,0.0,0.0,0.0,0.0,0.0,0.0,0.0,0.0,0.0,-4.1007,0.0,-4.3109,0.0,0.0,0.0,0.0,0.0,0.0,0.0,0.0,0.0,0.0,0.0,-5.5858,-5.7473,-5.7381,-5.7045,-5.6503,-5.6312,-5.5815,-5.4736,-5.3866,-5.3095,-5.2504,-5.1777,-5.1153,-5.0677,-5.0832,-5.1172,-5.1754,-5.1909,-5.2573,-5.3593,-5.3954,-5.4274,-5.4497,-5.4781,-5.4896,-5.496,-5.5776,-5.6136,-5.6413,-1.6753,-0.8025,0.2956,1.4445,1.7171,1.6353,1.2177,0.4421,0.1922,1.0114,0.1963,-0.1038,0.8293,-0.326,-1.2999,-1.631,-2.0659,-2.3477,-2.4115,-2.5567,-2.691,-2.8096,-3.2411,-3.445,-3.3643,-3.5442,-3.5082,-3.2369,-3.0268,-2.9041,-2.8549,-2.9269,-2.9833,-3.0238,-3.165,-3.2911,-3.4147,-3.4248,-3.6122,-3.912,-4.0675,-4.4322,-4.8176,0.0,-4.4982,-4.9001,-5.1487,0.0,0.0,-5.3651,-5.3008,0.0,0.0,0.0,0.0,0.0,0.0,0.0,0.0,0.0,0.0,-4.6315,0.0,0.0,0.0,0.0,-4.2052,0.0,0.0,0.0,0.0,-4.1927,-4.1919,-4.1923,-4.241,0.0,0.0,0.0,0.0,0.0,0.0,0.0,0.0,0.0,0.0,0.0,-5.1008,0.0,-5.2877,-5.3337,-5.3573,-5.3821,-5.3294,-5.2828,-5.232,-5.1424,-5.1037,-5.1156,-5.0818,-5.0649,-5.0599,-5.0731,-5.0784,-5.1103,-5.1723,-5.2434,-5.3092,-5.3787,-5.4359,-5.4813,-5.5031,-5.5113,-5.5113,-5.5146,-5.531,-5.5668,-1.33,-0.8401,-0.0411,1.2645,1.0988,0.7357,0.5885,0.1624,0.0086,0.4414,0.2004,0.1734,0.6609,0.2253,-0.2225,-0.5011,-1.0942,-1.5343,-1.7478,-2.0074,-2.3049,-2.6637,-3.0399,-3.2748,-3.3472,-3.5057,-3.4638,-3.1936,-2.9024,-2.7411,-2.7105,-2.7782,-2.8968,-3.0523,-3.3204,-3.5841,-3.8283,-3.9175,-4.1622,0.0,0.0,-5.2571,-5.4645,0.0,-5.0816,-5.3337,-5.4403,-5.5521,0.0,-5.5421,-5.517,-5.5391,-5.5886,-5.5496,-5.4792,-5.4927,-5.411,-5.2717,0.0,0.0,-4.9512,-4.6218,0.0,0.0,0.0,0.0,0.0,0.0,0.0,0.0,0.0,-4.1671,-4.1624,-4.12,-4.1129,-4.0621,0.0,0.0,0.0,0.0,0.0,0.0,0.0,0.0,0.0,0.0,-4.8009,0.0,0.0,-5.0448,-5.053,-5.0237,-5.0691,-5.0768,-5.0278,-4.9798,-4.9669,-4.9856,-4.9341,-4.911,-4.9188,-4.9278,-4.9708,-5.0611,-5.1327,-5.2197,-5.3343,-5.4242,-5.4697,-5.5031,-5.5196,-5.5246,-5.5246,-5.5246,-5.5328,-5.5604,-1.0808,-0.8729,-0.2646,1.2941,1.2951,0.9041,0.4008,0.3112,0.3643,0.5262,0.5669,0.6481,0.8375,0.6872,0.4821,0.2699,-0.362,-0.8367,-1.0372,-1.458,-1.8951,-2.3021,-2.791,-3.1121,-3.2317,-3.4627,-3.42,-3.0979,-2.8607,-2.6963,-2.6001,-2.7575,-2.9354,-3.1368,-3.5262,-3.8838,-4.2092,-4.4007,-4.69,0.0,0.0,-5.7482,0.0,0.0,-5.6277,-5.7234,0.0,-5.8419,-5.8978,-5.8598,-5.858,-5.8664,-5.8389,-5.7479,-5.6349,-5.5539,-5.409,-5.2429,-5.0204,-4.9596,0.0,-4.6218,-4.6032,0.0,-4.391,0.0,-4.501,0.0,0.0,0.0,0.0,-4.168,-4.129,-4.0535,-3.9836,-3.8702,0.0,-3.5899,0.0,0.0,0.0,0.0,0.0,0.0,-4.3834,-4.5053,-4.4118,0.0,0.0,0.0,-4.6924,-4.6802,-4.8058,-4.8763,-4.8707,-4.8936,-4.9197,-4.9426,-4.9151,-4.9021,-4.912,-4.9032,-4.9473,-5.0304,-5.0861,-5.1883,-5.3241,-5.4026,-5.4723,-5.5196,-5.5328,-5.5409,-5.5409,-5.5328,-5.5569,-5.6233,-1.0062,-0.9575,-0.3895,1.4218,2.1053,1.9482,0.6228,0.8305,1.1807,1.2936,1.2907,1.2952,1.3639,1.0509,0.7826,0.6685,0.1135,-0.2632,-0.3397,-0.9678,-1.4739,-1.7995,-2.5308,-2.9775,-3.0584,-3.3998,-3.3696,-2.9602,-2.8835,-2.742,-2.5511,-2.8487,-3.081,-3.273,-3.7617,-4.167,-4.5183,-4.8353,-5.1664,-5.5021,-5.7276,-5.9329,-6.1067,-6.149,-6.117,-6.0601,-6.1606,-6.1849,-6.1845,-6.2747,-6.277,-6.2009,-5.9977,-5.9296,-5.8554,-5.5397,-5.389,-5.27,-5.0058,-4.8624,-4.7501,-4.6366,-4.6156,0.0,0.0,0.0,-4.6161,0.0,0.0,0.0,0.0,0.0,-4.0696,-3.9908,-3.8478,-3.6899,-3.4994,0.0,0.0,0.0,0.0,0.0,0.0,-4.0638,-4.0126,-4.0767,-3.9678,0.0,0.0,0.0,-4.3005,-4.3813,-4.5601,-4.6914,-4.7638,-4.8497,-4.9224,-4.9813,-5.0014,-5.0083,-5.0066,-4.991,-4.9994,-5.0246,-5.0529,-5.1466,-5.2701,-5.3405,-5.4356,-5.5409,-5.5409,-5.5409,-5.5328,-5.5228,-5.6015,-5.7227,-1.2532,-0.9285,-0.4026,0.4401,0.9468,1.2872,1.4346,1.6268,1.7831,1.8656,1.6823,1.4707,1.2728,1.0436,0.8886,0.8419,0.4409,0.0561,-0.2723,-0.9007,-1.5455,-2.1655,-2.6461,-2.9719,-3.1429,-3.1102,-3.0269,-2.9106,-2.4988,-2.4242,-2.6657,-2.7915,-3.0078,-3.3383,-3.917,-4.3585,-4.6799,-5.0333,-5.402,-5.7686,-5.9512,-6.0774,-6.1639,0.0,-6.2021,-6.1858,-6.2802,-6.3505,-6.3876,-6.3649,-6.3125,-6.2379,-6.0703,-5.8787,-5.6851,-5.4333,-5.2136,-5.0095,-4.8683,-4.767,-4.6732,-4.5639,-4.5962,-4.6226,0.0,0.0,0.0,0.0,0.0,0.0,0.0,0.0,0.0,-3.7086,-3.5661,-3.5033,-3.5732,0.0,0.0,-3.6394,0.0,0.0,0.0,-3.7679,-3.7833,-3.8626,-3.8964,0.0,0.0,0.0,0.0,-4.316,-4.4847,-4.6027,-4.6486,-4.7013,-4.7572,-4.8095,-4.8223,-4.8567,-4.9321,-4.8893,-4.9305,-5.0246,-5.0529,-5.1417,-5.2571,-5.3323,-5.4274,-5.5196,-5.5328,-5.5328,-5.526,-5.5859,-5.6362,-5.6751,-1.4787,-0.8631,-0.1914,0.354,1.1417,1.835,2.2462,2.5076,2.6084,2.4511,1.9885,1.5658,1.3173,1.0722,0.8915,0.7684,0.5096,0.1298,-0.4205,-0.928,-1.5481,-2.3407,-2.7119,-2.9434,-3.0419,-2.9564,-2.7636,-2.4808,-2.2986,-2.3185,-2.5478,-2.801,-3.1025,-3.4538,0.0,-4.3676,-4.6568,-5.0707,-5.4004,-5.6525,-5.7732,-5.8829,0.0,-5.9871,-6.0156,-6.0492,-6.0829,-6.1717,-6.2741,-6.3067,-6.2163,-6.0637,-5.8913,-5.6991,-5.4743,-5.2126,-5.0117,-4.8387,-4.6989,-4.6167,-4.5522,-4.4739,-4.5289,-4.5768,-4.488,-4.5059,-4.4898,0.0,-4.2077,-4.1286,0.0,0.0,0.0,-3.598,-3.5337,-3.5202,-3.5587,0.0,0.0,0.0,-3.584,0.0,0.0,-3.6111,-3.6574,-3.7158,-3.7713,0.0,0.0,0.0,0.0,-4.2714,-4.4607,-4.5728,-4.5897,-4.6717,-4.7013,-4.6945,-4.7701,-4.8518,-4.9245,-4.9208,-4.9652,-5.0602,-5.0422,-5.1023,-5.2093,-5.2957,-5.3824,-5.4858,-5.5231,-5.5246,-5.5293,-5.6466,-5.6839,-5.688,-1.6596,-0.86,0.035,0.8185,1.9647,2.8451,0.0,3.4047,0.0,2.8887,0.0,1.6145,1.3545,1.0785,0.8169,0.5944,0.3902,-0.0,-0.6634,-1.0756,-1.6365,-2.4408,-2.7573,-2.9059,-2.8504,-2.7991,-2.5028,-1.9432,-2.1591,-2.2823,-2.337,-2.8254,-3.226,0.0,0.0,0.0,0.0,-4.9718,-5.2128,-5.3007,-5.372,-5.4974,-5.6359,-5.6204,-5.6644,-5.7299,-5.7053,-5.8246,-6.0055,-6.1152,-5.9957,-5.7571,-5.5794,-5.4242,-5.2379,-4.9382,-4.7875,-4.6899,-4.5311,-4.4519,-4.4072,-4.3822,-4.4304,-4.4799,-4.4488,-4.4028,-4.3463,-4.2658,-4.0987,-3.9936,-4.0707,0.0,0.0,0.0,0.0,0.0,0.0,0.0,0.0,0.0,0.0,0.0,0.0,0.0,0.0,0.0,0.0,0.0,0.0,0.0,0.0,-4.2444,-4.4357,-4.5326,-4.5368,-4.6585,-4.6848,-4.6092,-4.7701,-4.8852,-4.9562,-4.9823,-5.0316,-5.0951,-5.0292,-5.0549,-5.1645,-5.2429,-5.3519,-5.476,-5.5183,-5.5409,-5.5507,-5.6821,-5.7315,-5.7372,-1.7788,-1.1678,-0.2334,1.3918,2.0983,2.7942,3.8642,4.1254,3.7941,2.6533,2.1553,1.6778,1.076,0.8264,0.6792,0.6402,0.1372,0.0,-0.879,0.0,0.0,-2.7984,-2.9228,-2.9059,-2.7713,-2.345,-2.0449,-1.8802,-1.7802,-1.9535,-2.3709,-2.6885,-3.0139,0.0,0.0,0.0,-4.4532,-4.6709,0.0,-4.951,-5.0186,-5.1665,-5.3475,-5.2975,-5.3062,-5.3343,-5.3149,-5.531,-5.805,-5.7409,-5.6311,-5.4909,-5.2734,-5.1028,-4.9512,-4.7737,-4.5785,-4.4288,-4.4508,-4.3487,-4.2498,-4.2911,-4.3409,-4.3763,-4.3273,-4.3288,-4.3227,-4.2359,-4.1901,-4.1403,-4.0538,0.0,0.0,0.0,0.0,0.0,0.0,0.0,0.0,0.0,0.0,-3.6648,0.0,0.0,0.0,0.0,0.0,0.0,0.0,0.0,0.0,0.0,-4.2723,0.0,0.0,0.0,-4.5243,-4.6092,-4.6419,-4.7528,-4.9316,-4.9087,-4.9534,-5.0602,-5.0324,-5.0659,-5.1439,-5.2902,-5.46,-5.6204,-5.562,-5.5894,-5.668,-5.6546,-5.7198,-5.8108,-1.2221,0.13,1.4023,2.0915,3.0592,0.0,0.0,4.2652,3.8728,2.8756,2.133,1.5719,1.243,0.885,0.6008,0.4802,0.0313,-0.5324,-1.1946,-1.5957,-2.1414,-2.8486,-2.8243,-2.6914,-2.4584,-2.1221,-1.8292,-1.6011,-1.724,-1.9897,-2.3854,-2.7603,0.0,-3.3001,0.0,-3.883,0.0,0.0,0.0,-4.5611,-4.6591,-4.8099,-4.9575,-4.8875,-4.9042,-4.9504,-4.9184,-5.016,-5.1764,-5.2917,-5.2061,-5.0445,-4.9478,-4.7911,-4.6278,-4.5397,-4.4159,-4.3179,-4.35,-4.3192,-4.2679,-4.2716,-4.2943,-4.3168,-4.2815,-4.2654,-4.2524,-4.2393,-4.2008,-4.1563,-4.1117,-4.028,0.0,0.0,0.0,0.0,0.0,0.0,-3.8916,0.0,0.0,0.0,0.0,0.0,0.0,0.0,0.0,0.0,0.0,0.0,-4.0028,0.0,0.0,0.0,-4.4227,0.0,-4.5536,-4.5669,-4.6354,-4.759,-4.9278,-4.8885,-4.9554,-5.0951,-5.0634,-5.0903,-5.1794,-5.3432,-5.482,-5.5919,-5.6126,-5.6414,-5.6801,-5.7147,-5.7682,-5.8208,0.0449,1.8825,3.2406,3.0352,4.105,4.8435,4.3775,4.1149,3.7384,3.0951,2.1975,1.5726,1.4694,1.0264,0.6135,0.2833,-0.0956,-0.6525,-1.4538,-1.6684,-2.084,-2.7943,-2.6971,-2.5022,-2.244,-2.0617,-1.8171,-1.4981,-1.8628,-2.1788,0.0,-2.8892,0.0,0.0,0.0,0.0,0.0,0.0,-4.1799,-4.251,-4.3685,-4.4853,-4.5975,-4.5405,-4.5583,-4.6174,-4.5788,-4.5568,-4.5886,-4.8369,-4.7966,-4.6498,-4.6671,-4.5557,-4.4083,-4.3815,-4.35,-4.3137,-4.2992,-4.3103,-4.3202,-4.278,-4.2775,-4.2775,-4.2492,-4.2206,-4.2077,-4.2365,-4.2013,-4.1725,-4.1797,-4.1697,0.0,0.0,0.0,0.0,0.0,0.0,-3.982,0.0,0.0,0.0,-3.6339,0.0,0.0,0.0,0.0,0.0,-3.6908,-3.8104,-3.983,0.0,0.0,-4.3376,-4.4014,0.0,-4.5894,-4.5372,-4.6552,-4.7854,-4.9245,-4.8957,-4.9775,-5.1327,-5.0908,-5.1382,-5.2534,-5.3964,-5.4924,-5.5729,-5.6611,-5.703,-5.7147,-5.7814,-5.8174,-5.8351,2.4027,3.4284,0.0,0.0,0.0,4.7032,4.2028,3.7356,3.3028,2.9526,2.4806,1.973,1.4245,1.1615,0.7865,0.2089,-0.3493,-0.9246,-1.532,-2.039,-2.4295,-2.6969,-2.689,-2.5811,-2.4076,-2.2374,-2.0987,0.0,0.0,-2.4777,-2.679,-2.9464,0.0,0.0,0.0,0.0,0.0,-3.9621,-4.0414,-4.1642,-4.2172,-4.2783,-4.3485,-4.3617,-4.3756,-4.3913,-4.378,-4.3862,-4.4013,-4.4347,-4.4772,-4.513,-4.4664,-4.4816,-4.4911,-4.4476,-4.4389,-4.4363,-4.3719,-4.3264,-4.2902,-4.2837,-4.2775,-4.2492,-4.2013,-4.2206,-4.2429,-4.1917,-4.2553,-4.2911,-4.2341,-4.3024,-4.3337,0.0,0.0,0.0,0.0,0.0,-4.0034,-3.8044,0.0,0.0,0.0,-3.3811,0.0,0.0,-3.4464,0.0,-3.7735,-3.7288,-3.8327,-4.1442,-4.146,-4.1741,-4.2532,-4.3948,-4.497,-4.5596,-4.6386,-4.7668,-4.9316,-4.9245,-4.9953,-5.1102,-5.1252,-5.2277,-5.387,-5.4343,-5.5475,-5.6938,-5.6988,-5.7662,-5.8561,-5.8209,-5.8562,-5.9183,0.0,0.0,0.0,0.0,0.0,0.0,0.0,3.6753,3.2194,2.8551,2.4426,1.9971,1.5317,1.0687,0.5792,0.0616,-0.5052,-1.1014,-1.7038,-2.0392,-2.3843,-2.733,-2.6875,-2.6226,-2.5593,-2.4434,-2.4063,0.0,0.0,-2.791,-3.0348,-3.2149,0.0,0.0,0.0,-3.8635,-4.002,-4.0581,-4.1388,-4.2242,-4.2574,-4.3102,-4.3686,-4.3355,-4.3468,-4.3712,-4.3504,-4.3622,-4.3851,-4.3925,-4.4397,-4.4941,-4.4936,-4.483,-4.4714,-4.5101,-4.4937,-4.4429,-4.3945,-4.362,-4.3232,-4.281,-4.265,-4.2555,-4.2365,-4.2429,-4.2555,-4.2333,-4.2834,-4.3403,-4.3685,-4.3721,-4.3584,-4.3333,0.0,0.0,0.0,0.0,0.0,-3.9412,0.0,-3.7736,0.0,0.0,0.0,0.0,0.0,0.0,-3.6569,-3.6884,0.0,-4.005,0.0,-4.1857,-4.3079,-4.45,-4.5748,-4.6573,-4.7077,-4.7834,-4.8838,-4.9403,-5.0495,-5.1987,-5.2557,-5.3073,-5.3685,-5.4529,-5.5516,-5.661,-5.7114,-5.7976,-5.8875,-5.8875,-5.9081,-5.9453,2.4736,0.0,4.3815,0.0,4.5431,4.2806,3.8039,3.3685,2.9126,2.3917,1.9802,1.6434,1.4216,0.9152,0.3306,-0.292,-0.8237,-1.376,-1.9929,-2.2262,-2.4993,-2.8397,-2.8084,0.0,-2.7702,-2.7473,-2.7876,-2.8834,-2.9881,-3.164,-3.39,-3.5605,0.0,0.0,-3.9363,-4.0182,-4.1136,-4.1829,-4.2365,-4.2866,-4.3235,-4.348,-4.3553,-4.3331,-4.3259,-4.3246,-4.3195,-4.3451,-4.379,-4.405,-4.4684,-4.5247,-4.5332,-4.5277,-4.5221,-4.5653,-4.5435,-4.4983,-4.4496,-4.4236,-4.3913,-4.3199,-4.2941,-4.2909,-4.2682,-4.2618,-4.2618,-4.2834,-4.3323,-4.3939,-4.4652,-4.4354,-4.3931,-4.3803,0.0,0.0,0.0,-4.107,0.0,-4.005,-3.8805,-3.7718,-3.7117,-3.5428,0.0,0.0,0.0,0.0,0.0,0.0,0.0,0.0,0.0,0.0,-4.3654,-4.5147,-4.6367,-4.7258,-4.7701,-4.8233,-4.8789,-4.9953,-5.1391,-5.287,-5.3483,-5.3683,-5.3685,-5.4973,-5.5824,-5.6406,-5.7637,-5.853,-5.9217,-5.9351,-5.9586,-5.9849,2.1039,2.7613,3.1527,3.6675,3.6828,3.4612,2.92,2.6339,2.2038,1.414,1.0379,0.874,0.9731,0.6865,0.0855,-0.944,-1.335,-1.785,-2.4364,-2.7287,-2.9126,0.0,0.0,-3.1172,-3.066,-3.1759,-3.2639,-3.336,0.0,0.0,-3.7199,0.0,-4.0974,-4.1694,-4.2364,-4.2853,-4.3127,-4.2959,-4.2958,-4.3146,-4.3804,-4.3423,-4.2525,-4.3331,-4.2912,-4.201,-4.2547,-4.3178,-4.3801,-4.4252,-4.5191,-4.5977,-4.5551,-4.6056,-4.673,-4.6018,-4.6092,-4.6225,-4.544,-4.5146,-4.4821,-4.4137,-4.3847,-4.3524,-4.2812,-4.2618,-4.2805,-4.335,-4.4112,-4.4763,-4.4838,-4.5177,-4.4854,-4.3354,0.0,0.0,0.0,-4.0485,0.0,-3.9302,-3.7461,-3.6315,-3.6363,-3.4603,0.0,0.0,0.0,0.0,0.0,0.0,0.0,-4.0534,-4.1333,0.0,-4.3889,-4.533,-4.6491,-4.7412,-4.8149,-4.8757,-4.9327,-5.1162,-5.2472,-5.3382,-5.3849,-5.398,-5.4083,-5.5787,-5.6505,-5.6642,-5.8561,-5.9418,-5.9617,-5.9748,-6.0008,-6.0325,0.6189,1.4065,1.9998,2.3164,2.3782,2.2759,1.9819,1.5282,1.0219,0.4844,-0.0502,-0.4993,-0.7926,-0.6712,-0.8539,0.0,-1.9621,-2.3745,0.0,-3.0541,-3.2085,-3.3735,-3.4525,-3.4999,-3.5178,-3.5927,-3.6887,-3.7955,0.0,0.0,0.0,-4.1578,-4.2125,-4.2261,-4.2377,-4.2672,-4.3048,-4.2617,-4.2815,-4.3388,-4.3065,-4.2938,-4.2837,-4.2398,-4.1944,-4.1718,-4.2512,-4.2974,-4.3458,-4.4464,-4.5515,-4.6372,-4.6301,-4.6442,-4.6759,-4.6906,-4.6976,-4.6745,-4.6028,-4.57,-4.5242,-4.4075,-4.3783,-4.3588,-4.3182,-4.3323,-4.3739,-4.4339,-4.4674,-4.4981,-4.5336,-4.5701,-4.5331,-4.3504,-4.3311,0.0,-4.0982,0.0,-4.0334,-3.9883,-3.8836,-3.7984,-3.7451,-3.624,0.0,0.0,0.0,0.0,0.0,0.0,0.0,0.0,-4.1176,0.0,-4.4656,-4.5684,-4.6971,-4.8461,-4.8697,-4.9598,-5.0943,-5.1319,-5.2428,-5.4175,-5.4303,-5.4494,-5.4717,-5.5265,-5.6096,-5.7067,-5.7717,-5.8776,-5.9978,-6.0008,-6.0199,-6.0485,-0.8489,-0.1121,0.5321,0.897,0.9997,0.949,0.6896,0.2716,-0.1969,-0.6715,-1.1854,-1.6693,-2.0945,-2.0405,0.0,-2.3306,-2.5993,-2.935,-3.3698,-3.455,-3.5706,-3.7412,-3.7896,-3.806,-3.7838,-3.8495,0.0,-4.0335,-4.0862,-4.1763,-4.2833,-4.2993,-4.3129,-4.324,-4.3057,-4.3105,-4.328,-4.2932,-4.296,-4.3328,-4.2867,-4.2555,-4.2333,-4.1754,-4.1292,-4.1153,-4.204,-4.273,-4.3388,-4.4675,-4.5827,-4.6722,-4.6722,-4.6722,-4.6791,-4.7267,-4.7235,-4.7001,-4.6545,-4.628,-4.5921,-4.4787,-4.4496,-4.4367,-4.3826,-4.4023,-4.4451,-4.4892,-4.5142,-4.5407,-4.5905,-4.5955,-4.5431,-4.3847,-4.3506,-4.2736,-4.0792,0.0,-4.0231,0.0,0.0,0.0,0.0,-3.7219,-3.7136,0.0,0.0,0.0,0.0,0.0,0.0,-4.0428,-4.1741,-4.3317,-4.5109,-4.6059,-4.7214,-4.864,-4.9033,-5.0073,-5.1788,-5.1629,-5.2701,-5.4655,-5.4683,-5.4869,-5.5113,-5.5488,-5.6326,-5.7514,-5.7919,-5.8983,-6.0297,-6.0325,-6.0512,-6.0793,-2.1921,-1.649,-1.1218,0.0,-0.3947,0.0,-0.8258,-1.0868,-1.4333,-1.9672,-2.3251,-2.6393,-2.9504,-3.3059,-3.3949,-3.0965,0.0,0.0,0.0,-3.8833,-3.9539,-4.0579,-4.0608,-4.0106,-3.894,-3.9421,-4.0099,-4.0822,-4.2317,-4.3415,-4.4147,-4.3849,-4.4007,-4.4519,-4.427,-4.4039,-4.3898,-4.3687,-4.3328,-4.2899,-4.299,-4.2333,-4.1323,-4.1292,-4.082,-4.0362,-4.1488,-4.256,-4.3605,-4.4883,-4.6003,-4.6896,-4.686,-4.6892,-4.6961,-4.7098,-4.703,-4.686,-4.6828,-4.6795,-4.6633,-4.5856,-4.5696,-4.5473,-4.464,-4.4731,-4.5001,-4.5108,-4.5511,-4.6005,-4.6495,-4.607,-4.5297,-4.4237,-4.3568,-4.2417,-4.0297,-4.0328,-3.9973,0.0,0.0,0.0,-3.7419,-3.7812,-3.8209,0.0,0.0,0.0,0.0,0.0,-4.0071,-4.2038,-4.2846,-4.3923,-4.5404,-4.6355,-4.7276,-4.8235,-4.9129,-5.0472,-5.2035,-5.2183,-5.3168,-5.4842,-5.4992,-5.5113,-5.5294,-5.621,-5.7078,-5.7921,-5.8931,-5.9866,-6.0609,-6.0828,-6.1045,-6.1165,0.0,0.0,-1.9554,-1.7287,-1.7396,-1.7913,-1.8555,-2.2136,-2.5645,-2.8375,-3.0999,-3.3528,-3.5668,-3.7206,-3.8028,-3.7878,-3.7832,-3.8265,-3.9373,-3.9186,-3.9284,-3.9734,-3.9173,-3.8752,-3.8609,-3.9266,-4.0527,-4.243,-4.3573,-4.4359,-4.4776,-4.4795,-4.479,-4.472,-4.4384,-4.4212,-4.4039,-4.3628,-4.3267,-4.2837,-4.2333,-4.1656,-4.1091,-4.1122,-4.0851,-4.0639,-4.2311,-4.3129,-4.3616,-4.5169,-4.5988,-4.6517,-4.6767,-4.6892,-4.6892,-4.6961,-4.6961,-4.6763,-4.6212,-4.605,-4.5759,-4.4528,-4.4322,-4.4464,-4.4733,-4.5118,-4.5494,-4.5752,-4.6105,-4.635,-4.6154,-4.5952,-4.5258,-4.3885,-4.3208,-4.2393,-4.1059,-4.0827,-4.0542,0.0,-3.9681,-3.9394,-3.8619,-3.8891,-3.8949,0.0,0.0,0.0,-3.9242,-4.0155,-4.1118,-4.2072,-4.3064,-4.4236,-4.5612,-4.676,-4.8129,-4.9723,-5.0045,-5.0968,-5.2552,-5.2577,-5.3624,-5.5329,-5.5389,-5.5531,-5.5729,-5.5998,-5.6917,-5.8189,-5.8425,-5.943,-6.0828,-6.1493,-6.1864,-6.2021,-2.8348,-2.6075,-2.4562,-2.4193,-2.556,-2.697,-2.7641,-3.0445,-3.3047,-3.4821,-3.6353,-3.7734,-3.8984,-3.9463,-3.991,-4.047,-4.0121,-3.9968,-4.0367,-4.0038,-3.9936,-4.0089,-3.9563,-3.9204,-3.9204,-3.9979,-4.1417,-4.3436,-4.4316,-4.4797,-4.4995,-4.5049,-4.4886,-4.4665,-4.4384,-4.4155,-4.4039,-4.3449,-4.2867,-4.2333,-4.1656,-4.1194,-4.082,-4.082,-4.0752,-4.0913,-4.2512,-4.3099,-4.3423,-4.5172,-4.5731,-4.5732,-4.6637,-4.6666,-4.6439,-4.6795,-4.6633,-4.6245,-4.5532,-4.5338,-4.521,-4.4658,-4.4743,-4.4993,-4.5329,-4.563,-4.5889,-4.6204,-4.6495,-4.6731,-4.6835,-4.6193,-4.5275,-4.4233,-4.33,-4.2286,-4.1006,-4.0954,-4.0745,-4.0069,-4.0065,-3.9952,-3.9382,-3.9415,-3.9354,-3.8972,-3.9023,0.0,-3.9885,-4.1017,-4.1827,-4.2179,-4.3478,-4.4742,-4.5898,-4.7442,-4.8916,-5.0285,-5.0341,-5.1233,-5.2729,-5.2846,-5.3859,-5.5507,-5.5625,-5.5822,-5.6085,-5.6404,-5.7291,-5.8485,-5.8934,-5.9787,-6.1045,-6.1864,-6.221,-6.2271,-2.7916,-2.7574,-2.7791,-2.8319,-3.0581,-3.3022,-3.4769,-3.6218,-3.7688,-3.9133,-3.9666,-4.0091,-4.0478,-4.0439,-4.0539,-4.0746,-4.0401,-4.0426,-4.0807,-4.0601,-4.0442,-4.0382,-4.0149,-4.0013,-3.9877,-4.0982,-4.2361,-4.4088,-4.4686,-4.5049,-4.5049,-4.494,-4.4776,-4.4643,-4.427,-4.4039,-4.3923,-4.3207,-4.2493,-4.1881,-4.1323,-4.095,-4.077,-4.0907,-4.1044,-4.1444,-4.2738,-4.3193,-4.3517,-4.5236,-4.5502,-4.5242,-4.6471,-4.6374,-4.5888,-4.6407,-4.605,-4.537,-4.4917,-4.4691,-4.4755,-4.5326,-4.5673,-4.5883,-4.5994,-4.5996,-4.6105,-4.6447,-4.6731,-4.7007,-4.7457,-4.6275,-4.5143,-4.4721,-4.3421,-4.203,-4.0762,0.0,-4.0874,-3.9986,-4.0089,-4.0054,-3.9781,-3.9659,-3.9606,-3.9729,-3.9729,-4.005,-4.0845,-4.1813,-4.2339,-4.2339,-4.3994,-4.535,-4.6392,-4.8225,-4.9611,-5.0488,-5.0593,-5.1324,-5.2672,-5.3204,-5.4125,-5.5449,-5.5751,-5.6049,-5.6324,-5.7071,-5.7875,-5.8809,-5.9594,-6.038,-6.126,-6.2045,-6.2438,-6.251,-2.9695,-3.0409,-3.151,-3.2563,-3.4375,-3.6225,-3.7491,-3.8825,-3.9859,-4.0439,-4.0851,-4.0987,-4.0783,-4.0851,-4.0851,-4.0578,-4.0091,-3.9896,-4.0129,-3.9609,-3.9164,-3.8682,-3.8118,-3.8112,-3.8764,-4.095,-4.2863,-4.4597,-4.4852,-4.5103,-4.5318,-4.5211,-4.4995,-4.472,-4.444,-4.3889,-4.3235,-4.2834,-4.2687,-4.2677,-4.181,-4.1736,-4.2134,-4.2608,-4.2741,-4.2738,-4.4005,-4.4691,-4.5049,-4.5599,-4.596,-4.6125,-4.6702,-4.6374,-4.5726,-4.5241,-4.4593,-4.414,-4.4658,-4.4232,-4.392,-4.4902,-4.522,-4.5333,-4.5875,-4.6009,-4.604,-4.6239,-4.6778,-4.7053,-4.6398,-4.5524,-4.467,-4.3979,-4.2693,-4.171,-4.1595,0.0,-4.099,-4.0804,-4.0383,-4.0087,-3.9884,-3.9833,-3.9866,-3.9833,-3.9833,-4.0054,-4.0408,-4.1698,-4.255,-4.2654,-4.4121,-4.5863,-4.7785,-4.8851,-4.994,-5.0819,-5.1485,-5.1961,-5.2318,-5.3746,-5.4656,-5.5127,-5.5857,-5.6253,-5.6399,-5.7239,-5.8024,-5.8809,-5.9594,-6.0438,-6.1377,-6.2165,-6.288,-6.3381,-3.1547,-3.2755,-3.4263,-3.5494,-3.7357,-3.89,-3.9647,-4.0339,-4.0746,-4.095,-4.1086,-4.1153,-4.1055,-4.0851,-4.077,-4.0909,-3.9583,-3.8501,-3.7882,-3.8063,-3.8092,-3.7664,-3.7662,-3.8605,-4.0461,-4.2172,-4.3639,-4.4852,-4.5177,-4.5318,-4.5318,-4.5569,-4.5316,-4.4665,-4.4731,-4.4138,-4.3113,-4.271,-4.2687,-4.2703,-4.2217,-4.2501,-4.3269,-4.354,-4.3741,-4.4037,-4.5012,-4.5244,-4.5147,-4.6086,-4.6023,-4.5667,-4.6604,-4.6374,-4.5824,-4.5888,-4.4821,-4.3637,-4.3997,-4.4205,-4.4473,-4.5001,-4.532,-4.5666,-4.5905,-4.609,-4.6189,-4.6447,-4.6778,-4.6819,-4.6173,-4.5267,-4.4421,-4.3722,-4.2564,0.0,-4.1952,-4.1788,-4.1613,-4.1401,-4.0943,-4.0597,-4.0402,-4.0188,-4.0037,-4.0087,-4.046,-4.0968,-4.1444,-4.2688,-4.3631,-4.4112,-4.5731,-4.7311,-4.88,-4.9765,-5.0468,-5.0873,-5.1314,-5.1985,-5.285,-5.3757,-5.4737,-5.5664,-5.613,-5.6577,-5.7096,-5.7882,-5.8667,-5.9452,-6.0295,-6.0948,-6.14,-6.2247,-6.2844,-6.3131,-3.3302,-3.4896,-3.6618,-3.7726,-3.9405,-4.0646,-4.095,-4.1117,-4.1185,-4.1185,-4.1153,-4.1153,-4.1055,-4.0646,-4.0353,-4.0334,-3.853,-3.6831,-3.5627,-3.629,-3.6738,-3.6638,-3.7982,-3.9917,-4.2391,-4.3429,-4.4395,-4.5157,-4.5476,-4.5441,-4.5211,-4.5521,-4.5331,-4.4733,-4.4733,-4.423,-4.348,-4.2972,-4.2944,-4.321,-4.2947,-4.35,-4.4409,-4.4409,-4.468,-4.5111,-4.5791,-4.5726,-4.5435,-4.6536,-4.618,-4.5467,-4.6536,-4.6475,-4.5988,-4.654,-4.5436,-4.3997,-4.3997,-4.4497,-4.5054,-4.5267,-4.5666,-4.604,-4.604,-4.614,-4.6301,-4.6684,-4.687,-4.6748,-4.6319,-4.5336,-4.4385,-4.3772,0.0,-4.203,-4.2121,-4.2127,-4.2044,-4.1796,-4.1356,-4.1036,-4.0849,-4.0637,-4.0526,-4.066,-4.1392,-4.204,-4.2672,-4.3632,-4.4768,-4.603,-4.7314,-4.8483,-4.952,-5.0433,-5.0908,-5.0962,-5.121,-5.2023,-5.3243,-5.3814,-5.474,-5.5968,-5.6257,-5.6847,-5.7632,-5.8473,-5.9259,-6.0045,-6.1121,-6.1501,-6.1516,-6.2299,-6.2681,-6.2767,-3.4979,-3.6792,-3.865,-3.9222,-4.0115,-4.0783,-4.0814,-4.1055,-4.1256,-4.1256,-4.1456,-4.1256,-4.0339,-4.006,-3.9361,-3.7832,-3.647,-3.5278,-3.438,-3.4432,-3.487,-3.5709,-3.8865,-4.1403,-4.3145,-4.4238,-4.5035,-4.5581,-4.5581,-4.5441,-4.5177,-4.4699,-4.4731,-4.5244,-4.3899,-4.3774,-4.4626,-4.3719,-4.4037,-4.5085,-4.4413,-4.4777,-4.5659,-4.5659,-4.5659,-4.5824,-4.6536,-4.6763,-4.673,-4.686,-4.6828,-4.673,-4.686,-4.6543,-4.6092,-4.6157,-4.5939,-4.5648,-4.5648,-4.5162,-4.4981,-4.5905,-4.6154,-4.6189,-4.6189,-4.6189,-4.6301,-4.6684,-4.7053,-4.7107,-4.666,-4.5694,-4.4742,-4.4173,0.0,0.0,-4.2246,-4.2002,-4.1796,-4.1881,-4.1265,-4.0849,-4.099,-4.1409,-4.1675,-4.1675,-4.253,-4.3162,-4.3296,-4.4073,-4.5562,-4.8015,-4.819,-4.8697,-4.952,-5.0433,-5.0962,-5.1123,-5.1793,-5.2378,-5.282,-5.4278,-5.5043,-5.5348,-5.6062,-5.6847,-5.7688,-5.8752,-5.9542,-6.0239,-6.1589,-6.2005,-6.1784,-6.2096,-6.2549,-6.2903,-3.7237,-3.8421,-3.945,-3.9742,-4.0529,-4.1055,-4.0783,-4.0987,-4.1122,-4.0987,-4.0752,-4.0069,-3.8941,-3.8399,-3.7396,-3.5466,-3.3996,-3.2607,-3.1182,-3.2582,-3.4929,-3.8165,-4.0817,-4.2846,-4.4372,-4.5074,-4.5511,-4.5632,-4.5598,-4.5336,-4.4742,-4.4822,-4.4608,-4.4145,-4.4348,-4.4235,-4.3945,-4.4237,-4.4718,-4.5277,-4.5262,-4.5688,-4.6471,-4.6471,-4.6471,-4.6504,-4.6795,-4.6669,-4.6415,-4.6415,-4.6155,-4.593,-4.593,-4.5767,-4.5604,-4.5668,-4.5573,-4.5428,-4.583,-4.578,-4.5752,-4.6105,-4.6189,-4.6189,-4.6189,-4.6189,-4.6239,-4.6398,-4.6542,-4.6448,-4.5799,-4.5386,-4.4813,-4.3678,0.0,-4.2774,-4.2476,-4.2328,-4.2292,-4.2414,-4.1796,-4.162,-4.23,-4.2149,-4.2279,-4.2861,-4.3771,-4.4286,-4.4335,-4.567,-4.7116,-4.8604,-4.9184,-4.9766,-5.047,-5.084,-5.1088,-5.1246,-5.1686,-5.2429,-5.3389,-5.4153,-5.4991,-5.5955,-5.6276,-5.7243,-5.8645,-5.9096,-6.0124,-6.148,-6.2182,-6.2291,-6.206,-6.2275,-6.2349,-6.2329,-3.8453,-3.9031,-3.9504,-3.9698,-4.0339,-4.0684,-4.0509,-4.0715,-4.0715,-4.0409,-3.9718,-3.8766,-3.7263,-3.6387,-3.5117,-3.2953,-3.1894,-3.0985,-2.9997,-3.3312,-3.6853,-4.0324,-4.2472,-4.4136,-4.5372,-4.5717,-4.5854,-4.5684,-4.5441,-4.5035,-4.4463,-4.4507,-4.4251,-4.3685,-4.4259,-4.4494,-4.4464,-4.4886,-4.5438,-4.6044,-4.6215,-4.6575,-4.6997,-4.677,-4.6673,-4.6673,-4.6445,-4.6189,-4.5832,-4.5832,-4.5636,-4.5372,-4.5372,-4.5469,-4.553,-4.5607,-4.5563,-4.5591,-4.5912,-4.6186,-4.6301,-4.6239,-4.6204,-4.6253,-4.6253,-4.6301,-4.635,-4.6447,-4.6495,-4.6318,-4.5823,-4.5599,-4.5194,-4.4095,-4.3957,-4.3769,-4.3391,-4.3404,-4.3487,-4.364,-4.3089,-4.3017,-4.3721,-4.3482,-4.3535,-4.419,-4.507,-4.5681,-4.5892,-4.7404,-4.8564,-4.9245,-5.0125,-5.085,-5.1367,-5.1298,-5.1298,-5.1454,-5.1658,-5.2493,-5.3939,-5.4148,-5.5095,-5.6546,-5.6904,-5.7927,-5.9402,-5.9885,-6.0949,-6.2344,-6.2705,-6.2654,-6.2397,-6.25,-6.2381,-6.2114,-3.8131,-3.8432,-3.8852,-3.92,-3.9463,-3.9636,-3.9879,-4.0091,-3.996,-3.9331,-3.8546,-3.7263,-3.5278,-3.4084,-3.2461,-3.0166,-3.0258,-3.0838,-3.1588,-3.7215,-4.083,-4.1565,-4.3742,-4.5234,-4.597,-4.6119,-4.6055,-4.5787,-4.5035,-4.4541,-4.4236,-4.3476,-4.3535,-4.4377,-4.3317,-4.4262,-4.6551,-4.5667,-4.616,-4.747,-4.747,-4.7403,-4.7169,-4.6585,-4.629,-4.5994,-4.5505,-4.5276,-4.5341,-4.5341,-4.5372,-4.5466,-4.5466,-4.5719,-4.5924,-4.5805,-4.6075,-4.6339,-4.6079,-4.6301,-4.6542,-4.6253,-4.6301,-4.6398,-4.6398,-4.6495,-4.6684,-4.7017,-4.7107,-4.7107,-4.7107,-4.6498,-4.596,-4.5829,-4.5272,-4.4905,-4.5147,-4.5233,-4.5352,-4.5506,-4.5192,-4.5034,-4.5116,-4.5416,-4.5614,-4.5614,-4.6488,-4.7319,-4.8068,-4.9225,-4.9923,-5.011,-5.1108,-5.175,-5.1994,-5.1672,-5.1556,-5.1708,-5.1858,-5.2731,-5.42,-5.4353,-5.5266,-5.6901,-5.7918,-5.8921,-5.991,-6.108,-6.2022,-6.2654,-6.3194,-6.3147,-6.2805,-6.2805,-6.2603,-6.2344,-3.6823,-3.7534,-3.8144,-3.7605,-3.8738,-3.9493,-3.859,-3.8811,-3.8782,-3.7681,-3.6364,-3.4792,-3.2962,-3.2043,-3.0873,-2.9127,-2.9899,-3.2021,-3.573,-3.9405,-4.2245,-4.4125,-4.5234,-4.5985,-4.6447,-4.6301,-4.592,-4.5302,-4.4818,-4.4088,-4.308,-4.299,-4.2935,-4.2815,-4.336,-4.4395,-4.57,-4.593,-4.6618,-4.7437,-4.6913,-4.675,-4.6717,-4.6027,-4.5795,-4.5826,-4.5596,-4.5388,-4.5142,-4.5142,-4.5016,-4.4817,-4.4933,-4.499,-4.5151,-4.5357,-4.577,-4.6149,-4.6204,-4.6554,-4.6824,-4.6542,-4.6495,-4.6542,-4.6542,-4.659,-4.6637,-4.6731,-4.6824,-4.6916,-4.6916,-4.6883,-4.6737,-4.6119,-4.608,-4.6001,-4.5542,-4.5585,-4.5698,-4.592,-4.5623,-4.5651,-4.6314,-4.6205,-4.6356,-4.6938,-4.7861,-4.8786,-4.9669,-5.0591,-5.1092,-5.1131,-5.1973,-5.2454,-5.2545,-5.2078,-5.203,-5.249,-5.3208,-5.4008,-5.493,-5.5618,-5.6455,-5.7375,-5.8274,-5.9273,-6.0274,-6.1323,-6.2314,-6.3194,-6.3465,-6.3373,-6.3051,-6.2855,-6.2705,-6.25,-3.5324,-3.5985,-3.6573,-3.6164,-3.7548,-3.8429,-3.7422,-3.7595,-3.732,-3.5696,-3.4283,-3.2794,-3.1017,-3.0326,-2.9607,-2.8779,-3.1204,-3.451,-3.8589,-4.0992,-4.32,-4.5297,-4.5649,-4.5985,-4.6447,-4.607,-4.5528,-4.4947,-4.4169,-4.3469,-4.2772,-4.2805,-4.268,-4.2492,-4.3385,-4.4286,-4.5135,-4.5659,-4.6286,-4.6977,-4.6515,-4.638,-4.6344,-4.5711,-4.5535,-4.5651,-4.541,-4.5186,-4.5048,-4.5071,-4.4992,-4.4947,-4.5161,-4.5267,-4.532,-4.5648,-4.6049,-4.6459,-4.6566,-4.6926,-4.7267,-4.7053,-4.6916,-4.686,-4.686,-4.687,-4.687,-4.687,-4.7007,-4.7053,-4.7053,-4.7276,-4.7349,-4.6928,-4.7098,-4.7192,-4.6798,-4.6838,-4.6948,-4.7057,-4.6948,-4.7058,-4.7536,-4.7268,-4.7474,-4.8316,-4.9241,-5.0085,-5.0968,-5.1605,-5.1967,-5.2083,-5.2601,-5.2944,-5.303,-5.3061,-5.3153,-5.3368,-5.3976,-5.4818,-5.5779,-5.6392,-5.7235,-5.8286,-5.9223,-6.0173,-6.1171,-6.2123,-6.2891,-6.3511,-6.3602,-6.3557,-6.3419,-6.3194,-6.3014,-6.2917,-3.3828,-3.4076,-3.4534,-3.4908,-3.5953,-3.6641,-3.6183,-3.6241,-3.5596,-3.3483,-3.2422,-3.1138,-2.9671,-2.9034,-2.8958,-2.9367,-3.374,-3.7654,-4.0459,-4.2125,-4.3715,-4.5364,-4.5211,-4.5383,-4.6119,-4.5528,-4.5054,-4.4652,-4.3376,-4.2863,-4.299,-4.271,-4.2772,-4.3113,-4.3476,-4.4145,-4.493,-4.493,-4.5517,-4.634,-4.624,-4.6207,-4.6133,-4.5606,-4.5476,-4.5546,-4.5001,-4.4892,-4.5054,-4.5214,-4.5425,-4.5699,-4.6049,-4.6196,-4.6244,-4.6495,-4.6855,-4.7151,-4.7196,-4.745,-4.7741,-4.7741,-4.7486,-4.7267,-4.7223,-4.7276,-4.732,-4.732,-4.745,-4.7536,-4.7536,-4.7657,-4.7824,-4.8032,-4.8187,-4.8304,-4.8532,-4.8605,-4.8642,-4.8678,-4.875,-4.8787,-4.8678,-4.8606,-4.89,-4.9632,-5.0558,-5.1369,-5.2059,-5.2373,-5.2665,-5.2857,-5.3072,-5.3281,-5.3558,-5.4334,-5.4617,-5.4319,-5.4553,-5.5397,-5.6694,-5.6904,-5.7831,-5.9338,-6.0379,-6.1365,-6.2316,-6.3222,-6.3602,-6.3647,-6.3736,-6.378,-6.378,-6.3572,-6.349,-6.3445,-3.2786,-3.3152,-3.3499,-3.3459,-3.4421,-3.4892,-3.4232,-3.4126,-3.3668,-3.219,-3.1211,-3.0591,-3.017,-3.0483,-3.121,-3.2415,-3.6073,-3.9193,-4.1476,-4.2484,-4.3594,-4.4997,-4.4935,-4.5137,-4.5563,-4.5089,-4.4563,-4.403,-4.3108,-4.2522,-4.2302,-4.268,-4.2929,-4.3113,-4.3713,-4.4382,-4.5143,-4.5261,-4.5723,-4.6421,-4.6051,-4.5987,-4.6034,-4.5583,-4.5577,-4.5754,-4.5666,-4.58,-4.6035,-4.6217,-4.6459,-4.6613,-4.6799,-4.7026,-4.7212,-4.7476,-4.7632,-4.771,-4.7911,-4.7951,-4.7911,-4.7911,-4.787,-4.7788,-4.7615,-4.7529,-4.7493,-4.7615,-4.7747,-4.7911,-4.7911,-4.8148,-4.8381,-4.8458,-4.8569,-4.8715,-4.8855,-4.8925,-4.8959,-4.9061,-4.9098,-4.9131,-4.9061,-4.9554,-5.019,-5.1008,-5.1862,-5.268,-5.3497,-5.3609,-5.3645,-5.36,-5.3717,-5.4128,-5.4799,-5.5062,-5.5136,-5.5018,-5.628,-5.7019,-5.7344,-5.7974,-5.8789,-5.9789,-6.0729,-6.167,-6.2582,-6.3401,-6.378,-6.383,-6.3873,-6.3873,-6.383,-6.358,-6.3617,-6.3691,-3.1792,-3.2434,-3.2955,-3.2513,-3.3242,-3.348,-3.2514,-3.2587,-3.226,-3.1165,-3.0934,-3.1035,-3.1474,-3.2198,-3.3675,-3.6076,-3.8525,-4.0446,-4.1777,-4.2472,-4.3289,-4.4292,-4.4515,-4.4784,-4.523,-4.4339,-4.3789,-4.3529,-4.271,-4.2302,-4.2524,-4.2775,-4.3146,-4.3595,-4.4006,-4.4471,-4.498,-4.5128,-4.5558,-4.6032,-4.5843,-4.5941,-4.6118,-4.6075,-4.6244,-4.6484,-4.6646,-4.6874,-4.7132,-4.7255,-4.7385,-4.7512,-4.7674,-4.7761,-4.7922,-4.8155,-4.8192,-4.8151,-4.8304,-4.8304,-4.8265,-4.8265,-4.8265,-4.8187,-4.7988,-4.7907,-4.7829,-4.7988,-4.8151,-4.8306,-4.8306,-4.8495,-4.8678,-4.8785,-4.8855,-4.8925,-4.9061,-4.9094,-4.9094,-4.9197,-4.923,-4.9412,-4.9824,-5.0878,-5.1705,-5.2116,-5.2899,-5.3571,-5.3982,-5.3982,-5.4131,-5.4465,-5.454,-5.4988,-5.5921,-5.6332,-5.6557,-5.6443,-5.7223,-5.7739,-5.8103,-5.8921,-5.978,-6.0641,-6.1496,-6.2358,-6.327,-6.368,-6.3867,-6.3915,-6.3958,-6.4,-6.4,-6.3878,-6.3786,-6.3647,-3.0872,-3.1566,-3.219,-3.1937,-3.2201,-3.2202,-3.1499,-3.1624,-3.1516,-3.0851,-3.147,-3.238,-3.3354,-3.4564,-3.6569,-3.958,-4.0735,-4.1525,-4.2,-4.2466,-4.3057,-4.3825,-4.4092,-4.4456,-4.4906,-4.3731,-4.3136,-4.3202,-4.2365,-4.227,-4.2899,-4.3023,-4.3476,-4.4212,-4.435,-4.4597,-4.4892,-4.5142,-4.5459,-4.5835,-4.6035,-4.6231,-4.6519,-4.6874,-4.7183,-4.7476,-4.7652,-4.7929,-4.8119,-4.8119,-4.8196,-4.8346,-4.8458,-4.8495,-4.8532,-4.8642,-4.8605,-4.8532,-4.8532,-4.8532,-4.8532,-4.8532,-4.8532,-4.8532,-4.8419,-4.8343,-4.8304,-4.8382,-4.8569,-4.8714,-4.875,-4.8855,-4.8993,-4.9094,-4.9094,-4.9127,-4.9262,-4.9375,-4.9449,-4.9449,-4.9664,-5.0033,-5.0745,-5.2102,-5.2928,-5.2966,-5.3678,-5.4091,-5.4055,-5.4168,-5.4541,-5.5212,-5.5361,-5.5959,-5.6892,-5.7641,-5.8053,-5.8052,-5.7935,-5.8266,-5.8962,-5.9632,-6.0529,-6.1587,-6.2295,-6.3121,-6.3915,-6.3915,-6.3958,-6.3958,-6.4121,-6.4162,-6.4162,-6.4244,-6.3995,-6.3602,-3.0114,-3.0215,-3.0573,-3.1603,-3.0958,-3.0673,-3.1937,-3.1837,-3.1808,-3.2374,-3.3578,-3.4876,-3.6043,-3.8487,-4.0504,-4.1568,-4.1846,-4.2321,-4.303,-4.2828,-4.3208,-4.4331,-4.4165,-4.4175,-4.4541,-4.3856,-4.3323,-4.2961,-4.2365,-4.2397,-4.2899,-4.3562,-4.4145,-4.4652,-4.4961,-4.5354,-4.5749,-4.6,-4.6353,-4.6748,-4.714,-4.7398,-4.7611,-4.7926,-4.8121,-4.8273,-4.8384,-4.8531,-4.8604,-4.8604,-4.8713,-4.8785,-4.8787,-4.8857,-4.8962,-4.8892,-4.8822,-4.8751,-4.8751,-4.8642,-4.8605,-4.8751,-4.8751,-4.8822,-4.903,-4.8785,-4.8605,-4.8785,-4.8959,-4.9127,-4.9193,-4.9289,-4.9384,-4.9514,-4.9415,-4.9384,-4.9514,-5.0084,-5.0509,-5.0509,-5.1243,-5.1694,-5.1743,-5.2536,-5.3099,-5.3136,-5.3749,-5.4164,-5.4273,-5.4837,-5.5174,-5.5249,-5.607,-5.6893,-5.7791,-5.7978,-5.839,-5.9027,-5.8989,-5.9323,-5.9905,-6.0017,-6.0953,-6.2491,-6.2641,-6.321,-6.4042,-6.4042,-6.4162,-6.4244,-6.4284,-6.4284,-6.4284,-6.4284,-6.3995,-6.3602,-2.9858,-3.0266,-3.0903,-3.1885,-3.1491,-3.1483,-3.2653,-3.2955,-3.3366,-3.4479,-3.5922,-3.7291,-3.8612,-4.0608,-4.2015,-4.2297,-4.2889,-4.3279,-4.3422,-4.3899,-4.439,-4.4739,-4.4665,-4.4673,-4.4686,-4.3914,-4.3443,-4.3295,-4.2805,-4.2867,-4.3383,-4.3914,-4.4485,-4.5089,-4.558,-4.6049,-4.6448,-4.6819,-4.7227,-4.7647,-4.7849,-4.8046,-4.8273,-4.8637,-4.8813,-4.8844,-4.9085,-4.9188,-4.9193,-4.916,-4.9197,-4.9197,-4.9064,-4.9098,-4.9131,-4.8962,-4.8857,-4.8822,-4.8857,-4.8785,-4.882,-4.8996,-4.9064,-4.9094,-4.9257,-4.9225,-4.916,-4.9193,-4.9289,-4.9421,-4.9483,-4.9544,-4.9604,-4.9634,-4.9951,-5.0071,-4.9649,-5.0642,-5.1399,-5.1469,-5.2278,-5.2768,-5.2672,-5.3386,-5.3875,-5.3846,-5.4115,-5.4458,-5.4945,-5.5246,-5.5808,-5.6781,-5.7229,-5.7828,-5.8728,-5.8728,-5.8915,-5.9214,-5.9664,-5.9998,-6.0211,-6.0659,-6.1599,-6.284,-6.3289,-6.3784,-6.4203,-6.4203,-6.4244,-6.4284,-6.4284,-6.4284,-6.4284,-6.4284,-6.3995,-6.3602]},{"header":{"parameterUnit":"m.s-1","parameterCategory":1,"la1":30.6,"la2":28.766,"lo1":-90.7593,"lo2":-88.6598,"dy":0.0162,"dx":0.0183,"nx":116,"ny":114,"refTime":"2024-05-16T18:00:00:Z","depth":0,"parameterNumber":3,"parameterNumberName":"V-component_of_WINDS"},"data":[0.0,0.0,0.0,0.0,0.0,0.0,0.0,0.0,0.0,0.0,0.0,0.0,0.0,0.0,0.0,0.0,0.0,0.0,0.0,0.0,0.0,0.0,0.0,0.0,0.0,0.0,0.0,0.0,0.0,0.0,0.0,0.0,0.0,0.0,0.0,0.0,0.0,0.0,0.0,0.0,0.0,0.0,0.0,0.0,0.0,0.0,0.0,0.0,0.0,0.0,0.0,0.0,0.0,0.0,0.0,0.0,0.0,0.0,0.0,0.0,0.0,0.0,0.0,0.0,0.0,0.0,0.0,0.0,0.0,0.0,0.0,0.0,0.0,0.0,0.0,0.0,0.0,0.0,0.0,0.0,0.0,0.0,0.0,0.0,0.0,0.0,0.0,0.0,0.0,0.0,0.0,0.0,0.0,0.0,0.0,0.0,0.0,0.0,0.0,0.0,0.0,0.0,0.0,0.0,0.0,0.0,0.0,0.0,0.0,0.0,0.0,0.0,0.0,0.0,0.0,0.0,0.0,0.0,0.0,0.0,0.0,0.0,0.0,0.0,0.0,0.0,0.0,0.0,0.0,0.0,0.0,0.0,0.0,0.0,0.0,0.0,0.0,0.0,0.0,0.0,0.0,0.0,0.0,0.0,0.0,0.0,0.0,0.0,0.0,0.0,0.0,0.0,0.0,0.0,0.0,0.0,0.0,0.0,0.0,0.0,0.0,0.0,0.0,0.0,0.0,0.0,0.0,0.0,0.0,0.0,0.0,0.0,0.0,0.0,0.0,0.0,0.0,0.0,0.0,0.0,0.0,0.0,0.0,0.0,0.0,0.0,0.0,0.0,0.0,0.0,0.0,0.0,0.0,0.0,0.0,0.0,0.0,0.0,0.0,0.0,0.0,0.0,0.0,0.0,0.0,0.0,0.0,0.0,0.0,0.0,0.0,0.0,0.0,0.0,0.0,0.0,0.0,0.0,0.0,0.0,0.0,0.0,0.0,0.0,0.0,0.0,0.0,0.0,0.0,0.0,0.0,0.0,0.0,0.0,0.0,0.0,0.0,0.0,0.0,0.0,0.0,0.0,0.0,0.0,0.0,0.0,0.0,0.0,0.0,0.0,0.0,0.0,0.0,0.0,0.0,0.0,0.0,0.0,0.0,0.0,0.0,0.0,0.0,0.0,0.0,0.0,0.0,0.0,0.0,0.0,0.0,0.0,0.0,0.0,0.0,0.0,0.0,0.0,0.0,0.0,0.0,0.0,0.0,0.0,0.0,0.0,0.0,0.0,0.0,0.0,0.0,0.0,0.0,0.0,0.0,0.0,0.0,0.0,0.0,0.0,0.0,0.0,0.0,0.0,0.0,0.0,0.0,0.0,0.0,0.0,0.0,0.0,0.0,0.0,0.0,0.0,0.0,0.0,0.0,0.0,0.0,0.0,0.0,0.0,0.0,0.0,0.0,0.0,0.0,0.0,0.0,0.0,0.0,0.0,0.0,0.0,0.0,0.0,0.0,0.0,0.0,0.0,0.0,0.0,0.0,0.0,0.0,0.0,0.0,0.0,0.0,0.0,0.0,0.0,0.0,0.0,0.0,0.0,0.0,0.0,0.0,0.0,0.0,0.0,0.0,0.0,0.0,0.0,0.0,0.0,0.0,0.0,0.0,0.0,0.0,0.0,0.0,0.0,0.0,0.0,0.0,0.0,0.0,0.0,0.0,0.0,0.0,0.0,0.0,0.0,0.0,0.0,0.0,0.0,0.0,0.0,0.0,0.0,0.0,0.0,0.0,0.0,0.0,0.0,0.0,0.0,0.0,0.0,0.0,0.0,0.0,0.0,0.0,0.0,0.0,0.0,0.0,0.0,0.0,0.0,0.0,0.0,0.0,0.0,0.0,0.0,0.0,0.0,0.0,0.0,0.0,0.0,0.0,0.0,0.0,0.0,0.0,0.0,0.0,0.0,0.0,0.0,0.0,0.0,0.0,0.0,0.0,0.0,0.0,0.0,0.0,0.0,0.0,0.0,0.0,0.0,0.0,0.0,0.0,0.0,0.0,0.0,0.0,0.0,0.0,0.0,0.0,0.0,0.0,0.0,0.0,0.0,0.0,0.0,0.0,0.0,0.0,0.0,0.0,0.0,0.0,0.0,0.0,0.0,0.0,0.0,0.0,0.0,0.0,0.0,0.0,0.0,0.0,0.0,0.0,0.0,0.0,0.0,0.0,0.0,0.0,0.0,0.0,0.0,0.0,0.0,0.0,0.0,0.0,0.0,0.0,0.0,0.0,0.0,0.0,0.0,0.0,0.0,0.0,0.0,0.0,0.0,0.0,0.0,0.0,0.0,0.0,0.0,0.0,0.0,0.0,0.0,0.0,0.0,0.0,0.0,0.0,0.0,0.0,0.0,0.0,0.0,0.0,0.0,0.0,0.0,0.0,0.0,0.0,0.0,0.0,0.0,0.0,0.0,0.0,0.0,0.0,0.0,0.0,0.0,0.0,0.0,0.0,0.0,0.0,0.0,0.0,0.0,0.0,0.0,0.0,0.0,0.0,0.0,0.0,0.0,0.0,0.0,0.0,0.0,0.0,0.0,0.0,0.0,0.0,0.0,0.0,0.0,0.0,0.0,0.0,0.0,0.0,0.0,0.0,0.0,0.0,0.0,0.0,0.0,0.0,0.0,0.0,0.0,0.0,0.0,0.0,0.0,0.0,0.0,0.0,0.0,0.0,0.0,0.0,0.0,0.0,0.0,0.0,0.0,0.0,0.0,0.0,0.0,0.0,0.0,0.0,0.0,0.0,0.0,0.0,0.0,0.0,0.0,0.0,0.0,0.0,0.0,0.0,0.0,0.0,0.0,0.0,0.0,0.0,0.0,0.0,0.0,0.0,0.0,0.0,0.0,0.0,0.0,0.0,0.0,0.0,0.0,0.0,0.0,0.0,0.0,0.0,0.0,0.0,0.0,0.0,0.0,0.0,0.0,0.0,0.0,0.0,0.0,0.0,0.0,0.0,0.0,0.0,0.0,0.0,0.0,0.0,0.0,0.0,0.0,0.0,0.0,0.0,0.0,0.0,0.0,0.0,0.0,0.0,0.0,0.0,0.0,0.0,0.0,0.0,0.0,0.0,0.0,0.0,0.0,0.0,0.0,0.0,0.0,0.0,0.0,0.0,0.0,0.0,0.0,0.0,0.0,0.0,0.0,0.0,0.0,0.0,0.0,0.0,0.0,0.0,0.0,0.0,0.0,0.0,0.0,0.0,0.0,0.0,0.0,0.0,0.0,0.0,0.0,0.0,0.0,0.0,0.0,0.0,0.0,0.0,0.0,0.0,0.0,0.0,0.0,0.0,0.0,0.0,0.0,0.0,0.0,0.0,0.0,0.0,0.0,0.0,0.0,0.0,0.0,0.0,0.0,0.0,0.0,0.0,0.0,0.0,0.0,0.0,0.0,0.0,0.0,0.0,0.0,0.0,0.0,0.0,0.0,0.0,0.0,0.0,0.0,0.0,0.0,0.0,0.0,0.0,0.0,0.0,0.0,0.0,0.0,0.0,0.0,0.0,0.0,0.0,0.0,0.0,0.0,0.0,0.0,0.0,0.0,0.0,0.0,0.0,0.0,0.0,0.0,0.0,0.0,0.0,0.0,0.0,0.0,0.0,0.0,0.0,0.0,0.0,0.0,0.0,0.0,0.0,0.0,0.0,0.0,0.0,0.0,0.0,0.0,0.0,0.0,0.0,0.0,0.0,0.0,0.0,0.0,0.0,0.0,0.0,0.0,0.0,0.0,0.0,0.0,0.0,0.0,0.0,0.0,0.0,0.0,0.0,0.0,0.0,0.0,0.0,0.0,0.0,0.0,0.0,0.0,0.0,0.0,0.0,0.0,0.0,0.0,0.0,0.0,0.0,0.0,0.0,0.0,0.0,0.0,0.0,0.0,0.0,0.0,0.0,0.0,0.0,0.0,0.0,0.0,0.0,0.0,0.0,0.0,0.0,0.0,0.0,0.0,0.0,0.0,0.0,0.0,0.0,0.0,0.0,0.0,0.0,0.0,0.0,0.0,0.0,0.0,0.0,0.0,0.0,0.0,0.0,0.0,0.0,0.0,0.0,0.0,0.0,0.0,0.0,0.0,0.0,0.0,0.0,0.0,0.0,0.0,0.0,0.0,0.0,0.0,0.0,0.0,0.0,0.0,0.0,0.0,0.0,0.0,0.0,0.0,0.0,0.0,0.0,0.0,0.0,0.0,0.0,0.0,0.0,0.0,0.0,0.0,0.0,0.0,0.0,0.0,0.0,0.0,0.0,0.0,0.0,0.0,0.0,0.0,0.0,0.0,0.0,0.0,0.0,0.0,0.0,0.0,0.0,0.0,0.0,0.0,0.0,0.0,0.0,0.0,0.0,0.0,0.0,0.0,0.0,0.0,0.0,0.0,0.0,0.0,0.0,0.0,0.0,0.0,0.0,0.0,0.0,0.0,0.0,0.0,0.0,0.0,0.0,0.0,0.0,0.0,0.0,0.0,0.0,0.0,0.0,0.0,0.0,0.0,0.0,0.0,0.0,0.0,0.0,0.0,0.0,0.0,0.0,0.0,0.0,0.0,0.0,0.0,0.0,0.0,0.0,0.0,0.0,0.0,0.0,0.0,0.0,0.0,0.0,0.0,0.0,0.0,0.0,0.0,0.0,0.0,0.0,0.0,0.0,0.0,0.0,0.0,0.0,0.0,0.0,0.0,0.0,0.0,0.0,0.0,0.0,0.0,0.0,0.0,0.0,0.0,0.0,0.0,0.0,0.0,0.0,0.0,0.0,0.0,0.0,0.0,0.0,0.0,0.0,0.0,0.0,0.0,0.0,0.0,0.0,0.0,0.0,0.0,0.0,0.0,0.0,0.0,0.0,0.0,0.0,0.0,0.0,0.0,0.0,0.0,0.0,0.0,0.0,0.0,0.0,0.0,0.0,0.0,0.0,0.0,0.0,0.0,0.0,0.0,0.0,0.0,0.0,0.0,0.0,0.0,0.0,0.0,0.0,0.0,0.0,0.0,0.0,0.0,0.0,0.0,0.0,0.0,0.0,0.0,0.0,0.0,0.0,0.0,0.0,0.0,0.0,0.0,0.0,0.0,0.0,0.0,0.0,0.0,0.0,0.0,0.0,0.0,0.0,0.0,0.0,0.0,0.0,0.0,0.0,0.0,0.0,0.0,0.0,0.0,0.0,0.0,0.0,0.0,0.0,0.0,0.0,0.0,0.0,0.0,0.0,0.0,0.0,0.0,0.0,0.0,0.0,0.0,0.0,0.0,0.0,0.0,0.0,0.0,0.0,0.0,0.0,0.0,0.0,0.0,0.0,0.0,0.0,0.0,0.0,0.0,0.0,0.0,0.0,0.0,0.0,0.0,0.0,0.0,0.0,0.0,0.0,0.0,0.0,0.0,0.0,0.0,0.0,0.0,0.0,0.0,0.0,0.0,0.0,0.0,0.0,0.0,0.0,0.0,0.0,0.0,0.0,0.0,0.0,0.0,0.0,0.0,0.0,0.0,0.0,0.0,0.0,0.0,0.0,0.0,0.0,0.0,0.0,0.0,0.0,0.0,0.0,0.0,0.0,0.0,0.0,0.0,0.0,0.0,0.0,0.0,0.0,0.0,0.0,0.0,0.0,0.0,0.0,0.0,0.0,0.0,0.0,0.0,0.0,0.0,0.0,0.0,0.0,0.0,0.0,0.0,0.0,0.0,0.0,0.0,0.0,0.0,0.0,0.0,0.0,0.0,0.0,0.0,0.0,0.0,0.0,0.0,0.0,0.0,0.0,0.0,0.0,0.0,0.0,0.0,0.0,0.0,0.0,0.0,0.0,0.0,0.0,0.0,0.0,0.0,0.0,0.0,0.0,0.0,0.0,0.0,0.0,0.0,0.0,0.0,0.0,0.0,0.0,0.0,0.0,0.0,0.0,0.0,0.0,0.0,0.0,0.0,0.0,0.0,0.0,0.0,0.0,0.0,0.0,0.0,0.0,0.0,0.0,0.0,0.0,0.0,0.0,0.0,0.0,0.0,0.0,0.0,0.0,0.0,0.0,0.0,0.0,0.0,0.0,0.0,0.0,0.0,0.0,0.0,0.0,0.0,-4.7857,-4.6301,0.0,0.0,0.0,0.0,0.0,0.0,0.0,0.0,0.0,0.0,0.0,0.0,0.0,0.0,0.0,0.0,0.0,0.0,0.0,0.0,0.0,0.0,0.0,0.6693,0.7309,0.7536,0.6772,0.5096,0.2329,0.0,0.0,0.0,0.0,0.0,-0.4948,-0.5203,-0.5791,-0.6728,-0.6248,-0.5394,-0.4092,-0.3411,-0.2056,0.0,0.0,0.0,0.0,0.0,0.0,0.0,0.0,0.0,0.0,0.0,0.0,0.0,0.0,0.0,0.0,0.0,0.0,0.0,0.0,0.0,0.0,0.0,0.0,0.0,0.0,0.0,0.0,0.0,0.0,0.0,0.0,0.0,0.0,0.0,0.0,0.0,0.0,0.0,0.0,0.0,0.0,0.0,0.0,0.0,0.0,0.0,0.0,0.0,0.0,0.0,0.0,0.0,0.0,0.0,0.0,0.0,0.0,0.0,0.0,0.0,0.0,0.0,0.0,0.0,0.0,0.0,0.0,0.0,0.0,0.0,-5.2587,-5.0538,0.0,0.0,0.0,0.0,0.0,0.0,0.0,0.0,0.0,0.0,0.0,0.0,0.0,0.0,0.0,0.0,0.0,0.0,0.0,0.0,0.0,0.2892,0.3738,0.4997,0.5504,0.4831,0.4308,0.287,0.0113,-0.0236,0.0,0.0,0.0,-0.3198,-0.4411,-0.4335,-0.4733,-0.5616,-0.4494,-0.3031,-0.1149,-0.0088,0.0333,0.0369,0.2704,0.0,0.0,0.0,0.0,0.0,0.0,0.0,0.0,0.0,0.0,0.0,0.0,0.0,0.0,0.0,0.0,0.0,0.0,0.0,0.0,0.0,0.0,0.0,0.0,0.0,0.0,0.0,0.0,0.0,0.0,0.0,0.0,0.0,0.0,0.0,0.0,0.0,0.0,0.0,0.0,0.0,0.0,0.0,0.0,0.0,0.0,0.0,0.0,0.0,0.0,0.0,0.0,0.0,0.0,0.0,0.0,0.0,0.0,0.0,0.0,0.0,0.0,0.0,-5.3749,-5.5837,-5.8673,-5.9439,-6.0847,-6.2506,-5.8314,-5.6038,-5.4989,-5.1697,0.0,0.0,0.0,0.0,0.0,0.0,0.0,0.0,0.0,0.0,0.0,0.0,0.0,0.0,0.0,0.0,0.0,0.0,0.0,0.2475,0.3532,0.4333,0.4334,0.3194,0.1835,0.0447,-0.1094,-0.2463,0.0,0.0,-0.2924,-0.3063,-0.2752,-0.3906,-0.4115,-0.3198,-0.1326,0.0271,0.154,0.2216,0.2652,0.2552,0.1191,0.2024,0.4397,0.0,0.0,0.0,0.0,0.0,0.0,0.0,0.0,0.0,0.0,0.0,0.0,0.0,0.0,0.0,0.0,0.0,0.0,0.0,0.0,0.0,0.0,0.0,0.0,0.0,0.0,0.0,0.0,0.0,0.0,0.0,0.0,0.0,0.0,0.0,0.0,0.0,0.0,0.0,0.0,0.0,-5.176,-5.5827,0.0,0.0,0.0,0.0,0.0,0.0,0.0,0.0,0.0,0.0,0.0,0.0,0.0,-5.0164,-5.179,-5.3619,-5.504,-5.6024,-5.8807,-6.1469,-6.3791,-6.5241,-6.6592,-6.7672,-6.7203,0.0,-5.9386,-5.715,0.0,0.0,0.0,0.0,0.0,0.0,0.0,0.0,0.0,0.0,0.0,0.0,0.0,0.0,0.0,0.0,0.0,0.0,0.0,0.0,0.0,0.3466,0.3062,0.1252,-0.031,-0.1828,-0.3315,-0.4233,-0.4066,-0.2714,-0.2145,-0.186,-0.1916,-0.2067,-0.1825,-0.1247,0.075,0.2093,0.2828,0.3836,0.41,0.3525,0.0974,0.1395,0.4124,0.5661,0.0,0.0,0.0,0.0,0.0,0.0,0.0,0.0,0.0,0.0,0.0,0.0,0.0,0.0,0.0,0.0,0.0,0.0,0.0,0.0,0.0,0.0,0.0,0.0,0.0,0.0,0.0,0.0,0.0,0.0,0.0,0.0,0.0,0.0,0.0,0.0,0.0,0.0,0.0,-4.8861,-5.5533,-5.8985,-5.9943,-5.8962,0.0,0.0,0.0,0.0,0.0,0.0,0.0,0.0,0.0,-5.2984,-5.4281,-5.5899,-5.7936,-5.9906,-6.1398,-6.2506,-6.5506,-6.7736,-6.9505,-7.0958,-7.1778,-7.1953,-7.0948,-6.8544,-6.5129,-6.1849,-5.8724,-5.5709,0.0,0.0,0.0,0.0,-5.5319,-5.6546,0.0,0.0,0.0,0.0,0.0,0.0,0.0,0.0,0.0,0.0,0.0,0.0,0.2365,0.2702,0.198,-0.0267,-0.1785,-0.3332,-0.5061,-0.5352,-0.4558,-0.2652,-0.1533,-0.0802,-0.0581,0.0071,0.0402,0.0462,0.2308,0.3439,0.3754,0.485,0.5014,0.4556,0.2756,0.2561,0.3745,0.5956,0.6824,0.6854,0.0,0.0,0.0,0.0,0.0,0.0,0.0,0.0,0.0,0.0,0.0,0.0,0.0,0.0,0.0,0.0,0.0,0.0,0.0,0.0,0.0,0.0,0.0,0.0,0.0,0.0,0.0,0.0,0.0,0.0,0.0,0.0,0.0,0.0,0.0,0.0,0.0,-5.299,-5.8319,-6.1905,-6.3334,-6.2459,0.0,0.0,0.0,0.0,0.0,0.0,-5.3994,-5.505,-5.6369,-5.8066,-5.9523,-6.1371,-6.3545,-6.5435,-6.7092,-6.8433,-7.0662,-7.2501,-7.404,-7.4554,-7.4798,-7.4608,-7.288,-7.111,-6.9141,-6.5318,-6.2439,-6.0151,-5.8152,-5.7084,-5.6829,-5.9038,-6.0118,-6.0713,0.0,0.0,0.0,0.0,0.0,0.0,0.0,0.0,0.0,0.0,0.0,0.1539,0.167,0.1956,0.1276,-0.0965,-0.2119,-0.3606,-0.5616,-0.5624,-0.4409,-0.2073,-0.1716,-0.0487,0.1803,0.2027,0.2124,0.2106,0.3268,0.4246,0.499,0.5231,0.5602,0.619,0.7267,0.5866,0.264,0.2261,0.3414,0.5767,0.9455,0.0,0.0,0.0,0.0,0.0,0.0,0.0,0.0,0.0,0.0,0.0,0.0,0.0,0.0,0.0,0.0,0.0,0.0,0.0,0.0,0.0,0.0,0.0,0.0,0.0,0.0,0.0,0.0,0.0,0.0,0.0,0.0,0.0,0.0,0.0,0.0,0.0,0.0,-6.5404,-6.7444,0.0,0.0,0.0,0.0,-5.8041,-5.801,-5.8285,-5.8744,-5.9977,-6.1247,-6.2439,-6.3969,-6.5605,-6.7298,-6.9136,-7.0665,-7.1973,-7.2823,-7.4223,-7.6046,-7.4367,-7.4298,-7.5204,-7.3594,-7.1857,-6.9825,-6.71,-6.4927,-6.3363,-6.3224,-6.2741,-6.226,-6.3659,-6.469,-6.5212,0.0,0.0,0.0,0.0,0.0,0.0262,0.0588,-0.0659,-0.1229,-0.0167,0.0485,0.1164,0.2046,0.1934,0.1298,-0.0079,-0.2088,-0.375,-0.4801,-0.4359,-0.3215,-0.1287,0.1164,0.3299,0.4849,0.4853,0.4884,0.4925,0.6807,0.7113,0.593,0.7099,0.7177,0.6349,0.6211,0.6503,0.6999,0.6826,0.6444,0.6112,0.825,1.0078,0.0,0.0,0.0,0.0,0.0,0.0,0.0,0.0,0.0,0.0,0.0,0.0,0.0,0.0,0.0,0.0,0.0,0.0,0.0,0.0,0.0,0.0,0.0,0.0,0.0,0.0,0.0,0.0,0.0,0.0,0.0,0.0,0.0,0.0,0.0,0.0,0.0,-6.8392,-7.0841,0.0,-6.8929,-6.8081,-6.6421,-6.3274,-6.4454,-6.5015,-6.4381,-6.5301,-6.6109,-6.6742,-6.7933,-6.9198,-7.0539,-7.23,-7.3429,-7.385,-7.4387,-7.4704,-7.474,-7.4274,-7.4016,-7.3757,-7.2914,-7.1916,-7.0717,-6.9589,-6.8231,-6.6919,-6.7217,-6.7078,-6.6904,-6.7975,-6.8427,-6.846,0.0,0.0,0.0,0.0,0.2213,0.0661,0.0619,-0.0898,-0.1469,0.0056,0.0431,0.1066,0.2394,0.1912,0.1138,0.0168,-0.188,-0.33,-0.393,-0.285,-0.1369,0.0576,0.4364,0.6798,0.7584,0.7276,0.7286,0.7465,0.8483,0.8409,0.7182,0.8058,0.8321,0.8151,0.8027,0.935,1.1869,1.2016,1.0335,0.7596,0.9085,1.026,1.1471,0.0,0.0,0.0,0.0,0.0,0.0,0.0,0.0,0.0,0.0,0.0,0.0,0.0,0.0,0.0,0.0,0.0,0.0,0.0,0.0,0.0,0.0,0.0,0.0,0.0,0.0,0.0,0.0,0.0,0.0,0.0,0.0,0.0,0.0,-6.036,-6.5769,-6.989,-7.283,-7.3869,-7.2228,-7.2511,-7.1497,-6.8535,-6.9707,-7.0103,-6.8968,-6.9519,-7.0026,-7.041,-7.1183,-7.2107,-7.3284,-7.4363,-7.5027,-7.5253,-7.5238,-7.4822,-7.4139,-7.3629,-7.3378,-7.3229,-7.2448,-7.185,-7.1541,-7.1607,-7.0878,-6.9888,-7.0307,-7.0383,-7.0383,-7.1339,-7.1375,-7.0693,0.0,0.0,0.0,0.4143,0.2615,0.1243,0.0454,-0.0533,-0.0733,0.0523,0.0698,0.1189,0.2549,0.1795,0.077,-0.0357,-0.1407,-0.2323,-0.3189,-0.1157,0.1244,0.388,0.7758,0.9878,0.9981,0.9206,0.91,0.9543,0.8103,0.7851,0.8761,0.8117,0.9165,1.1801,1.3015,1.4822,1.6792,1.7032,1.4571,1.0529,1.222,1.2746,1.2962,0.0,0.0,0.0,0.0,0.0,0.0,0.0,0.0,0.0,0.0,0.0,0.0,0.0,0.0,0.0,0.0,0.0,0.0,0.0,0.0,0.0,0.0,0.0,0.0,0.0,0.0,0.0,0.0,0.0,0.0,0.0,0.0,0.0,-5.7233,-6.221,-6.6998,-6.9895,-7.3389,-7.5405,-7.4755,-7.5764,-7.5702,-7.3636,-7.3463,-7.3159,-7.2231,-7.2646,-7.2974,-7.3183,-7.356,-7.4316,-7.5442,-7.5271,-7.5533,-7.621,-7.5219,-7.4611,-7.4431,-7.2512,-7.2431,-7.3776,-7.2314,-7.1932,-7.2485,-7.3122,-7.2951,-7.2255,-7.2459,-7.2538,-7.2617,-7.3683,-7.3464,-7.1847,0.0,0.0,0.4757,0.4158,0.1802,-0.0195,-0.0768,-0.237,-0.2583,0.0237,-0.0384,-0.014,0.2543,0.0896,-0.0513,-0.0892,-0.1495,-0.1633,-0.1005,0.2294,0.652,1.1694,1.2939,1.3536,1.3556,1.2309,1.1441,1.101,1.0396,0.9742,0.9047,1.025,1.1393,1.2675,1.5071,1.7928,2.1,2.1104,2.0536,1.9268,1.474,1.3658,1.5042,0.0,0.0,0.0,0.0,0.0,0.0,0.0,0.0,0.0,0.0,0.0,0.0,0.0,0.0,0.0,0.0,0.0,0.0,0.0,0.0,0.0,0.0,0.0,0.0,0.0,0.0,0.0,0.0,0.0,0.0,0.0,-6.1945,-6.5456,-6.3928,-6.7061,-7.0529,-7.3167,-7.6141,-7.8237,-7.8963,-7.925,-7.8981,-7.7956,-7.676,-7.5808,-7.4906,-7.4297,-7.4111,-7.428,-7.4688,-7.5417,-7.6374,-7.6387,-7.6174,-7.588,-7.4882,-7.373,-7.2611,-7.2247,-7.268,-7.3559,-7.3493,-7.3944,-7.4718,-7.4886,-7.46,-7.4031,-7.3747,-7.358,-7.3659,-7.4686,-7.3411,-7.0477,0.0,0.5046,0.4735,0.331,0.1128,-0.0817,-0.2127,-0.3467,-0.3334,-0.0366,-0.1047,-0.0778,0.2083,0.0485,-0.0675,-0.0176,-0.0349,0.0255,0.1961,0.6912,1.1957,1.6835,1.6896,1.6339,1.547,1.3931,1.2727,1.1929,1.1077,1.0459,1.0177,1.1436,1.3015,1.494,1.8104,2.1524,2.5143,2.6143,2.6846,2.6808,2.1992,1.9019,1.7725,2.0237,2.3765,2.7846,3.0949,3.1274,3.022,3.0128,0.0,0.0,0.0,0.0,0.0,0.0,0.0,0.0,0.0,0.0,0.0,0.0,0.0,0.0,0.0,0.0,0.0,0.0,0.0,0.0,0.0,0.0,0.0,0.0,-6.746,-7.0712,-7.031,-7.1812,-7.359,-7.5374,-7.7614,-7.9335,-8.0073,-8.0261,-8.0171,-7.9672,-7.8093,-7.6879,-7.6534,-7.5657,-7.5345,-7.5611,-7.6336,-7.7007,-7.7625,-7.721,-7.697,-7.6699,-7.51,-7.3967,-7.3275,-7.3101,-7.3568,-7.4491,-7.4542,-7.5137,-7.6083,-7.5854,-7.5602,0.0,0.0,0.0,0.0,0.0,-7.2043,-6.9065,0.0,0.5211,0.4718,0.1921,0.0465,-0.1123,-0.355,-0.4171,-0.351,-0.1193,-0.1344,-0.0864,0.1392,0.04,0.0,0.1123,0.155,0.3016,0.5956,1.2005,1.6843,1.9913,1.9521,1.8237,1.6122,1.4347,1.2964,1.2001,1.025,0.9989,1.1062,1.1414,1.3568,1.7316,2.09,2.4702,2.8597,3.1215,3.2697,3.3104,3.137,2.6852,2.1395,2.4565,2.7387,3.0134,3.347,3.2303,2.9598,3.1797,0.0,0.0,0.0,0.0,0.0,0.0,0.0,0.0,0.0,0.0,0.0,0.0,0.0,0.0,0.0,0.0,0.0,0.0,0.0,0.0,0.0,0.0,0.0,0.0,-7.2243,-7.4558,-7.5839,-7.5904,-7.5973,-7.6457,-7.8112,-7.9267,-7.9479,-7.9936,-8.0135,-7.9977,-7.817,-7.7245,-7.7587,-7.6794,0.0,0.0,0.0,-7.8629,-7.8867,-7.8039,-7.7744,-7.8047,-7.5994,-7.5152,-7.5538,-7.4822,-7.5195,-7.6346,-7.5777,-7.6018,-7.6934,-7.644,-7.6292,-7.6199,-7.5449,-7.4677,-7.3922,-7.1953,-7.0105,-6.7883,0.0,0.4805,0.3903,0.105,-0.0586,-0.2311,-0.4756,-0.5193,-0.4326,-0.1695,-0.1611,-0.0863,0.1467,0.1035,0.0823,0.1632,0.3121,0.6518,1.2412,1.5291,1.8279,2.1503,2.0234,1.8621,1.6938,1.2929,1.0222,0.8933,0.6479,0.6152,0.7853,0.8424,1.1116,1.5414,1.9188,2.387,2.9057,3.2927,3.5302,3.6428,3.5751,3.2675,2.8545,2.9378,3.1487,3.4368,3.6663,3.5663,3.3517,3.589,3.3878,3.0648,3.2168,3.3197,0.0,0.0,0.0,0.0,0.0,0.0,0.0,0.0,0.0,0.0,0.0,0.0,0.0,0.0,0.0,0.0,0.0,0.0,0.0,-7.1842,-7.5004,-7.7299,-7.7418,-7.696,-7.6552,-7.617,-7.7863,-7.9312,-8.0077,-8.0721,-8.1057,-8.1031,-7.9468,-7.8593,-7.8658,-7.7924,-7.7629,-7.7977,-7.832,-7.8949,-7.9907,-7.9383,-7.8906,-7.8607,0.0,0.0,-7.6726,-7.7042,-7.7537,-7.8168,-7.7371,-7.7476,-7.828,-7.7972,-7.7849,-7.7717,-7.6023,-7.5196,-7.4642,-7.1151,-6.9197,-6.7622,0.4091,0.416,0.3211,0.0,-0.1666,-0.343,-0.5918,-0.624,-0.5333,-0.3168,-0.2724,-0.1797,0.0295,0.0459,0.1029,0.2458,0.5916,1.0311,1.5968,1.778,1.9761,2.2188,2.0567,1.8248,1.5089,1.169,0.8723,0.6197,0.406,0.4043,0.5908,0.6604,0.9522,1.4197,1.8476,2.356,2.9262,3.3257,3.629,3.8289,3.734,3.5517,3.3294,3.2354,3.2983,3.4634,3.6793,3.5858,3.4114,3.7765,3.6242,3.3341,3.673,3.6958,3.6129,0.0,0.0,0.0,0.0,0.0,0.0,0.0,0.0,0.0,0.0,0.0,0.0,0.0,0.0,-6.2757,0.0,0.0,-7.3432,-7.5659,-7.727,-7.8218,-7.8113,-7.7227,-7.6495,-7.6244,-7.7886,-7.9154,-7.9526,-8.0631,-8.1307,-8.1418,-7.9752,-7.8799,-7.9069,-7.8086,-7.785,-7.8454,-7.9253,-8.0214,-8.1322,-8.1125,-8.091,-8.0753,-8.0107,-7.9519,-7.8957,-7.8811,-7.9146,-7.9705,-7.9079,-7.8964,-7.9136,-7.8964,-7.8822,-7.8487,-7.7126,-7.6111,-7.4787,-7.1026,-6.8797,-6.7071,0.3298,0.3135,0.2055,-0.116,-0.289,-0.4559,-0.6798,-0.6952,-0.6172,-0.4359,-0.3509,-0.236,-0.0631,0.0219,0.1666,0.3973,0.8467,1.2923,1.7138,1.8702,2.0099,2.1607,1.9874,1.6873,1.268,0.9981,0.7011,0.3717,0.2393,0.2698,0.4372,0.5202,0.8078,1.2785,1.7015,2.2114,2.7904,3.1898,3.5383,3.7979,3.7169,3.632,3.5325,3.3845,3.3357,3.3772,3.5785,3.4738,3.3118,3.8265,3.7364,3.5033,4.0595,4.0387,3.8234,3.9143,3.4691,0.0,0.0,0.0,0.0,0.0,0.0,0.0,0.0,-5.2156,-5.6159,-6.0456,-6.4114,-6.7709,-7.1591,-7.3878,-7.6109,-7.8975,-7.9015,-7.8699,-7.869,-7.7406,-7.6569,-7.6647,-7.7878,-7.8766,-7.902,-8.0385,-8.1328,-8.151,-7.9812,-7.8904,-7.9105,-7.8107,-7.7916,-7.8909,-8.0341,-8.1644,-8.2913,-8.2754,-8.2822,-8.3086,-8.1465,-8.1034,-8.1359,-8.0704,-8.0823,-8.1555,-8.084,-8.0363,-8.0164,-7.9957,-7.9708,-7.9418,-7.8469,-7.6889,-7.4825,-7.1018,-6.8548,-6.6571,0.0,0.1469,-0.0514,-0.2655,-0.4278,-0.5724,-0.7158,-0.71,-0.6147,-0.4168,-0.2632,-0.1051,0.0629,0.208,0.4151,0.7042,0.9497,1.2134,1.5007,1.6183,1.7383,1.8537,1.6579,1.4149,1.1315,0.6931,0.3814,0.2121,0.1336,0.1667,0.2994,0.4107,0.6433,0.9851,1.2989,1.7477,2.2992,2.7631,3.1054,3.3453,3.5127,3.4537,3.2816,3.3136,3.356,3.3959,3.4934,3.3276,3.1509,3.7361,3.791,3.73,4.3935,4.5796,4.5187,4.3687,4.0861,3.3984,1.4712,-0.7339,-2.7071,-3.632,-4.1896,-4.6998,0.0,0.0,-6.1246,-6.4994,-6.9128,-7.2677,-7.4763,-7.7633,-7.9836,-8.0281,-8.0009,-7.975,-7.9797,-7.8288,-7.721,-7.729,-7.7532,-7.8218,-7.9707,-8.0688,-8.1249,-8.1299,-8.0047,-7.9201,-7.8831,-7.8455,-7.8725,-7.9621,-8.0955,-8.2628,-8.4715,-8.378,-8.3529,-8.4041,-8.3485,-8.3182,-8.3066,-8.328,-8.3636,-8.4019,-8.2503,-8.1815,-8.1629,-8.1416,-8.1382,-8.141,-7.9419,-7.7377,-7.5051,-7.0587,-6.7931,-6.6216,0.0,0.0061,-0.2079,-0.4339,-0.5509,-0.6309,-0.6791,-0.6821,-0.5851,-0.3353,-0.2384,-0.118,0.0821,0.2411,0.4021,0.5862,0.7549,0.9441,1.1695,1.2847,1.4158,1.5695,1.3964,1.2028,1.0016,0.57,0.2868,0.1456,-0.0112,0.0112,0.2237,0.2932,0.5338,0.9264,1.0915,1.5011,2.0614,2.3065,2.6621,3.08,3.2341,3.3241,3.3421,3.2931,3.1809,3.0562,3.0831,2.9563,0.0,3.4817,3.6266,3.6805,4.4249,4.5673,4.4184,4.2083,3.7405,2.7443,0.2756,-1.9597,-3.7037,-4.1876,-4.6447,-5.1106,-5.6185,-6.0324,-6.431,-6.8588,-7.2167,-7.5226,-7.7504,-7.9439,-8.0846,0.0,-8.0709,-8.0048,-7.993,-7.8645,-7.7759,-7.7803,-7.7823,-7.8353,-7.957,-8.0762,-8.1464,-8.1415,-8.0597,-7.991,-7.9535,-7.9384,-7.9755,-8.0788,-8.253,-8.4065,-8.5257,-8.4908,-8.4813,-8.4847,-8.4504,-8.416,-8.4013,-8.4412,-8.4319,-8.3764,-8.3593,-8.3085,-8.2429,-8.2785,-8.2613,-8.1855,-7.9675,-7.7298,-7.4572,-7.0993,-6.8245,-6.6162,0.0,-0.1195,-0.3502,-0.5799,-0.6578,-0.6768,-0.6468,-0.6155,-0.5033,-0.2409,-0.1772,-0.0756,0.1293,0.2335,0.3346,0.4235,0.5143,0.6354,0.8194,0.9116,1.0298,1.1933,1.0592,0.9138,0.7719,0.4315,0.2114,0.1343,-0.0335,0.0,0.2014,0.2385,0.424,0.7252,0.8437,1.2176,1.7663,1.9241,2.3168,2.8607,3.0408,3.2207,3.3594,3.2317,2.9943,2.7393,2.6909,2.5553,2.4632,2.9775,3.1429,3.2617,3.9746,4.0892,3.9447,3.8594,2.9212,1.3061,-1.4599,-3.241,-4.3949,-4.6895,-5.0759,-5.4832,-5.8342,-6.2515,-6.6833,-7.1039,-7.4084,-7.664,-7.8826,-8.0144,-8.105,-8.1607,-8.0978,-8.0448,-8.0425,-7.9229,-7.8402,-7.836,-7.7833,-7.7792,-7.8535,-8.0168,-8.1244,-8.1326,-8.0698,-8.0259,-8.0157,-8.0203,-8.0944,-8.2461,-8.4063,-8.5355,-8.6269,-8.5774,-8.5536,-8.5629,-8.5049,-8.4916,-8.5165,-8.5621,-8.5397,-8.4617,-8.4772,-8.4414,-8.3746,-8.4149,-8.3593,-8.221,-7.9831,-7.7007,-7.4012,-7.0995,-6.8405,-6.6293,0.0,0.0,-0.4988,-0.6863,-0.7437,-0.7307,-0.6268,-0.4913,-0.3372,-0.1546,-0.0402,0.0813,0.2368,0.222,0.2425,0.3235,0.2887,0.3248,0.4714,0.5156,0.5775,0.6557,0.585,0.492,0.3786,0.1896,0.1117,0.1341,0.1564,0.2011,0.268,0.2843,0.2725,0.2455,0.4711,0.8332,1.3048,1.666,2.1322,2.6722,2.984,3.148,3.1926,3.0941,2.8522,2.5508,2.4236,2.164,1.9177,2.1442,2.247,2.3667,2.8746,3.0543,3.1417,3.4138,1.6711,-0.9658,-3.7983,-4.7076,-4.9193,-5.2193,-5.5319,-5.8448,-6.1427,-6.5345,-6.9203,-7.2086,-7.4789,-7.7011,-7.8123,-7.9726,-8.0844,-8.0689,-8.0777,-8.1128,-8.1843,-8.05,-7.934,-7.9026,-7.7241,-7.6138,0.0,-7.8536,-8.0207,-8.0861,-8.0124,-7.992,-8.0532,-8.0935,-8.2106,-8.4535,-8.5138,-8.6377,-8.8303,-8.6126,-8.5478,-8.6482,-8.5169,-8.5432,-8.7099,-8.7347,-8.7615,-8.7898,-8.6239,-8.5793,-8.6168,-8.5392,-8.4314,-8.2771,-8.0007,-7.6584,-7.3035,-7.0141,-6.7935,-6.6293,0.0,0.0,0.0,-0.7807,-0.8012,-0.738,-0.6113,-0.4069,-0.167,0.1256,0.3489,0.0,0.0,0.0,0.0,0.0,0.2334,0.2123,0.2112,0.1905,0.2017,0.2706,0.2179,0.1896,0.178,-0.0334,-0.0335,0.1902,-0.0223,-0.0667,0.0221,-0.4713,-0.7208,-0.734,-0.4264,0.1371,0.9135,1.6747,2.4292,3.1329,3.3788,3.3984,3.2575,3.0783,2.6735,2.1446,0.0,1.4382,1.3522,1.567,1.5657,1.5578,1.9703,2.0633,1.9034,1.2974,-0.4595,-2.4524,-3.6103,-4.6183,-5.4137,-5.6771,-5.8744,-6.0863,-6.4039,-6.7009,-6.9823,-7.2417,-7.4506,-7.6166,-7.7218,-7.8356,-7.9299,-7.9773,-8.0472,-8.1116,-8.1743,-8.116,-8.0205,-7.885,-7.7737,0.0,0.0,0.0,0.0,-7.8426,-7.9003,-7.9735,-8.0641,-8.2533,-8.4319,-8.5883,-8.7136,-8.7996,-8.841,-8.6695,-8.6009,-8.6517,-8.6304,-8.6705,-8.7618,-8.7897,-8.7734,-8.723,-8.7105,-8.6534,-8.5704,-8.5603,-8.4354,-8.2219,-7.899,-7.5569,-7.2237,-6.9333,-6.7123,-6.5475,0.0,0.0,0.0,0.0,0.0,0.0,0.0,0.0,0.0,0.0,0.0,0.0,0.0,0.0,0.0,0.0,0.0,0.1091,0.0607,-0.0554,-0.1168,-0.1013,-0.1693,-0.238,-0.2918,-0.4098,-0.4082,-0.2568,-0.4578,-0.5843,-0.6573,-1.0678,-1.4151,-1.6538,-0.8632,-0.0909,0.6871,1.7817,2.6977,3.4168,3.5163,3.3408,2.9794,2.7499,2.3148,0.0,1.1022,0.7085,0.5279,0.7301,0.6195,0.4207,0.5625,0.5608,0.2888,-0.8353,-2.1196,-3.3277,-4.0291,-4.9754,-5.8196,-6.028,-6.1588,-6.3098,-6.5632,-6.7942,-7.0101,-7.1969,-7.3394,-7.4476,-7.5032,-7.5645,-7.6388,-7.7376,-7.876,-8.0136,-8.127,-8.1385,-8.081,-7.9427,-7.8461,-7.7066,0.0,0.0,0.0,-7.6612,-7.806,-7.9763,-8.1578,-8.387,-8.5955,-8.7851,-8.8785,-8.9076,-8.887,-8.7166,-8.6233,-8.5966,-8.69,-8.7452,-8.76,-8.7836,-8.7488,-8.6697,-8.6894,-8.6286,-8.5297,-8.4982,-8.3479,-8.1072,-7.7995,-7.45,-7.1036,-6.8746,-6.6421,-6.4549,0.0,0.0,0.0,0.0,0.0,0.0,0.0,0.0,0.0,0.0,0.0,0.0,0.0,0.0,0.0,0.0,0.0,0.0,0.0259,-0.1887,-0.3581,-0.4461,-0.5766,-0.7585,-0.9925,-0.9245,-0.9731,-1.1365,-1.1077,-1.2893,-1.6628,-1.5001,-1.814,-2.4418,-0.901,0.0422,0.5596,1.887,2.8219,3.3973,3.3029,2.9056,2.3346,2.0754,1.7403,1.3309,0.6103,-0.0342,-0.5256,-0.3535,-0.6016,-1.0385,-1.3175,-1.4247,-1.6784,-2.8587,-3.3239,-3.7423,-5.0894,-5.7775,-6.1486,-6.2683,-6.3831,-6.4925,-6.6062,-6.8108,-6.9962,-7.0725,-7.1455,-7.1815,0.0,0.0,-7.2322,-7.3601,-7.5972,-7.8447,-8.0743,-8.1355,-8.134,0.0,0.0,0.0,-7.6427,-7.5275,0.0,-7.5606,0.0,-7.9974,-8.3263,-8.4835,-8.7115,-9.0264,-8.9927,-8.9662,-8.9589,-8.7562,-8.6085,-8.5153,-8.7016,-8.772,-8.7335,-8.7278,-8.6966,-8.6571,-8.5793,-8.5261,-8.4894,-8.3733,-8.1684,-7.9213,-7.6809,-7.3315,-6.9566,-6.8301,-6.5971,-6.3532,0.0,0.0,0.0,0.0,0.0,0.0,0.0,0.0,0.0,0.0,0.0,0.0,0.0,0.0,0.0,0.0,0.0,0.0,0.1725,-0.0844,-0.326,-0.5325,-0.7736,-0.9966,-1.22,-1.3507,-1.3845,-1.3252,-1.4995,-1.5863,-1.6148,-2.1177,-2.439,-2.5627,-1.7182,-0.9583,-0.2322,0.8869,1.7157,2.2654,2.0628,1.7311,1.3124,0.9125,0.4377,-0.0788,-0.6082,-1.1762,-1.6337,-1.3493,0.0,0.0,0.0,-3.3865,-3.814,-4.341,-4.774,-5.1819,-5.6608,-5.9944,-6.2393,-6.376,-6.4403,-6.5094,-6.6644,-6.7341,-6.7863,-6.8307,-6.6823,-6.579,-6.691,0.0,0.0,-7.1159,-7.5609,0.0,-8.1115,-8.2954,0.0,-8.1772,-8.0881,-7.9325,-7.647,-7.5992,0.0,0.0,-7.8367,-8.0555,-8.2744,-8.6103,-8.8514,-8.9603,-9.0258,-9.0243,-8.9625,-8.7937,-8.6666,-8.584,-8.7157,-8.7591,-8.7268,-8.7661,-8.7279,-8.638,-8.6158,-8.5087,-8.3448,-8.2142,-7.9949,-7.712,-7.4472,-7.1272,-6.8065,-6.6583,-6.4705,-6.2841,0.0,0.0,0.0,0.0,0.0,0.0,0.0,0.0,0.0,0.0,0.0,0.0,0.0,0.0,0.0,0.0,0.0,0.0,0.0,-0.0165,-0.3238,-0.6523,-0.9482,-1.2808,-1.6483,-1.7795,-1.8617,-1.9134,-1.9907,-2.0546,-2.1232,-2.3348,-2.5598,-2.7378,-1.7566,-1.0661,-0.5655,0.5174,1.2067,0.0,0.0,1.0067,0.5112,0.1893,-0.2227,-0.6969,-1.2102,-2.0475,-2.9331,0.0,0.0,-3.8529,-4.2195,-4.6304,-5.0297,-5.2711,0.0,-5.9295,-6.0427,-6.2438,-6.4438,-6.5627,-6.5992,-6.6006,-6.6038,-6.477,-6.231,-5.7649,-5.8278,-5.8747,-5.5792,-6.038,-6.5656,0.0,0.0,0.0,-8.0659,-8.3233,-8.4327,0.0,-8.2814,0.0,-7.92,-7.8707,-7.8639,0.0,-7.9723,-8.1422,-8.3854,-8.7316,-8.9628,-9.0513,-9.0847,-9.0262,-8.8608,-8.7595,-8.6757,-8.61,-8.699,-8.7365,-8.7268,-8.723,-8.6666,-8.5761,-8.5365,-8.3911,-8.1738,-8.0078,-7.7615,-7.4551,-7.1844,-6.8933,-6.6132,-6.508,-6.3415,-6.1776,0.0,0.0,0.0,0.0,0.0,0.0,0.0,0.0,0.0,0.0,1.183,0.0,0.0,0.0,0.0,0.0,0.0,0.0,0.0,0.0,-0.3037,-0.7539,-1.0771,-1.5134,-2.075,-2.1451,-2.3026,-2.5636,-2.4325,-2.4786,-2.6933,-2.2858,-2.343,-2.7308,-1.432,-0.822,-0.7051,0.2899,0.7882,0.8964,0.7987,0.3838,-0.1895,0.0,-0.6509,-1.0121,-1.6305,-2.7742,-4.0952,0.0,-4.8085,-4.6083,-5.0545,-5.3892,-5.6499,-5.8208,-6.0431,-6.2439,-6.3033,-6.4952,-6.6916,-6.7656,-6.7728,-6.7121,-6.5001,-6.0755,-5.4777,-4.5977,-4.858,-5.052,-4.4378,-5.3503,-6.3151,-6.6733,0.0,-7.6327,-7.9815,-8.2661,-8.4382,-8.4417,-8.4604,-8.4143,-8.265,-8.1991,-8.1657,-8.1664,-8.1418,-8.2593,-8.5579,-8.819,-9.0279,-9.1833,-9.126,-8.9845,-8.7633,-8.7292,-8.6889,-8.6283,-8.6819,-8.7132,-8.7268,-8.6458,-8.5714,-8.4995,-8.4027,-8.2304,-8.0077,-7.7977,-7.5145,-7.1955,-6.9414,-6.6752,-6.4129,-6.3421,-6.213,-6.0523,0.0,0.0,0.0,0.0,0.0,0.0,0.0,0.0,0.0,0.0,0.713,1.2235,0.0,0.0,0.0,0.0,0.0,0.0,0.0,0.0,0.0,-0.6901,-1.055,-1.4882,-2.0211,-2.2307,-2.4001,-2.5348,-2.4294,-2.31,-2.1874,-2.0665,-1.9437,-1.8151,-1.4746,-1.2531,-1.1163,-0.8899,-0.7111,-0.5907,-0.7872,-0.9279,-1.0563,-1.3983,0.0,0.0,-2.8332,-3.5378,-4.1821,-4.8184,-5.2338,-5.5201,-5.6753,-5.8421,-5.9943,-6.1097,-6.2926,-6.4667,-6.469,-6.6567,-6.8414,-6.7885,-6.8088,-6.7651,-6.4822,-5.496,0.0,0.0,-4.3925,-4.0057,-4.7327,-5.3611,-5.9491,-6.5053,-7.0316,-7.5157,-7.916,-8.2447,-8.4396,0.0,-8.5034,-8.4824,-8.3378,-8.2613,0.0,0.0,-8.358,-8.4754,-8.5279,-8.8317,-9.028,-9.0826,-8.9979,-8.9368,-8.9034,-8.8344,-8.7847,-8.746,-8.7526,-8.7497,-8.7268,-8.6458,-8.5648,-8.4903,-8.3557,0.0,-7.9309,-7.7146,-7.3964,-7.0418,-6.8055,-6.5263,-6.2506,-6.1776,-6.0755,-5.9872,0.0,0.0,0.0,0.0,0.0,0.0,0.0,-0.8344,-0.5433,-0.1872,0.419,0.8968,1.0824,1.2183,1.2322,0.0,0.0,0.0,0.0,0.0,0.0,0.0,-1.0388,-1.4332,-1.9347,-2.0994,-2.2288,-2.3322,0.0,-2.0786,-1.9043,-1.7907,-1.6377,-1.4655,-1.4139,-1.3473,-1.2645,-1.2059,-1.1483,-1.0758,-1.0577,-1.1191,-1.2338,0.0,0.0,0.0,0.0,0.0,0.0,-4.509,-5.0321,-5.5629,-5.9756,-6.1896,-6.3119,-6.4202,-6.5674,-6.714,-6.7846,-6.9007,-7.0004,-7.0191,-6.8941,-6.6739,-6.2982,0.0,0.0,0.0,-4.0439,-4.0122,-4.1295,-4.9919,0.0,-6.3796,-6.8238,-7.2824,-7.7898,-8.0862,-8.2949,-8.4317,-8.5119,-8.5122,-8.3876,-8.3228,-8.2873,-8.2817,-8.4218,-8.53,-8.5875,-8.8781,-9.0343,-9.0288,-8.9855,-8.9099,-8.8059,-8.812,-8.7812,-8.6999,-8.7598,-8.7628,-8.7268,-8.6016,-8.5243,-8.4801,-8.2461,-7.992,-7.725,-7.4577,-7.1103,-6.7147,-6.5084,-6.3022,-6.0879,-6.0343,-5.9809,-5.9403,0.0,0.0,0.0,0.0,0.0,0.0,0.0,-0.8608,-0.5794,-0.2036,0.2321,0.6005,0.8463,1.061,1.1432,0.0,0.0,0.0,0.0,0.0,0.0,0.0,0.0,-1.2977,-1.7562,0.0,0.0,-2.0555,-1.9738,0.0,0.0,0.0,0.0,0.0,-1.3579,-1.3379,-1.2942,-1.2447,-1.2156,0.0,0.0,-0.9958,0.0,0.0,0.0,0.0,0.0,0.0,0.0,0.0,-4.6385,-5.2261,-5.8866,-6.2207,-6.3917,-6.5226,-6.6679,-6.8215,-6.9813,-7.0566,-7.0999,-7.1634,-6.9179,-6.55,-6.1291,-5.3993,0.0,-3.5918,-3.8438,-4.117,-3.7284,-4.7408,-5.7889,0.0,-6.5983,-7.0114,-7.5837,-7.8563,-8.0888,0.0,-8.4424,0.0,-8.4054,-8.3538,0.0,-8.3489,-8.4592,-8.5749,-8.6793,-8.8926,-8.9926,-8.9592,-8.9347,-8.8538,-8.7064,-8.778,-8.7674,-8.6703,-8.7613,-8.7683,-8.6973,-8.5537,-8.4698,-8.4308,-8.1129,-7.8248,-7.5361,-7.1919,-6.817,-6.4427,-6.26,-6.1047,-5.9772,-5.9413,-5.9303,-5.9192,0.0,0.0,0.0,0.0,0.0,0.0,0.0,-0.9,-0.6396,-0.153,0.1385,0.427,0.7375,0.9971,1.1002,0.0,0.0,0.0,0.0,0.0,0.0,0.0,0.0,0.0,0.0,0.0,0.0,-1.7638,-1.7823,0.0,0.0,0.0,0.0,0.0,0.0,-1.3507,-1.2277,-1.2977,0.0,0.0,0.0,0.0,0.0,0.0,0.0,0.0,0.0,0.0,0.0,0.0,0.0,-4.6742,-5.1804,-5.6117,-5.9612,-6.1229,0.0,0.0,-6.7881,-6.9566,-7.0564,-6.9985,-6.7734,-6.4731,-6.1278,0.0,-4.0339,-4.3876,-3.9059,-3.6562,-4.4343,-5.0506,-5.5932,-6.0651,0.0,-6.7262,-7.25,-7.5871,-7.8353,-7.9943,0.0,0.0,-8.3491,-8.3088,-8.3067,-8.3747,-8.5424,-8.6877,-8.7818,-8.8119,-8.8232,-8.8179,-8.7319,-8.7152,-8.7861,-8.7974,-8.7998,-8.8046,-8.812,-8.7476,-8.6163,-8.508,-8.4034,-8.2851,-7.9712,-7.7146,0.0,-7.0591,-6.6869,-6.3829,-6.2179,-6.051,-5.9248,-5.9745,-5.9911,-5.9828,0.0,0.0,0.0,0.0,0.0,0.0,-1.0646,-0.8677,-0.5756,-0.1466,0.2169,0.5256,0.79,1.0085,1.0788,0.9261,0.0,0.0,0.0,0.0,0.0,0.0,0.0,0.0,0.0,0.0,-1.3166,-1.542,-1.5916,0.0,0.0,0.0,0.0,0.0,0.0,-1.5802,-1.4631,-1.5124,0.0,0.0,0.0,0.0,0.0,0.0,0.0,0.0,0.0,0.0,0.0,0.0,0.0,0.0,-4.2875,-4.6499,0.0,0.0,-6.1119,-6.3596,-6.598,-6.771,-6.8849,-6.8967,-6.6165,-6.2567,-5.9366,0.0,-4.6525,-4.6647,-4.4609,-4.4085,-4.8343,-5.1617,-5.5004,-5.9101,-6.1042,-6.3833,-6.895,-7.1943,-7.4769,-7.7929,-8.014,0.0,0.0,0.0,-8.3413,-8.4292,-8.5523,-8.6463,-8.7079,-8.8028,-8.8872,-8.9421,-8.8483,-8.8064,-8.8192,-8.8772,-8.8624,-8.7769,-8.7942,-8.7407,-8.6306,-8.4617,-8.2947,-8.1129,-7.7696,-7.4385,0.0,-6.7565,-6.4287,-6.1483,-6.0836,-6.0088,-5.938,-6.0234,-6.021,-5.9882,0.0,0.0,0.0,0.0,0.0,-1.1941,-1.0816,-0.8398,-0.5288,-0.1362,0.2543,0.5963,0.868,1.0315,1.084,0.9898,0.8831,0.0,0.0,0.0,0.0,0.0,0.0,0.0,0.0,0.0,-0.9798,-1.2596,-1.3999,-1.5162,0.0,0.0,-1.6593,-1.6314,0.0,0.0,0.0,0.0,0.0,0.0,0.0,0.0,0.0,0.0,0.0,0.0,0.0,0.0,0.0,0.0,0.0,0.0,0.0,0.0,-4.3299,0.0,-5.6719,-5.944,-6.2861,-6.4879,-6.6353,-6.7553,-6.4557,-6.0626,0.0,-5.4671,-5.114,-4.8448,-4.8733,-4.9653,-5.0347,-5.203,-5.4201,-5.6861,-5.8499,-6.0914,-6.518,-6.8049,0.0,0.0,0.0,-7.9817,0.0,-8.353,-8.4105,-8.4772,-8.569,-8.6323,-8.6815,-8.7925,-8.8879,-8.9596,-8.8748,-8.8295,-8.8268,-8.901,-8.882,-8.781,-8.7772,-8.7171,-8.6027,-8.3897,-8.1593,-7.9155,-7.5794,-7.2061,0.0,-6.5226,-6.244,-6.0128,-6.0013,-5.9759,-5.9687,-6.0811,-6.0892,-6.0375,0.0,0.0,0.0,0.0,0.0,0.0,-1.0787,-0.8353,-0.5138,-0.0955,0.2102,0.5467,0.9435,1.0567,1.1154,1.1607,0.9461,0.0,0.0,0.0,0.0,0.0,0.0,0.0,0.0,0.0,-0.6954,-0.8888,-1.2048,-1.4576,-1.6272,-1.6939,-1.8096,-1.9751,0.0,0.0,0.0,0.0,0.0,0.0,0.0,0.0,0.0,0.0,0.0,0.0,0.0,0.0,0.0,0.0,0.0,0.0,0.0,0.0,-3.6844,-4.4784,-4.9278,-5.2839,-5.8119,-6.0973,-6.3038,-6.5568,-6.2866,-5.9356,-5.8424,-5.4806,-5.1348,-4.9951,-4.9885,-5.0134,-5.0346,-5.1875,-5.3253,-5.3693,-5.6167,-5.8839,-6.1219,-6.4496,0.0,0.0,0.0,-7.6229,-8.0413,-8.3326,-8.5018,-8.5155,-8.5998,0.0,-8.7549,-8.7619,-8.7637,-8.7714,-8.6951,-8.7116,-8.8268,-8.8305,-8.8361,-8.8495,-8.7674,-8.6497,-8.506,-8.2892,-8.0143,-7.69,-7.4035,-7.0536,0.0,-6.3932,-6.1674,-6.0128,-6.0013,-5.9759,-5.9741,-6.1521,-6.1902,-6.1515,0.0,0.0,0.0,0.0,0.0,0.0,0.0,-0.7689,-0.5052,-0.0817,0.1912,0.4961,0.8957,1.082,1.1598,1.1449,0.9937,0.0,0.0,0.0,0.0,0.0,0.0,0.0,0.0,0.0,-0.4723,-0.808,-1.0257,-1.314,-1.6683,-1.8202,-1.9561,-2.0686,-2.2522,-2.2808,0.0,0.0,0.0,0.0,0.0,0.0,0.0,0.0,0.0,0.0,0.0,0.0,0.0,0.0,0.0,0.0,0.0,0.0,0.0,-3.8584,-4.2675,0.0,-5.1459,-5.4741,-5.7385,-5.9309,-5.8461,-5.6837,-5.562,-5.3409,-5.1078,-4.907,-4.8843,-4.8948,-4.8887,-4.9721,-5.0971,-5.2661,-5.4344,0.0,0.0,0.0,0.0,-6.9082,-7.5408,-8.0305,0.0,0.0,-8.582,-8.6545,-8.6956,-8.7314,-8.7619,-8.7726,-8.8045,-8.8584,-8.7709,-8.7771,-8.8924,-8.8745,-8.8783,-8.9119,-8.7399,-8.608,-8.4838,-8.1445,-7.8022,-7.4705,-7.1855,-6.8171,-6.43,-6.2814,-6.143,-6.0159,-6.0337,-6.0532,-6.0982,-6.2536,-6.2673,-6.2067,0.0,0.0,0.0,0.0,0.0,0.0,0.0,-0.6533,-0.4348,-0.0942,0.1651,0.4633,0.857,1.0616,1.1918,1.2122,1.127,0.0,0.0,0.0,0.0,0.0,0.0,0.0,-0.213,-0.2015,-0.3752,-0.7279,-0.951,-1.304,-1.781,-1.9972,-2.1902,-2.3463,-2.5516,-2.5938,0.0,0.0,0.0,0.0,0.0,0.0,0.0,0.0,0.0,0.0,0.0,0.0,0.0,0.0,0.0,0.0,0.0,0.0,0.0,0.0,-3.843,-4.2178,-4.7183,-5.0571,-5.3281,-5.5779,-5.5638,-5.463,-5.3794,-5.2048,-5.0047,-4.8016,-4.764,-4.762,-4.7415,-4.7985,-4.8968,-5.034,-5.1861,-5.372,0.0,0.0,0.0,-6.9018,0.0,0.0,0.0,-8.4397,-8.618,-8.6824,-8.704,-8.7174,-8.7294,-8.7384,-8.7642,-8.8133,-8.7852,-8.8012,-8.8683,-8.8472,-8.8378,-8.8338,-8.6554,-8.4934,-8.3447,-7.9793,-7.6105,-7.2404,-7.0043,-6.6859,0.0,-6.2616,-6.1658,-6.0665,-6.0931,-6.1398,-6.1963,-6.3057,-6.3059,-6.2561,0.0,0.0,0.0,0.0,0.0,0.0,0.0,-0.495,-0.3077,-0.0996,0.1417,0.4389,0.8138,1.0325,1.2052,1.3471,0.0,0.0,0.0,0.0,0.0,0.0,0.0,0.0,-0.1844,-0.2261,-0.3857,-0.6552,-0.978,-1.4138,-1.9445,-2.2208,-2.4948,-2.7678,-2.9036,-2.8895,0.0,0.0,0.0,0.0,0.0,0.0,0.0,0.0,0.0,0.0,0.0,0.0,0.0,0.0,0.0,0.0,0.0,0.0,0.0,0.0,0.0,0.0,0.0,-4.8023,-5.0495,-5.4351,-5.4,-5.2688,-5.2716,-5.0665,0.0,-4.6837,-4.6409,-4.6193,-4.5985,-4.6569,-4.715,-4.7426,-4.9043,-5.1148,0.0,-5.7479,0.0,0.0,-7.612,0.0,-8.0656,-8.4028,-8.6208,-8.6414,-8.6559,-8.6693,-8.6904,-8.6793,-8.6747,-8.6821,-8.7397,-8.7732,-8.7844,-8.7722,-8.7285,-8.6561,-8.5096,-8.3263,-8.0964,-7.7986,-7.4256,0.0,-6.857,-6.6199,-6.3364,-6.3091,-6.2428,-6.1595,-6.1896,-6.2117,-6.2465,-6.3078,-6.3225,-6.2945,0.0,0.0,0.0,0.0,0.0,0.0,0.0,0.0,0.0,0.0,0.213,0.4219,0.7758,1.0686,1.2732,0.0,0.0,0.0,0.0,0.0,0.0,0.0,0.0,0.0,-0.2479,-0.3,-0.4966,-0.8549,-1.1472,-1.5517,-2.0576,-2.4757,-2.8149,-3.0842,-3.1941,-3.217,0.0,0.0,0.0,0.0,0.0,0.0,0.0,0.0,0.0,0.0,-2.8264,-2.9548,0.0,0.0,0.0,0.0,0.0,0.0,0.0,0.0,-3.681,-3.7821,-4.1733,0.0,-4.6865,-4.9781,-5.0104,-4.977,0.0,-4.8708,-4.69,-4.5425,-4.4639,-4.4451,-4.5169,-4.4532,-4.4951,-4.8219,-4.8976,-5.0632,-5.4901,0.0,0.0,-7.3187,-7.7683,-8.1014,-8.2785,-8.5053,-8.6726,-8.7536,-8.7735,-8.7797,-8.7777,-8.7795,-8.7502,-8.6821,-8.6867,-8.701,-8.7198,-8.7042,-8.6412,-8.5354,-8.3626,-8.1337,-7.8702,-7.5123,-7.2009,-6.9317,-6.7396,-6.5328,-6.3364,-6.3091,-6.2691,-6.2256,-6.2066,-6.2249,-6.2865,-6.3454,-6.3357,-6.2811,0.0,0.0,0.0,0.0,0.0,0.0,0.0,0.0,0.0,0.0,0.0,0.5052,0.8014,1.0886,0.0,0.0,0.0,0.0,0.0,0.0,0.0,0.0,0.0,-0.1821,-0.4682,-0.6128,-0.8721,-1.263,-1.552,-1.969,-2.5098,-2.8996,-3.2195,-3.4489,-3.4594,-3.4582,0.0,0.0,0.0,0.0,0.0,0.0,0.0,0.0,0.0,0.0,-3.0804,-3.1459,0.0,-3.3288,-3.4243,-3.5115,0.0,0.0,0.0,0.0,-3.6542,-3.7308,-4.015,-4.2699,-4.518,-4.763,-4.8115,-4.8096,-4.8558,-4.7397,-4.577,-4.4282,-4.3813,-4.3702,-4.3716,-4.3846,-4.4886,-4.7636,-4.8971,0.0,0.0,0.0,-7.0127,-7.4786,-7.8446,-8.1239,0.0,-8.4558,-8.5885,-8.6865,-8.6722,-8.6732,-8.7105,-8.6761,-8.628,-8.5738,-8.5459,-8.5497,-8.5854,-8.5473,-8.4567,-8.2984,-8.1056,-7.8603,-7.5695,-7.2819,-7.0199,-6.7668,-6.6437,-6.517,-6.3815,-6.3535,-6.3217,-6.2888,-6.2547,-6.2802,-6.3335,-6.3392,-6.3185,-6.27,0.0,0.0,0.0,0.0,0.0,0.0,0.0,0.0,0.0,0.0,0.0,0.0,0.0,0.0,0.0,0.0,0.0,0.0,0.0,0.0,0.0,0.0,-0.1038,-0.3873,-0.7577,-1.0398,-1.3766,-1.7544,-2.0864,-2.5349,-3.0961,-3.4153,-3.6664,-3.8296,-3.7485,-3.6784,0.0,0.0,0.0,0.0,0.0,0.0,0.0,0.0,0.0,0.0,0.0,0.0,0.0,-3.4484,-3.5388,-3.5994,-3.6042,0.0,0.0,0.0,0.0,0.0,-3.9663,-4.2206,-4.4712,-4.6735,-4.7064,-4.7021,-4.7519,-4.6301,-4.4695,-4.3469,-4.3418,-4.3395,-4.2679,-4.4236,0.0,0.0,0.0,0.0,-6.1995,-6.676,-7.1195,-7.5627,-7.8859,0.0,-8.2381,-8.3638,-8.4682,-8.5517,-8.5013,-8.5019,-8.5771,-8.5013,-8.4521,-8.4357,-8.3885,-8.368,-8.3716,-8.3475,-8.2265,-8.0114,-7.8078,-7.5649,-7.2743,-7.0831,-6.8557,-6.6148,0.0,0.0,-6.4387,-6.3947,-6.3706,-6.3405,-6.3056,-6.3223,-6.3588,-6.3111,-6.285,-6.2671,0.0,0.0,0.0,0.0,0.0,0.0,0.0,0.0,0.0,0.0,0.0,0.0,0.0,0.0,0.0,0.0,0.0,0.0,0.0,0.0,0.0,-0.0591,-0.2566,-0.58,-1.0538,-1.4327,-1.8115,-2.1968,-2.6648,-3.0967,-3.4821,-3.9121,-4.1507,-4.2219,-4.1056,-3.9952,-3.8983,-3.9121,0.0,0.0,0.0,0.0,0.0,0.0,0.0,0.0,0.0,0.0,0.0,-3.4038,-3.4455,-3.4825,-3.4698,0.0,0.0,0.0,0.0,0.0,-4.0197,-4.2645,-4.4766,-4.575,-4.5943,-4.5932,-4.6147,-4.5071,-4.3798,-4.3047,-4.2912,-4.3253,0.0,-4.5778,-4.7902,0.0,0.0,-6.0762,0.0,0.0,-7.2811,-7.6076,0.0,-8.1693,-8.294,-8.3961,-8.4668,-8.4921,-8.4792,-8.4792,-8.4971,-8.461,-8.4301,-8.4067,-8.3452,-8.2149,-8.0177,-8.1188,-8.0314,-7.7648,-7.5612,-7.3406,-7.1091,-6.8531,-6.705,-6.6542,0.0,-6.4468,-6.43,-6.3684,-6.3486,-6.3405,-6.3056,-6.2998,-6.3054,-6.297,-6.2704,-6.2308,0.0,0.0,0.0,0.0,0.0,0.0,0.0,0.0,0.0,0.0,0.0,0.0,0.0,0.0,0.0,0.0,0.0,0.0,0.0,0.0,0.4491,-0.1107,-0.6,-1.0585,-1.49,-1.9304,-2.3781,-2.8277,-3.329,-3.771,-4.1524,-4.4325,-4.5151,-4.4233,-4.2535,-4.1189,-4.0256,-4.0866,-4.1032,0.0,0.0,0.0,0.0,0.0,0.0,0.0,0.0,0.0,0.0,0.0,-3.4313,-3.4612,-3.3956,0.0,0.0,0.0,0.0,0.0,-3.9949,-4.2267,-4.4113,-4.5192,-4.6647,-4.7933,-4.8049,-4.7203,-4.6127,-4.5284,-4.5046,-4.5277,0.0,0.0,-5.1691,-5.6374,0.0,-6.4066,-6.6722,-7.0927,-7.4673,0.0,0.0,-8.16,-8.2474,-8.2918,-8.3382,-8.4013,-8.3555,-8.338,-8.3738,-8.2941,-8.2071,-8.1151,-8.0086,-7.8387,-7.6019,-7.6126,-7.5638,-7.4606,-7.2797,-7.0767,-6.8511,-6.6784,-6.5596,-6.5158,0.0,-6.3979,-6.3847,-6.3593,-6.3494,-6.3573,-6.3046,-6.3111,-6.3364,-6.2788,-6.2308,-6.1767,0.0,0.0,0.0,0.0,0.0,0.0,0.0,0.0,0.0,0.0,0.0,0.0,0.0,0.0,0.0,0.0,0.0,0.0,0.0,0.0,0.3399,-0.2421,-0.9598,-1.535,-1.9223,-2.4766,-2.9973,-3.4981,-3.974,-4.3944,-4.7497,-4.8258,-4.7378,-4.5082,-4.2757,-4.1248,-4.0504,-4.1169,-4.1138,0.0,0.0,0.0,0.0,0.0,0.0,0.0,0.0,0.0,0.0,0.0,0.0,0.0,0.0,0.0,0.0,-3.5306,-3.5935,-3.6953,-4.0026,-4.2058,-4.3756,-4.5042,-4.7334,-4.9401,-4.9896,-4.9516,-4.8815,-4.8084,-4.7914,-4.8022,0.0,-5.1466,0.0,-6.0565,-6.3648,-6.6381,-6.9064,-7.2737,-7.6054,-7.8304,-8.0063,-8.1272,-8.1686,-8.1675,-8.1872,-8.2363,-8.1702,-8.1414,-8.1635,-8.0309,-7.8903,-7.7626,-7.6066,-7.4286,-7.2192,-7.1089,-7.0843,-7.1316,-7.0105,-6.8463,-6.6526,-6.5565,-6.4868,-6.4331,-6.4087,-6.3764,-6.3475,-6.3364,-6.3374,-6.3532,-6.3111,-6.3195,-6.3532,-6.2521,-6.1685,-6.0989,0.0,0.0,0.0,0.0,0.0,0.0,0.0,0.0,0.0,0.0,0.0,0.0,0.0,0.0,0.0,0.0,0.0,0.0,0.0,0.0,0.1387,-0.5699,-1.272,-1.8567,-2.2884,-3.0232,-3.6334,-4.0961,-4.5234,-4.8517,-5.0819,-4.9487,-4.7462,-4.469,-4.1887,-4.0241,-3.9501,-3.9313,-3.9043,-3.8746,-3.781,0.0,0.0,0.0,0.0,0.0,0.0,0.0,0.0,0.0,0.0,0.0,0.0,0.0,-3.4602,-3.5806,-3.7223,-3.8799,-4.0883,-4.274,-4.4423,-4.5645,-4.6969,-4.8459,-5.0105,-5.0439,-5.0376,-5.0351,-5.0891,-5.1138,-5.0514,-5.4444,-5.9023,-6.2769,-6.5613,-6.8302,-7.0946,0.0,-7.6331,-7.8613,-8.0048,-8.0836,-8.0879,-8.093,-8.0523,-7.951,-7.9286,-7.8834,-7.8045,-7.6506,-7.5283,-7.4375,-7.2329,-7.0655,-6.9288,-6.7779,-6.738,-6.8016,-6.7871,-6.7274,-6.6185,-6.5317,-6.5263,-6.565,-6.4392,-6.3922,-6.3786,-6.3261,-6.2914,-6.2998,-6.2942,-6.2942,-6.2837,-6.1654,-6.0564,-5.9668,0.0,0.0,0.0,0.0,0.0,0.0,0.0,0.0,0.0,0.0,0.0,0.0,0.0,0.0,0.0,0.0,0.0,0.0,0.0,0.1361,-0.3587,-1.0737,-1.8888,-2.6634,-3.4068,-3.808,-4.2334,-4.701,-5.0258,-5.15,-5.0749,-4.8318,-4.569,-4.2808,-3.9927,-3.8205,-3.7432,-3.6658,-3.5785,-3.4911,-3.506,0.0,0.0,0.0,0.0,0.0,0.0,0.0,0.0,0.0,-3.4185,-3.3775,-3.2993,-3.3666,-3.5063,-3.6117,-3.74,-3.882,-4.0686,-4.2797,-4.4624,-4.5152,-4.7312,-4.975,-5.1675,-5.3112,-5.407,-5.4512,-5.4649,-5.4843,-5.5437,0.0,-6.0408,-6.384,-6.6855,-6.9453,-7.1636,-7.4437,-7.6574,-7.7455,-7.8534,-7.9226,-7.9116,-7.8411,-7.7719,-7.7228,-7.6341,-7.523,-7.3914,-7.2933,-7.1481,-6.942,-6.7475,-6.5922,-6.4673,-6.3708,-6.323,-6.3251,-6.4412,-6.4748,-6.4456,-6.4124,-6.41,-6.4306,-6.3823,-6.3435,-6.3232,-6.2962,-6.3139,-6.3476,-6.3476,-6.2822,-6.1789,-6.1356,-6.0441,-5.9516,0.0,0.0,0.0,0.0,0.0,0.0,0.0,0.0,0.0,0.0,0.0,0.0,0.0,0.0,0.0,0.0,0.0,0.0,-0.0562,-0.4754,-1.0238,-1.7016,-2.5107,-3.3478,-4.2154,-4.4633,-4.7462,-5.1076,-5.2742,-5.2109,-4.9217,-4.634,-4.3577,-4.0965,-3.7929,-3.6445,-3.6149,-3.4245,-3.2917,-3.2133,-3.2643,-3.2083,0.0,0.0,0.0,0.0,0.0,0.0,0.0,0.0,-3.4248,-3.3763,-3.3429,-3.4275,-3.566,-3.6842,-3.8321,-3.9778,-4.0967,-4.3009,-4.4872,-4.5215,-4.7849,-5.0929,-5.3112,-5.504,-5.6706,-5.7902,-5.7622,-5.7587,-5.8872,-5.9429,0.0,0.0,-6.6835,-6.9191,-7.1081,-7.359,-7.5243,-7.5323,-7.5901,-7.6076,-7.5628,-7.4672,-7.3815,-7.3236,-7.2116,-7.0943,-6.9906,-6.8692,-6.7221,-6.5208,-6.3288,-6.2007,-6.139,-6.0647,-6.0395,-6.0565,-6.1965,-6.288,-6.3204,-6.3611,-6.3775,-6.3545,-6.3413,-6.3282,-6.3178,-6.3075,-6.3167,-6.3532,-6.3101,-6.2283,-6.1111,-6.0588,-5.9784,-5.8895,0.0,0.0,0.0,0.0,0.0,0.0,0.0,0.0,0.0,0.0,0.0,0.0,0.0,0.0,0.0,0.0,0.0,0.0,-0.8476,-1.2974,-1.8279,-2.4606,-3.1172,-3.8175,-4.5681,-4.9298,-5.1634,-5.2699,-5.2181,-5.007,-4.6313,-4.3576,-4.131,-3.9465,-3.6014,-3.5201,-3.6014,-3.2149,-3.0733,-3.0991,-3.0633,-3.0568,-3.0794,0.0,0.0,0.0,0.0,0.0,0.0,0.0,-3.4053,-3.3162,-3.5159,-3.5935,-3.6424,-3.8102,-4.0226,-4.2067,-4.1921,-4.3472,-4.5291,-4.5979,-4.8591,-5.1614,-5.4237,-5.5937,-5.7686,-6.007,-5.9626,-5.9103,-6.0114,-5.9729,0.0,-6.3591,-6.5547,-6.7266,-6.9168,-7.0902,-7.2021,-7.2332,-7.1963,-7.1284,-7.019,-6.9749,-6.8876,-6.7281,-6.6443,-6.6115,-6.6163,-6.3789,-6.2321,-6.2084,-6.0022,-5.9197,-5.9864,-5.8931,-5.9177,-6.0482,-6.091,-6.1646,-6.2668,-6.3907,-6.4354,-6.3965,-6.3545,-6.3545,-6.3965,-6.3178,-6.2942,-6.2781,-6.1654,-6.122,-6.1002,-5.9357,-5.8367,-5.7913,0.0,0.0,0.0,0.0,0.0,0.0,0.0,0.0,0.0,0.0,0.0,0.0,0.0,0.0,0.0,0.0,0.0,0.0,-1.326,-1.9272,-2.5187,-3.0757,-3.7205,-4.3088,-4.8358,-4.9742,-5.1067,-5.2492,-5.096,-4.7979,-4.3581,-4.1614,-3.9598,-3.762,-3.62,-3.5525,-3.5232,-3.2119,-3.1095,-3.1489,-3.0968,-3.1031,-3.1595,0.0,0.0,0.0,0.0,0.0,0.0,0.0,0.0,0.0,-3.4153,-3.5837,-3.7653,-3.7602,-3.9638,-4.1805,-4.155,-4.3335,-4.5444,-4.6307,-4.9311,-5.2696,-5.5051,-5.7263,-5.9547,-6.224,-6.1606,-6.0354,-5.9655,-5.8958,0.0,-5.9564,-6.122,-6.2997,-6.4843,-6.6105,-6.7233,-6.8187,-6.7235,-6.6508,-6.6719,-6.4573,-6.302,-6.2738,-6.1605,-6.0874,-6.0563,-5.9296,-5.8078,-5.7143,-5.5846,-5.5197,-5.5509,-5.565,-5.6265,-5.7507,-5.898,-6.075,-6.3014,-6.3573,-6.3923,-6.3965,-6.3018,-6.3018,-6.3545,-6.2753,-6.2192,-6.1654,-6.0811,-6.0226,-5.9784,-5.8941,-5.8594,-5.8014,0.0,0.0,0.0,0.0,0.0,0.0,0.0,0.0,0.0,0.0,1.7442,1.6146,0.0,0.0,0.0,0.0,0.0,0.0,0.0,-2.668,-3.1851,-3.6313,-4.112,-4.4794,-4.7252,-4.6796,-4.6845,-4.7416,-4.6905,-4.4389,-4.0217,-3.9606,-3.8837,-3.793,-3.7432,-3.688,-3.6099,-3.2939,-3.1729,-3.2077,-3.1731,-3.2337,-3.3734,0.0,0.0,0.0,0.0,0.0,0.0,0.0,0.0,0.0,-3.4549,-3.6208,-3.8014,-3.7763,-3.9608,-4.1798,-4.216,-4.4202,-4.6667,-4.8505,-5.1138,-5.4166,-5.7448,-5.9493,-6.1171,-6.2936,-6.1875,-6.0431,-5.9561,-5.7807,0.0,-5.7122,-5.7887,-5.8983,-6.0633,-6.1541,0.0,0.0,-6.2151,-6.1372,-6.1247,-5.9355,-5.8294,-5.8246,-5.7222,-5.6593,-5.6707,-5.5889,-5.5116,-5.454,-5.3685,-5.3558,-5.4276,-5.4663,-5.5464,-5.6707,-5.853,-6.0225,-6.1798,-6.2393,-6.2624,-6.262,-6.2058,-6.2058,-6.2326,-6.2058,-6.1519,-6.0947,-5.9985,-5.9519,-5.9189,-5.8465,-5.7958,-5.7097,0.0,0.0,0.0,0.0,0.0,0.0,0.0,0.0,0.0,0.0,1.7692,1.637,0.0,0.0,0.0,0.0,0.0,0.0,0.0,0.0,-3.7574,-4.054,-4.2674,-4.3553,-4.3144,-4.1575,-4.025,-3.9217,-4.0814,-3.9931,-3.679,-3.7728,-3.873,-3.9702,-3.9418,-3.8905,-3.8115,-3.4335,-3.2744,-3.2826,-3.2694,-3.4168,-3.6497,-3.7479,0.0,0.0,0.0,0.0,0.0,0.0,0.0,0.0,-3.5794,-3.685,-3.7821,-3.823,-3.9971,-4.199,-4.3313,-4.5655,-4.8438,-5.1599,-5.3843,-5.6347,-6.0705,-6.2078,-6.2433,-6.2412,0.0,-5.9608,-5.9145,-5.6084,-5.4126,-5.5359,-5.5097,-5.5236,-5.6365,-5.6955,0.0,0.0,0.0,0.0,-5.4814,-5.4481,-5.4213,-5.4107,-5.3335,-5.3254,-5.4212,-5.3375,-5.2983,-5.3303,-5.2773,-5.3323,-5.4891,-5.5084,-5.5716,-5.6844,-5.8631,-5.9484,-5.9511,-6.0725,-6.0947,-6.0591,-6.1084,-6.0947,-6.0591,-6.0947,-6.0811,-6.0453,-5.9368,-5.9147,-5.9045,-5.7958,-5.6868,-5.5607,0.0,0.0,0.0,0.0,0.0,0.0,0.0,0.0,0.0,0.0,0.0,0.0,0.0,0.0,0.0,0.0,0.0,0.0,0.0,0.0,-3.8404,-3.8332,-3.9192,-3.9208,-3.81,-3.8307,-3.7028,-3.4179,-3.5925,-3.673,-3.668,-3.7269,-3.865,-4.0692,-4.0572,-4.0172,-3.9361,-3.5595,-3.4438,-3.5057,-3.39,-3.5152,-3.7673,-3.764,-3.8433,0.0,0.0,0.0,0.0,0.0,0.0,0.0,-3.6416,-3.7536,-3.8676,-3.8355,-4.0262,-4.2612,-4.3228,-4.5823,0.0,-5.2378,-5.6553,-6.0402,-6.2463,-6.2663,-6.2246,-6.1771,-6.0234,-5.8217,-5.5538,-5.333,-5.1609,-5.0919,-5.0712,-5.0694,-5.091,-5.1593,-5.211,0.0,0.0,0.0,0.0,-5.0917,-5.0375,-5.088,-5.068,-5.0963,-5.2009,-5.1083,-5.0817,-5.1169,-5.1243,-5.1134,-5.1028,-5.2403,-5.3223,-5.3514,-5.526,-5.6107,-5.6293,-5.9697,-6.0674,-5.9873,-6.0811,-6.0674,-5.9873,-6.0123,-5.9985,-5.9342,-5.8967,-5.8652,-5.8371,-5.7946,-5.6899,-5.5458,0.0,0.0,0.0,0.0,0.0,0.0,0.0,0.0,0.0,0.0,0.0,0.0,0.0,0.0,0.0,0.0,0.0,0.0,0.0,-3.5794,-3.6081,-3.4252,-3.3805,-3.3281,-3.2724,-3.2313,-3.1864,-3.131,-3.2019,-3.3429,-3.5471,-3.7682,-3.9935,-4.2018,-4.2343,-4.1336,-3.9159,-3.6094,-3.4778,-3.4796,-3.4582,-3.6043,-3.8288,-3.8515,-3.8937,-3.9262,-3.7796,0.0,0.0,0.0,0.0,0.0,0.0,0.0,-3.8821,-3.858,-4.0134,-4.2334,-4.4014,0.0,0.0,-5.5544,0.0,-6.1854,-6.2782,-6.1987,-6.0545,-5.9051,-5.7863,-5.6401,-5.3773,-5.0817,-4.8573,-4.8241,-4.7299,-4.6885,-4.7557,-4.7905,-4.8277,0.0,0.0,0.0,0.0,0.0,-4.9006,-4.9655,-4.9541,-4.9745,-5.0194,-4.9599,-4.9468,-4.977,-4.9756,-5.0089,-5.0707,-5.1622,-5.2354,-5.2929,-5.4105,-5.4968,-5.5543,-5.794,-5.8769,-5.8217,-5.8906,-5.8769,-5.8243,-5.8785,-5.8752,-5.8412,-5.8421,-5.8233,-5.7735,-5.6746,-5.5361,-5.3766,0.0,0.0,0.0,0.0,0.0,0.0,0.0,0.0,0.0,0.0,0.0,0.0,0.0,0.0,0.0,0.0,0.0,0.0,0.0,-3.3341,-3.1782,-2.9231,-2.7975,-2.7372,-2.7719,-2.6823,-2.7551,-2.9903,-3.0211,-3.193,-3.5003,-3.8487,-4.1239,-4.3197,-4.3285,-4.1398,-3.8142,-3.5657,-3.4094,-3.3338,-3.4412,-3.6102,-3.8004,-3.8504,-3.8741,-3.8623,-3.6939,-3.6338,-3.6133,-3.5455,0.0,0.0,0.0,0.0,-3.8807,-3.8908,-4.0041,-4.1846,-4.4694,0.0,-5.3219,-5.906,-6.1176,0.0,-6.237,-6.0459,-5.804,-5.5657,-5.5003,-5.4144,-5.2076,-4.8435,-4.5876,-4.619,-4.4768,-4.4044,-4.5337,0.0,0.0,0.0,0.0,0.0,0.0,0.0,0.0,-4.9101,-4.9072,-4.893,-4.893,-4.8666,-4.8666,-4.8811,-4.8651,-4.943,-5.1158,-5.1288,-5.1888,-5.2828,-5.3478,-5.447,-5.5621,-5.6249,-5.6615,-5.6798,-5.6798,-5.6798,-5.685,-5.7425,-5.766,-5.7712,-5.7862,-5.7533,-5.6934,-5.5251,-5.3301,-5.1393,0.0,0.0,0.0,0.0,0.0,0.0,0.0,0.0,0.0,0.0,1.675,1.5247,1.0997,0.343,0.0,0.0,0.0,0.0,-3.1871,0.0,0.0,-2.4255,-2.3474,-2.3432,-2.4051,-2.634,-2.8265,-2.9942,-3.328,-3.6013,-3.8145,-3.8716,-4.0646,-4.3579,-4.0802,-3.8448,-3.6415,-3.3443,-3.1799,-3.1346,-3.2072,-3.379,-3.5777,-3.483,-3.5198,-3.6137,-3.5,-3.4887,-3.5387,-3.6214,-3.6987,0.0,0.0,0.0,-3.942,-3.9543,-4.0426,-4.185,-4.4073,0.0,-5.6088,0.0,-6.1223,-6.1212,0.0,0.0,-5.5243,0.0,-5.2641,-5.1436,-4.7878,-4.6013,0.0,0.0,0.0,0.0,0.0,0.0,0.0,0.0,0.0,0.0,0.0,0.0,0.0,0.0,-4.8355,-4.8303,-4.8303,-4.8303,-4.8186,-4.7925,-4.8325,-4.892,-4.9715,-5.026,-5.0455,-5.0563,-5.1609,-5.2979,-5.4445,-5.5046,-5.5883,-5.6798,-5.6798,-5.6798,-5.685,-5.7425,-5.766,-5.7712,-5.7888,-5.6841,-5.5005,-5.3973,-5.1823,-4.9086,0.0,0.0,0.0,0.0,0.0,0.0,0.0,0.0,0.0,0.0,0.0,1.4803,1.1104,0.3446,0.0,0.0,0.0,0.0,-2.9564,-2.6029,0.0,-2.2211,-2.1511,-2.1945,-2.3544,-2.5468,-2.7682,-3.0332,-3.3275,-3.6378,-3.9468,-4.0254,-4.1387,-4.2642,-3.9658,-3.6748,-3.3972,-3.2218,-3.0929,-3.0224,-3.1909,-3.3329,-3.4257,-3.3184,-3.3532,-3.4266,-3.2499,-3.2766,-3.4135,-3.5016,-3.5909,-3.6818,-3.7786,0.0,0.0,0.0,-3.9129,-4.0562,-4.4961,-4.95,-5.3976,0.0,-5.8736,-5.8321,-5.791,0.0,-5.2569,-5.0162,-4.9307,0.0,0.0,0.0,0.0,0.0,0.0,0.0,0.0,0.0,0.0,0.0,0.0,0.0,0.0,0.0,0.0,0.0,-4.7938,-4.8055,-4.8172,-4.8055,-4.7938,-4.7938,-4.808,-4.8112,-4.8141,-4.8604,-4.9191,-4.9797,-5.1408,-5.2777,-5.3766,-5.4341,-5.5046,-5.5857,-5.5857,-5.604,-5.6327,-5.6588,-5.6738,-5.6912,-5.611,-5.4935,-5.3396,-5.1498,-4.9602,-4.7796,0.0,0.0,0.0,0.0,0.0,0.0,0.0,0.0,0.0,0.0,0.0,1.6401,1.3652,0.0,0.0,0.0,0.0,0.0,-2.7735,0.0,0.0,0.0,0.0,-2.237,-2.5035,-2.6116,-2.824,-3.1445,-3.3476,-3.635,-3.992,-4.1365,-4.1873,-4.1626,-3.862,-3.5328,-3.1837,-3.1057,-3.0238,-2.9681,-3.1955,-3.2756,-3.2616,-3.2043,-3.2199,-3.2352,-3.0623,-3.1317,-3.3125,-3.3836,-3.4942,-3.6222,-3.7004,-3.7168,0.0,0.0,0.0,0.0,0.0,0.0,-5.0192,-5.3844,-5.4777,-5.4583,0.0,0.0,-4.9529,0.0,0.0,0.0,0.0,0.0,0.0,0.0,0.0,0.0,0.0,0.0,0.0,0.0,0.0,0.0,0.0,0.0,0.0,0.0,-4.7703,-4.7821,-4.8172,-4.7938,-4.7938,-4.8055,-4.7586,-4.7223,-4.7029,-4.7234,-4.7926,-4.9257,-5.1022,-5.2285,-5.301,-5.4105,-5.4889,-5.5308,-5.5308,-5.5543,-5.5909,-5.5773,-5.5683,-5.5616,-5.4047,-5.2704,-5.1272,-4.8714,-4.7299,-4.6288,0.0,0.0,0.0,0.0,0.0,0.0,0.0,0.0,0.0,0.0,0.0,0.0,1.9822,0.5935,-0.3383,-0.3789,-1.8973,0.0,0.0,0.0,0.0,0.0,0.0,0.0,-2.8852,-2.9555,-3.1093,-3.354,-3.5247,-3.7312,-3.9742,-4.1083,-4.146,-4.0803,-3.7137,-3.3785,-3.0834,-2.9508,-2.9391,-2.9955,-3.1462,-3.1439,-3.0507,-3.0767,-3.0723,-3.0438,-2.9995,-3.1073,-3.2795,-3.3425,-3.518,-3.7005,-3.6388,-3.6776,-3.7243,0.0,0.0,0.0,0.0,-4.2685,0.0,-4.8091,-4.9603,0.0,0.0,0.0,0.0,0.0,0.0,0.0,0.0,0.0,0.0,0.0,0.0,0.0,0.0,0.0,0.0,0.0,0.0,0.0,0.0,0.0,0.0,0.0,-4.7703,-4.7821,-4.8172,-4.8172,-4.8055,-4.7703,-4.6849,-4.6502,-4.6661,-4.6078,-4.6765,-4.8526,-4.9692,-5.088,-5.191,-5.4645,-5.583,-5.5857,-5.5857,-5.5883,-5.5909,-5.5527,-5.4918,-5.392,-5.1774,-5.0087,-4.8401,-4.6547,-4.4914,-4.3462,0.0,0.0,0.0,0.0,0.0,0.0,0.0,0.0,0.0,0.0,0.0,0.0,0.0,0.0085,-0.8932,-1.1579,-2.4017,0.0,0.0,0.0,0.0,0.0,0.0,0.0,-3.2143,-3.1498,-3.2076,-3.4105,-3.3885,-3.5047,-3.7617,-3.875,-3.9247,-3.8945,-3.7637,-3.5821,-3.3728,-3.3219,-3.3364,-3.4149,-3.4122,-3.4073,-3.3904,-3.2039,-3.1822,-3.2377,-3.1863,-3.2562,-3.4094,-3.6344,-3.6805,-3.6501,-3.6961,-3.6291,-3.4922,-3.3042,-3.3003,-3.391,0.0,0.0,0.0,-4.2676,-4.3921,-4.4424,0.0,0.0,0.0,0.0,0.0,0.0,0.0,0.0,0.0,0.0,0.0,0.0,0.0,0.0,0.0,0.0,0.0,0.0,0.0,0.0,0.0,0.0,0.0,-4.756,-4.8172,-4.8172,-4.7821,-4.7087,-4.6465,-4.592,-4.5015,-4.5515,-4.6319,-4.7686,-5.0023,-5.1816,-5.2953,-5.4537,-5.5669,-5.6184,-5.5429,-5.5325,-5.5423,-5.3798,-5.2673,-5.1649,-4.9381,-4.7797,-4.6452,-4.4888,-4.3955,-4.3125,0.0,0.0,0.0,0.0,0.0,0.0,0.0,0.0,2.8961,2.3082,0.0,0.0,0.0,0.0,-1.4981,-2.2879,-3.0006,-3.3285,-3.1335,-2.9928,0.0,0.0,0.0,0.0,-3.431,-3.2772,-3.2456,-3.3508,-3.2183,-3.2647,-3.4765,-3.6387,-3.7544,-3.8265,-3.8854,-3.8215,-3.6557,-3.6297,-3.6632,-3.7386,-3.6805,-3.6301,-3.5707,-3.4126,-3.393,-3.4308,-3.4313,-3.5479,-3.7305,-3.9274,-3.9396,-3.8624,-3.8131,-3.5658,-3.2605,-3.0341,-3.0188,-3.0842,-3.157,0.0,0.0,0.0,0.0,-3.8503,-3.8415,0.0,0.0,0.0,0.0,0.0,0.0,0.0,0.0,0.0,0.0,0.0,0.0,0.0,0.0,0.0,0.0,0.0,0.0,0.0,0.0,0.0,0.0,0.0,-4.8172,-4.7938,-4.7163,-4.6016,-4.5822,-4.5339,-4.4302,-4.51,-4.6001,-4.7027,-4.9889,-5.1854,-5.2829,-5.404,-5.4893,-5.5339,-5.3978,-5.374,-5.4286,-5.2108,-5.0588,-4.9455,-4.7094,-4.5633,-4.4627,-4.3507,-4.2639,-4.2234,0.0,0.0,0.0,0.0,0.0,0.0,0.0,0.0,2.7959,2.0809,0.0,0.0,0.0,0.0,0.0,-3.6174,-3.6242,-3.4275,-3.1384,-3.0782,0.0,0.0,0.0,0.0,-3.5144,-3.3499,-3.2406,-3.1873,-3.0397,-3.0319,-3.1501,-3.4171,-3.6529,-3.8577,-4.052,-4.0427,-3.8819,-3.8249,-3.8556,-3.9536,-3.9247,-3.7668,-3.5737,-3.7016,-3.6936,-3.625,-3.7382,-3.9861,-4.256,-4.2011,-4.2911,-4.3471,-3.9532,-3.4842,-3.0468,-2.8344,-2.7888,-2.8018,0.0,0.0,0.0,0.0,0.0,0.0,0.0,0.0,0.0,0.0,0.0,0.0,0.0,0.0,0.0,0.0,0.0,0.0,0.0,0.0,0.0,0.0,0.0,0.0,0.0,0.0,0.0,0.0,-4.7087,-4.7442,-4.8055,-4.7205,-4.6016,-4.4563,-4.4701,-4.472,-4.4635,-4.4732,-4.5622,-4.6931,-4.918,-5.0765,-5.1771,-5.3128,-5.3742,-5.3472,-5.1506,-5.1423,-5.2362,-5.0638,-4.8756,-4.7005,-4.4991,-4.3694,-4.2982,-4.2116,-4.1164,-4.0279,0.0,0.0,0.0,0.0,0.0,3.4859,3.3202,3.0561,2.5883,0.0,0.0,0.0,-0.4657,-1.8205,-2.9441,-3.6128,-3.56,-3.3834,-3.1341,-3.0821,-3.0878,-3.1528,-3.2844,-3.3697,-3.3892,-3.2507,-3.0891,-2.9188,-2.7987,-2.8014,-2.9274,-3.1216,-3.3943,-3.7141,-3.9304,-4.0579,-4.1044,-4.0531,-4.1424,-4.2976,-4.1057,-4.0866,-4.1702,-4.2047,-4.2515,-4.338,-4.5917,-4.7535,-4.8421,-4.9229,-4.782,-4.4697,-3.8068,-3.2842,-2.8975,-2.8232,-2.7371,-2.6723,-2.6474,0.0,0.0,0.0,0.0,0.0,0.0,0.0,0.0,0.0,0.0,0.0,0.0,0.0,0.0,0.0,0.0,0.0,0.0,0.0,0.0,0.0,0.0,0.0,0.0,0.0,0.0,0.0,-4.489,-4.5379,-4.613,-4.5527,-4.4924,-4.4182,-4.4426,-4.4612,-4.4732,-4.5736,-4.6813,-4.7987,-5.058,-5.1888,-5.1913,-5.3189,-5.2909,-5.1481,-4.9332,-4.7922,-4.6907,-4.6771,-4.5806,-4.442,-4.3529,-4.257,-4.1661,-4.1482,-4.0928,-4.0279,0.0,0.0,3.4155,3.4433,3.4015,3.2805,3.0338,2.4876,1.8556,0.0,0.0,0.0,-1.3508,-2.4771,-3.2361,-3.4111,-3.3254,-3.1727,-2.9695,-2.9631,-2.981,-3.0162,-3.161,-3.2404,-3.231,-3.1099,-2.9685,-2.8115,-2.7075,-2.7222,-2.8394,-3.0388,-3.2947,-3.5937,-3.8139,-3.9768,-4.0815,-4.0442,-4.1816,-4.4127,-4.3273,-4.3684,-4.4935,-4.6065,-4.7091,-4.8228,-5.1089,-5.2725,-5.3549,-5.3761,-5.0299,-4.4657,-3.8238,-3.345,-3.0049,-2.8569,-2.7767,-2.7125,-2.6406,-2.6088,-2.5738,-2.4927,0.0,0.0,-2.5578,-2.736,0.0,0.0,0.0,0.0,0.0,0.0,0.0,0.0,0.0,0.0,0.0,0.0,0.0,0.0,0.0,0.0,0.0,-4.4451,-4.4451,-4.4767,-4.489,-4.5012,-4.4984,-4.4888,-4.463,-4.4193,-4.4838,-4.5233,-4.5393,-4.6538,-4.7482,-4.8079,-5.0032,-5.0809,-5.0513,-5.0638,-4.9987,-4.8447,-4.641,-4.4712,-4.3512,-4.3593,-4.3107,-4.2544,-4.2071,-4.1525,-4.0851,-4.089,-4.0471,-3.9757,0.0,0.0,3.6458,3.6094,3.2748,2.8895,2.5104,1.6115,0.8348,0.0,-0.1475,-0.8796,-1.8248,-2.6875,-3.1771,-3.1207,-3.0063,-2.8732,-2.7129,-2.7493,-2.7712,-2.7867,-2.9318,-3.0189,-3.0367,-2.9454,-2.8579,-2.779,-2.7055,-2.7222,-2.835,-3.0825,-3.2977,-3.4942,-3.6817,-3.8052,-3.8788,-3.8827,-4.0698,-4.3838,-4.5391,-4.6231,-4.6781,-4.9655,-5.1158,-5.1961,-5.4448,-5.6499,-5.7728,-5.598,-5.0803,-4.4149,-3.9197,-3.5413,-3.2331,-2.9319,-2.8602,-2.8509,-2.7194,-2.5828,-2.4794,-2.4266,-2.293,0.0,-2.3408,-2.4897,-2.6765,0.0,0.0,0.0,0.0,0.0,0.0,0.0,0.0,0.0,0.0,0.0,0.0,0.0,0.0,0.0,-4.5135,-4.4277,-4.4157,-4.5683,-4.5565,-4.5134,-4.4436,-4.4829,-4.5005,-4.4681,-4.5622,-4.6173,-4.6288,-4.7183,-4.762,-4.7551,-4.8192,-4.8282,-4.7844,-4.692,-4.6027,-4.5061,-4.3235,-4.2225,-4.156,-4.0907,-4.093,-4.1098,-4.0923,-4.0581,-4.0464,-4.0382,-3.9949,-3.9341,3.6386,3.625,3.4825,3.1648,2.8009,2.2817,1.4881,0.6413,0.1182,0.1832,-0.5919,-1.2491,-1.5107,-2.53,-3.1454,-3.0338,-2.8029,-2.6519,-2.6135,-2.466,-2.4801,-2.6956,-2.7617,-2.8099,-2.8447,-2.8213,-2.7341,-2.5803,-2.6181,-2.7066,-2.8498,-3.0187,-3.2054,-3.4031,-3.5521,-3.6075,-3.6022,-3.7704,-4.0501,-4.3954,-4.5635,-4.8261,-5.1424,-5.4226,-5.614,-5.7657,-6.0441,-6.1229,-6.0203,-5.4774,-4.9798,-4.486,-3.8773,-3.5156,-3.2783,-3.0299,-2.9489,-2.9194,-2.8261,-2.7231,-2.6084,-2.4004,-2.2948,0.0,-2.2681,-2.4231,-2.6317,0.0,0.0,0.0,0.0,0.0,0.0,0.0,0.0,0.0,0.0,0.0,0.0,0.0,0.0,0.0,-4.3381,-4.3476,-4.3168,-4.2086,-4.2372,-4.2777,-4.3309,-4.3794,-4.451,-4.5186,-4.5806,-4.6518,-4.7344,-4.7528,-4.7271,-4.6717,-4.7836,-4.7274,-4.5169,-4.5513,-4.4742,-4.3136,-4.2185,-4.1353,-4.0758,-4.0267,-4.0098,-4.037,-4.0395,-4.0253,-3.9891,-3.9765,-3.9713,-3.9625,3.8054,3.7819,3.6021,3.1317,2.4875,1.7639,0.9479,-0.1198,-0.6099,0.0245,-0.625,-1.0469,-0.7852,-2.0948,-2.9041,-2.6649,-2.5441,-2.4641,-2.4378,-2.4401,-2.4955,-2.6226,-2.7018,-2.7679,-2.8127,-2.7704,-2.7183,-2.6602,-2.7114,-2.8145,-2.9834,-3.0881,-3.2683,-3.4935,-3.4713,-3.4881,-3.5494,-3.6808,-3.9596,-4.3355,-4.6575,-5.0479,-5.4646,-5.7316,-5.9375,-6.1042,-6.2069,-6.0663,-5.7433,-5.2042,-4.7334,-4.3076,-3.8542,-3.5562,-3.3525,-3.1991,-3.1253,-3.0726,-2.9807,-2.8796,-2.7473,-2.5482,-2.4426,0.0,0.0,-2.5294,-2.7059,-2.9425,0.0,0.0,0.0,0.0,0.0,0.0,0.0,0.0,0.0,0.0,0.0,0.0,0.0,0.0,-4.3266,-4.2538,-4.1895,-4.1582,-4.2257,-4.2875,-4.328,-4.3663,-4.4275,-4.5051,-4.5714,-4.6242,-4.6495,-4.6378,-4.5989,-4.5347,-4.5497,-4.4829,-4.3302,-4.3481,-4.2856,-4.1614,-4.107,-4.0622,-4.015,-3.9918,-3.9705,-3.9698,-3.959,-3.9476,-3.94,-3.9368,-3.9343,-3.9433,3.9696,3.94,3.7308,3.1351,2.2236,1.3038,0.4772,-0.7835,-1.2624,-0.2203,-0.7456,-0.9471,-0.2462,-1.7774,-2.7482,-2.4638,-2.4377,-2.4382,-2.4215,-2.5501,-2.6245,-2.6116,-2.7011,-2.7691,-2.817,-2.7399,-2.7348,-2.8119,-2.8412,-2.9443,-3.1321,-3.1861,-3.3449,-3.5755,-3.4164,-3.4211,-3.5563,-3.6348,-3.8953,-4.3036,-4.7427,-5.1841,-5.6139,-5.8953,-6.0783,-6.1721,-6.0572,-5.7242,-5.281,-4.8666,-4.4608,-4.0855,-3.8044,-3.5991,-3.4293,-3.3467,-3.2903,-3.2427,-3.1367,-3.0162,-2.8946,-2.7432,-2.6409,-2.5786,0.0,0.0,0.0,-3.0688,0.0,0.0,0.0,0.0,0.0,0.0,0.0,0.0,0.0,0.0,0.0,0.0,0.0,0.0,-4.3087,-4.1468,-4.0814,-4.204,-4.2742,-4.3088,-4.3332,-4.3872,-4.4278,-4.4778,-4.5531,-4.5576,-4.5071,-4.4617,-4.4089,-4.3355,-4.2753,-4.2192,-4.1543,-4.1472,-4.1091,-4.0595,-4.0363,-4.013,-3.9919,-3.9919,-3.9684,-3.9308,-3.893,-3.8867,-3.9142,-3.9153,-3.9117,-3.9087,4.0103,3.9157,3.5902,2.806,1.9254,0.9291,-0.2755,-1.3825,-1.7283,-0.7588,-1.5098,-1.718,-0.6093,-2.0326,-3.042,-2.9987,-2.8127,-2.7528,-2.8843,-2.7956,-2.7381,-2.7557,-2.7213,-2.7163,-2.7484,-2.711,-2.7373,-2.8456,-2.9035,-3.0254,-3.205,-3.2378,-3.3195,-3.4379,-3.3879,-3.4053,-3.4802,-3.6451,-3.9722,-4.4168,-4.7301,-5.0779,-5.4531,-5.849,-5.9276,-5.7935,-5.5247,-5.2087,-4.8699,-4.5089,-4.2625,-4.0327,-3.6788,-3.5686,-3.5189,-3.3219,-3.3309,-3.357,-3.1911,-3.1266,-3.0536,-2.8634,-2.8169,-2.8343,-2.844,0.0,-3.0615,-3.1863,0.0,0.0,0.0,0.0,0.0,0.0,0.0,0.0,0.0,0.0,0.0,0.0,0.0,0.0,0.0,-4.0036,-4.0114,-4.1535,-4.1602,-4.1961,-4.2816,-4.3959,-4.4549,-4.4778,-4.4844,-4.4409,-4.364,-4.3249,-4.2051,-4.0136,-4.1088,-4.0834,-3.9383,-4.0384,-4.0642,-4.0223,-4.0479,-4.0479,-4.0106,-4.0106,-4.0013,-3.9684,-3.9049,-3.8867,-3.9097,-3.8798,-3.8759,-3.8864,3.8941,3.8723,3.5231,2.545,1.7471,0.7821,-0.582,-1.2944,-1.6125,-1.4381,-1.8189,-1.9415,-1.521,-2.7232,-3.5582,-3.5436,-3.4663,-3.3956,-3.3147,-3.2645,-3.2101,-3.1414,-3.0047,-2.9452,-2.9809,-2.8396,-2.8298,-2.9512,-2.9738,-3.07,-3.229,-3.1965,-3.3064,-3.5288,-3.4222,-3.4676,-3.6237,-3.7582,-3.924,-4.1336,-4.4139,-4.6085,-4.807,-5.5044,-5.5483,-5.2137,-4.9916,-4.6355,-4.2501,-4.0694,-3.8753,-3.714,-3.6144,-3.5329,-3.4598,-3.4428,-3.3965,-3.3202,-3.2405,-3.2206,-3.1965,-3.13,-3.143,-3.1828,-3.2301,-3.331,-3.4178,0.0,0.0,0.0,0.0,0.0,0.0,0.0,-3.6218,0.0,0.0,0.0,0.0,0.0,0.0,0.0,0.0,0.0,0.0,0.0,-4.0204,-4.0762,-4.1636,-4.2537,-4.2867,-4.2623,-4.2548,-4.207,-4.1022,-4.0669,-3.9968,-3.9053,-3.9337,-3.9423,-3.9362,-3.9575,-3.9836,-4.0006,-4.0121,-4.008,-3.9896,-3.9779,-3.9544,-3.919,-3.8716,-3.8612,-3.8716,-3.8376,-3.8371,-3.8532,3.6971,3.7498,3.437,2.3964,1.5552,0.4473,-1.2902,-1.7807,-2.0144,-2.1941,-2.5033,-2.6666,-2.5701,-3.5337,-4.2024,-4.2327,-4.2076,-4.1016,-3.8746,-3.8319,-3.7466,-3.6104,-3.3156,-3.1744,-3.2167,-2.9554,-2.8933,-3.0391,-3.0559,-3.1538,-3.2976,-3.2244,-3.3445,-3.6224,-3.5126,-3.5859,-3.8106,-3.9061,-3.9612,-3.9877,-4.1949,-4.2543,-4.3001,-4.9635,-4.9615,-4.5987,-4.4386,-4.1028,-3.734,-3.7014,-3.595,0.0,-3.5468,-3.5002,-3.4155,0.0,0.0,0.0,-3.2833,0.0,0.0,0.0,0.0,0.0,0.0,0.0,0.0,0.0,0.0,0.0,0.0,0.0,0.0,-3.4869,0.0,-3.6013,0.0,0.0,0.0,0.0,0.0,0.0,0.0,0.0,0.0,0.0,0.0,-3.8931,-3.9685,-4.0365,-4.0502,-4.0118,-3.9982,-3.9264,-3.8149,-3.7893,-3.7698,-3.7451,-3.7791,-3.8372,-3.9062,-3.9181,-3.9443,-3.9712,-3.9831,-3.9797,-3.9476,-3.938,-3.9072,-3.8693,-3.8358,-3.8261,-3.8305,-3.8155,-3.8043,-3.8051,3.416,3.511,3.2954,2.4041,1.3235,-0.2627,-2.7674,-3.3577,-3.3852,-3.0228,-3.9091,-4.323,-3.6651,-4.3863,-4.9816,-5.1338,-4.9875,-4.8135,-4.6325,-4.4732,-4.3065,-4.1265,-3.5996,-3.3268,-3.3643,-3.0137,-2.9048,-3.0583,-3.1481,-3.2825,-3.4633,-3.3819,-3.4623,-3.6682,-3.6409,-3.7693,-3.9981,-4.0816,-4.1371,-4.1768,-4.2121,-4.1877,-4.1511,0.0,-4.1399,-3.9857,-3.8447,0.0,0.0,-3.5008,-3.4919,0.0,0.0,0.0,0.0,0.0,0.0,0.0,0.0,0.0,0.0,-3.5699,0.0,0.0,0.0,0.0,-3.9043,0.0,0.0,0.0,0.0,-3.4562,-3.3643,-3.3949,-3.465,0.0,0.0,0.0,0.0,0.0,0.0,0.0,0.0,0.0,0.0,0.0,-3.6049,0.0,-3.6853,-3.7695,-3.8037,-3.7686,-3.7144,-3.6307,-3.5457,-3.5178,-3.4913,-3.4668,-3.6584,-3.7478,-3.7612,-3.8927,-3.9498,-3.9213,-3.9688,-3.9333,-3.8573,-3.9078,-3.8953,-3.838,-3.7998,-3.7878,-3.7878,-3.79,-3.7659,-3.7549,3.2712,3.3695,3.1364,2.1792,1.357,-0.0611,-2.7103,-3.5431,-3.9336,-4.1131,-4.5894,-4.9657,-5.1058,-5.4328,-5.6636,-5.7281,-5.629,-5.4401,-5.1489,-4.8764,-4.6996,-4.637,-3.9796,-3.6691,-3.7667,-3.3707,-3.216,-3.3507,-3.4133,-3.5243,-3.6798,-3.6043,-3.6255,-3.7358,-3.7696,-3.7934,-3.8283,-4.0039,-3.9671,0.0,0.0,-3.7154,-3.7732,0.0,-3.8817,-3.5976,-3.5499,-3.4024,0.0,-3.3962,-3.481,-3.5118,-3.5432,-3.604,-3.6611,-3.584,-3.6155,-3.6742,0.0,0.0,-3.9032,-3.9474,0.0,0.0,0.0,0.0,0.0,0.0,0.0,0.0,0.0,-3.4504,-3.4008,-3.3662,-3.4055,-3.3934,0.0,0.0,0.0,0.0,0.0,0.0,0.0,0.0,0.0,0.0,-3.393,0.0,0.0,-3.5488,-3.5711,-3.5176,-3.5002,-3.4405,-3.3595,-3.3748,-3.366,-3.3312,-3.4549,-3.568,-3.6563,-3.6965,-3.7628,-3.8312,-3.8854,-3.8801,-3.8225,-3.8512,-3.8477,-3.7998,-3.7758,-3.7616,-3.7616,-3.7616,-3.7495,-3.7505,3.2302,3.345,3.102,2.061,0.9153,-0.6629,-3.044,-3.7449,-4.1638,-4.6185,-4.9756,-5.3751,-5.8663,-6.0313,-6.1256,-6.1816,-6.1378,-5.9532,-5.5961,-5.3478,-5.1715,-5.0809,-4.4235,-4.1112,-4.2116,-3.7624,-3.5882,-3.7083,-3.7281,-3.8152,-3.9658,-3.7954,-3.7741,-3.8736,-3.8313,-3.8,-3.79,-3.9451,-3.8662,0.0,0.0,-3.4709,0.0,0.0,-3.6199,-3.3211,0.0,-3.2549,-3.1856,-3.3661,-3.4852,-3.5773,-3.6663,-3.7506,-3.8008,-3.7461,-3.805,-3.8619,-3.8523,-3.9805,0.0,-4.1432,-4.1813,0.0,-4.0946,0.0,-3.8783,0.0,0.0,0.0,0.0,-3.3752,-3.2991,-3.3118,-3.2984,-3.2331,0.0,-2.9592,0.0,0.0,0.0,0.0,0.0,0.0,-3.0836,-3.1547,-3.1179,0.0,0.0,0.0,-3.2552,-3.2316,-3.2416,-3.2275,-3.1934,-3.2084,-3.2255,-3.2405,-3.3309,-3.4325,-3.5199,-3.5787,-3.6441,-3.7223,-3.7979,-3.8042,-3.7627,-3.8005,-3.7963,-3.7758,-3.7495,-3.7374,-3.7374,-3.7495,-3.7835,-3.8108,3.291,3.3949,3.1164,1.975,0.023,-1.9739,-3.7217,-3.9927,-4.1518,-4.5867,-5.1291,-5.6102,-5.9672,-6.1967,-6.374,-6.4969,-6.5029,-6.3461,-5.9825,-5.862,-5.6992,-5.457,-4.9139,-4.629,-4.6649,-4.1984,-4.0157,-4.1309,-4.0991,-4.1624,-4.3093,-3.9753,-3.9082,-4.0598,-3.8447,-3.8017,-3.8761,-3.8981,-3.8404,-3.7112,-3.579,-3.4426,-3.3329,-3.426,-3.3385,-3.1715,-3.1559,-3.1854,-3.2538,-3.4246,-3.5333,-3.6344,-3.8026,-3.8508,-3.8573,-3.843,-4.0059,-4.1359,-3.9285,-4.1529,-4.391,-4.1383,-4.1559,0.0,0.0,0.0,-3.7715,0.0,0.0,0.0,0.0,0.0,-3.1086,-3.203,-3.1437,-3.0282,-2.8847,0.0,0.0,0.0,0.0,0.0,0.0,-2.8455,-2.8096,-2.8678,-2.7783,0.0,0.0,0.0,-2.8871,-2.9137,-2.9473,-2.9887,-3.0349,-3.0599,-3.1058,-3.1734,-3.279,-3.3464,-3.377,-3.5436,-3.5991,-3.584,-3.7049,-3.7221,-3.6901,-3.7394,-3.7532,-3.7374,-3.7374,-3.7374,-3.7495,-3.778,-3.8498,-3.9147,3.4431,2.9675,2.1462,0.841,-0.6148,-1.9727,-3.0765,-3.7864,-4.3857,-4.9241,-5.5025,-5.9539,-6.1868,-6.4078,-6.5296,-6.5043,-6.5085,-6.4333,-6.2362,-6.0268,-5.8703,-5.792,-5.2497,-4.9953,-5.0788,-4.7664,-4.6388,-4.7035,-4.6749,-4.6568,-4.6404,-4.3399,-4.1399,-3.9961,-3.7826,-3.5928,-3.4472,-3.5244,-3.5586,-3.535,-3.4187,-3.3861,-3.3992,0.0,-3.4026,-3.4642,-3.3569,-3.3411,-3.3963,-3.5281,-3.6445,-3.7481,-3.8486,-3.928,-3.9623,-3.9656,-4.0368,-4.1112,-4.0489,-4.1439,-4.2262,-4.0556,-4.0485,-4.0184,0.0,0.0,0.0,0.0,0.0,0.0,0.0,0.0,0.0,-3.0301,-2.9266,-2.8243,-2.7418,0.0,0.0,-2.62,0.0,0.0,0.0,-2.6753,-2.6738,-2.7172,-2.703,0.0,0.0,0.0,0.0,-2.8567,-2.8985,-2.9606,-3.0477,-3.0095,-3.0307,-3.1084,-3.1317,-3.2146,-3.3268,-3.4235,-3.5007,-3.584,-3.7049,-3.7356,-3.7154,-3.7511,-3.7651,-3.7758,-3.7495,-3.7495,-3.7802,-3.8033,-3.8196,-3.8459,3.5479,2.6563,1.5586,0.5056,-0.8143,-2.0114,-2.875,-3.6658,-4.3843,-4.9977,-5.6153,-6.0547,-6.1975,-6.4941,-6.6593,-6.6157,-6.6602,-6.6081,-6.4159,-6.3031,-6.1519,-5.9423,-5.6223,-5.478,-5.5446,-5.3062,-5.1977,-5.2305,-5.0439,-4.8882,-4.7417,-4.3338,-4.0251,-3.8023,0.0,-3.3363,-3.1411,-3.2148,-3.2609,-3.2799,-3.2497,-3.2777,0.0,-3.3873,-3.4556,-3.5455,-3.5653,-3.5992,-3.6406,-3.6779,-3.7536,-3.8444,-3.8809,-3.9352,-3.9956,-3.9997,-4.0403,-4.0782,-3.9955,-4.0132,-4.0098,-3.838,-3.7667,-3.6897,-3.5064,-3.3801,-3.2771,0.0,-3.1852,-3.1537,0.0,0.0,0.0,-2.8748,-2.7609,-2.6889,-2.6574,0.0,0.0,0.0,-2.5564,0.0,0.0,-2.5521,-2.5609,-2.5658,-2.5678,0.0,0.0,0.0,0.0,-2.7607,-2.8418,-2.9132,-2.9806,-2.9905,-3.024,-3.0632,-3.083,-3.1508,-3.2749,-3.3504,-3.4445,-3.5268,-3.6466,-3.6901,-3.6815,-3.7081,-3.7339,-3.7352,-3.7429,-3.7616,-3.7824,-3.7551,-3.7978,-3.8547,3.5793,2.4801,1.3355,0.6337,-0.7888,-2.1245,0.0,-3.651,0.0,-5.0033,0.0,-6.0783,-6.1735,-6.5326,-6.7751,-6.7943,-6.8717,-6.8242,-6.5878,-6.6044,-6.4439,-6.0412,-5.981,-5.958,-5.9761,-5.771,-5.6545,-5.6436,-5.2448,-4.9224,-4.6618,-4.111,-3.7275,0.0,0.0,0.0,0.0,-2.9579,-2.9945,-3.0296,-3.0859,-3.1579,-3.2539,-3.4105,-3.4882,-3.5458,-3.7228,-3.8188,-3.8629,-3.8212,-3.8565,-3.9198,-3.8886,-3.9049,-3.9471,-3.9634,-3.9994,-3.9879,-3.8189,-3.7855,-3.7475,-3.5328,-3.4149,-3.3301,-3.2471,-3.1842,-3.1289,-3.1135,-3.1026,-3.0922,-3.0814,0.0,0.0,0.0,0.0,0.0,0.0,0.0,0.0,0.0,0.0,0.0,0.0,0.0,0.0,0.0,0.0,0.0,0.0,0.0,0.0,-2.6651,-2.7717,-2.8598,-2.9042,-2.9821,-3.0278,-3.0507,-3.083,-3.1423,-3.234,-3.3291,-3.4098,-3.4692,-3.5708,-3.6223,-3.6162,-3.6541,-3.6611,-3.6589,-3.7221,-3.7374,-3.744,-3.6724,-3.7399,-3.8516,3.3809,2.6229,1.7147,0.7439,-0.9342,-2.4182,-3.2281,-3.8639,-4.5417,-5.3509,-5.9622,-6.3727,-6.5172,-6.7307,-6.8963,-6.9667,-6.9869,0.0,-6.9091,0.0,0.0,-6.3224,-6.1623,-6.0924,-6.1163,-5.9532,-5.815,-5.7019,-5.2823,-4.8351,-4.3666,-3.9301,-3.4978,0.0,0.0,0.0,-2.6758,-2.7377,0.0,-2.9164,-2.9709,-3.0737,-3.1973,-3.2942,-3.4624,-3.6661,-3.7215,-3.7659,-3.8059,-3.8179,-3.8341,-3.8447,-3.8666,-3.8278,-3.7821,-3.8313,-3.7742,-3.6671,-3.5722,-3.5059,-3.4108,-3.2043,-3.1829,-3.1941,-3.1152,-3.0593,-3.0409,-3.1344,-3.0583,-2.9806,-2.9997,0.0,0.0,0.0,0.0,0.0,0.0,0.0,0.0,0.0,0.0,-2.4603,0.0,0.0,0.0,0.0,0.0,0.0,0.0,0.0,0.0,0.0,-2.7087,0.0,0.0,0.0,-2.9522,-3.0507,-3.0579,-3.1309,-3.2642,-3.3265,-3.4203,-3.5268,-3.573,-3.6135,-3.6522,-3.5851,-3.5627,-3.5806,-3.6989,-3.6646,-3.5418,-3.5851,-3.5915,-3.5783,3.1836,2.2893,1.203,-0.0959,-1.6352,0.0,0.0,-4.4555,-5.0244,-5.5536,-6.0655,-6.4237,-6.5471,-6.8375,-7.0447,-7.0892,-7.1679,-7.1638,-7.0439,-6.8438,-6.5905,-6.2871,-6.1264,-6.0451,-6.0467,-5.8704,-5.7144,-5.5836,-5.0786,-4.5487,-3.9897,-3.549,0.0,-2.6843,0.0,-2.4618,0.0,0.0,0.0,-2.7541,-2.8411,-2.991,-3.1888,-3.2811,-3.4499,-3.6464,-3.6895,-3.7286,-3.7609,-3.7746,-3.7998,-3.8013,-3.7284,-3.6763,-3.6319,-3.6111,-3.5283,-3.4193,-3.3078,-3.2253,-3.1437,-3.0049,-2.9929,-2.9947,-2.9702,-2.9728,-2.9914,-3.01,-3.0102,-2.9784,-2.8791,-2.7943,0.0,0.0,0.0,0.0,0.0,0.0,-2.5636,0.0,0.0,0.0,0.0,0.0,0.0,0.0,0.0,0.0,0.0,0.0,-2.5501,0.0,0.0,0.0,-2.8721,0.0,-2.943,-2.9942,-3.0536,-3.1499,-3.2771,-3.3285,-3.3898,-3.4692,-3.529,-3.5313,-3.4771,-3.4699,-3.4924,-3.5453,-3.5928,-3.5767,-3.5149,-3.4507,-3.4147,-3.3946,2.9411,1.7786,0.4626,-0.9862,-2.382,-3.6004,-4.4937,-5.1271,-5.5685,-5.7602,-6.1629,-6.4879,-6.6281,-6.9717,-7.1926,-7.2093,-7.304,-7.2755,-7.0668,-6.8184,-6.5105,-6.1316,-5.9526,-5.8592,-5.8458,-5.6263,-5.4306,-5.2677,-4.6989,-4.1194,0.0,-3.0848,0.0,0.0,0.0,0.0,0.0,0.0,-2.5615,-2.6692,-2.783,-2.9547,-3.145,-3.2537,-3.3884,-3.5112,-3.5613,-3.6084,-3.65,-3.6614,-3.714,-3.7486,-3.5812,-3.5274,-3.5065,-3.4078,-3.3078,-3.2066,-3.0808,-3.0041,-2.9415,-2.8855,-2.8581,-2.8581,-2.8932,-2.9279,-2.9463,-2.9117,-2.9555,-2.9488,-2.7796,-2.695,0.0,0.0,0.0,0.0,0.0,0.0,-2.5246,0.0,0.0,0.0,-2.3939,0.0,0.0,0.0,0.0,0.0,-2.3854,-2.4158,-2.501,0.0,0.0,-2.7369,-2.804,0.0,-2.9379,-2.9324,-3.0376,-3.1524,-3.2749,-3.3178,-3.3573,-3.4134,-3.4825,-3.4332,-3.2986,-3.372,-3.432,-3.4654,-3.4862,-3.4777,-3.4507,-3.3379,-3.2746,-3.2511,2.5878,1.2478,0.0,0.0,0.0,-4.2162,-5.1212,-5.725,-6.083,-6.0873,-6.4202,-6.7691,-7.0808,-7.2315,-7.329,-7.3642,-7.2728,-7.1435,-6.9823,-6.5165,-6.1676,-5.987,-5.6376,-5.4726,-5.5043,-5.2077,-4.9144,0.0,0.0,-3.5058,-2.9493,-2.6413,0.0,0.0,0.0,0.0,0.0,-2.4161,-2.5622,-2.7956,-2.8984,-2.9818,-3.0449,-3.1544,-3.2083,-3.2199,-3.2248,-3.3053,-3.4078,-3.4029,-3.5137,-3.6382,-3.5527,-3.47,-3.3997,-3.3212,-3.1809,-3.0348,-2.9767,-2.9045,-2.8531,-2.8488,-2.8581,-2.8932,-2.9555,-2.9279,-2.9024,-2.9624,-2.8702,-2.7734,-2.7104,-2.6754,-2.6168,0.0,0.0,0.0,0.0,0.0,-2.4533,-2.4471,0.0,0.0,0.0,-2.2167,0.0,0.0,-2.2596,0.0,-2.4156,-2.3985,-2.4535,-2.5896,-2.616,-2.6592,-2.7096,-2.7998,-2.8649,-2.9048,-2.9551,-3.0809,-3.2642,-3.2749,-3.3378,-3.4469,-3.4246,-3.3464,-3.2529,-3.3628,-3.3498,-3.2708,-3.4242,-3.3796,-3.2294,-3.2765,-3.2128,-3.1138,0.0,0.0,0.0,0.0,0.0,0.0,0.0,-5.9392,-6.2509,-6.3013,-6.5767,-6.8516,-7.0544,-7.151,-7.1602,-7.0622,-7.0052,-6.8574,-6.5879,-6.1389,-5.7562,-5.4815,-5.1627,-4.9585,-4.8903,-4.6688,-4.4318,0.0,0.0,-3.2824,-2.8053,-2.5344,0.0,0.0,0.0,-2.1748,-2.3339,-2.4384,-2.5612,-2.7041,-2.8179,-2.8936,-2.9467,-3.0499,-3.1149,-3.1613,-3.1898,-3.2723,-3.3648,-3.3553,-3.4221,-3.5112,-3.4481,-3.3781,-3.3087,-3.2022,-3.1029,-3.0251,-2.9502,-2.9146,-2.9023,-2.874,-2.8768,-2.8839,-2.9117,-2.9024,-2.8839,-2.9095,-2.8351,-2.7253,-2.6119,-2.5754,-2.529,-2.4392,0.0,0.0,0.0,0.0,0.0,-2.3448,0.0,-2.2899,0.0,0.0,0.0,0.0,0.0,0.0,-2.3297,-2.3384,0.0,-2.5026,0.0,-2.641,-2.7181,-2.8077,-2.8587,-2.8961,-2.9703,-3.0768,-3.2019,-3.2083,-3.248,-3.3119,-3.2207,-3.1732,-3.1465,-3.1801,-3.1891,-3.1703,-3.2478,-3.2302,-3.1635,-3.1635,-3.1249,-3.062,-1.5987,0.0,-2.9973,0.0,-4.5829,-5.2392,-5.8296,-6.1718,-6.391,-6.483,-6.5795,-6.7159,-6.91,-6.9517,-6.8827,-6.6889,-6.5893,-6.4046,-6.0884,-5.6515,-5.2694,-4.9684,-4.6971,0.0,-4.3905,-4.2103,-4.0184,-3.8091,-3.4375,-3.0554,-2.6845,-2.447,0.0,0.0,-2.1483,-2.2503,-2.375,-2.4886,-2.5962,-2.6786,-2.7809,-2.8507,-2.8964,-2.9781,-3.0431,-3.099,-3.1527,-3.2299,-3.3148,-3.3194,-3.352,-3.3941,-3.3697,-3.3047,-3.2256,-3.123,-3.0646,-3.0199,-2.9451,-2.9418,-2.948,-2.9001,-2.8964,-2.8943,-2.879,-2.8746,-2.8746,-2.8351,-2.76,-2.6532,-2.5392,-2.4967,-2.4603,-2.3783,0.0,0.0,0.0,-2.3236,0.0,-2.2659,-2.263,-2.2551,-2.2413,-2.203,0.0,0.0,0.0,0.0,0.0,0.0,0.0,0.0,0.0,0.0,-2.7146,-2.8074,-2.8553,-2.8818,-2.9662,-3.0433,-3.1232,-3.1366,-3.1493,-3.1767,-3.0723,-3.0372,-3.0528,-3.0629,-3.0785,-3.1106,-3.1132,-3.1121,-3.0991,-3.0732,-3.0361,-2.9839,-3.0046,-3.681,-4.3195,-5.0945,-5.46,-5.8178,-6.3705,-6.5192,-6.5864,-6.6522,-6.3731,-6.3187,-6.7111,-6.6718,-6.5307,-6.3166,-6.0217,-5.7488,-5.5044,-5.0257,-4.6839,0.0,0.0,-4.1367,-4.0872,-3.8871,-3.6892,-3.4848,0.0,0.0,-2.4973,0.0,-2.2363,-2.2756,-2.3483,-2.4368,-2.553,-2.5812,-2.6713,-2.8019,-2.8583,-2.8877,-2.909,-2.9365,-2.9631,-2.9965,-3.0489,-3.1084,-3.1823,-3.2595,-3.2833,-3.2946,-3.34,-3.27,-3.152,-3.104,-3.0507,-3.0019,-2.965,-2.9599,-2.9667,-2.9214,-2.9298,-2.9358,-2.8877,-2.8746,-2.8466,-2.7484,-2.6244,-2.5197,-2.4982,-2.4529,-2.3975,-2.3052,0.0,0.0,0.0,-2.2441,0.0,-2.2236,-2.2066,-2.1928,-2.1849,-2.1728,0.0,0.0,0.0,0.0,0.0,0.0,0.0,-2.4839,-2.5329,0.0,-2.6764,-2.7778,-2.835,-2.8488,-2.8931,-2.9586,-3.0376,-3.0589,-3.0754,-3.082,-3.0157,-2.9922,-2.9979,-3.0447,-3.068,-3.0754,-3.0811,-3.0602,-3.0213,-2.9952,-2.943,-2.8774,-5.2291,-5.3898,-5.5698,-5.9183,-5.9611,-6.0468,-6.3339,-6.2454,-6.1065,-5.9882,-5.7576,-5.5675,-5.4663,-5.6713,-5.7139,0.0,-5.2133,-4.9783,0.0,-4.423,-4.2194,-4.1845,-4.0068,-3.887,-3.839,-3.7366,-3.5466,-3.2848,0.0,0.0,0.0,-2.3764,-2.335,-2.3668,-2.4098,-2.4761,-2.5738,-2.6372,-2.7014,-2.7641,-2.8639,-2.869,-2.8488,-2.955,-3.0057,-3.0171,-3.0605,-3.1366,-3.2158,-3.2305,-3.2316,-3.2319,-3.242,-3.2218,-3.1688,-3.1046,-3.0799,-3.0794,-3.0321,-3.0392,-3.0373,-2.9589,-2.9393,-2.9263,-2.8177,-2.76,-2.6935,-2.5858,-2.5275,-2.4805,-2.4233,-2.3538,-2.2973,-2.2767,-2.2546,0.0,-2.202,0.0,-2.2473,-2.2795,-2.2422,-2.2486,-2.3289,-2.2426,0.0,0.0,0.0,0.0,0.0,0.0,0.0,0.0,-2.4986,0.0,-2.7232,-2.7722,-2.8084,-2.8404,-2.8542,-2.878,-2.9264,-2.9629,-2.9814,-2.9568,-2.9331,-2.8975,-2.8636,-2.8769,-2.9202,-2.9707,-2.9726,-2.9626,-2.9578,-2.943,-2.9036,-2.8527,-6.4482,-6.4209,-6.4037,-6.4851,-6.3119,-6.1657,-6.1725,-5.9235,-5.6372,-5.3722,-5.1345,-4.8827,-4.596,-4.6928,0.0,-4.7261,-4.5479,-4.3718,-4.2175,-4.0098,-3.8966,-3.9081,-3.8228,-3.7565,-3.7346,-3.6213,0.0,-3.2372,-2.9688,-2.6992,-2.4481,-2.42,-2.4277,-2.4714,-2.511,-2.5644,-2.6263,-2.6827,-2.7369,-2.7736,-2.8373,-2.8839,-2.9095,-2.992,-3.0554,-3.0871,-3.125,-3.1763,-3.2252,-3.2013,-3.194,-3.1812,-3.1812,-3.1812,-3.171,-3.1137,-3.1116,-3.1257,-3.0954,-3.107,-3.0974,-3.0209,-3.0013,-2.9645,-2.819,-2.6845,-2.5664,-2.4884,-2.451,-2.4016,-2.3138,-2.3038,-2.2775,-2.21,-2.2167,-2.2128,-2.1462,0.0,-2.2416,0.0,0.0,0.0,0.0,-2.3144,-2.2981,0.0,0.0,0.0,0.0,0.0,0.0,-2.4412,-2.4957,-2.5899,-2.7239,-2.7402,-2.7673,-2.7941,-2.7883,-2.8186,-2.8559,-2.8766,-2.8763,-2.8755,-2.8618,-2.8259,-2.7779,-2.7817,-2.8237,-2.8832,-2.872,-2.8768,-2.8922,-2.8774,-2.8378,-2.7865,-6.7465,-6.803,-6.7947,0.0,-6.4528,0.0,-5.8758,-5.527,-5.1682,-4.8085,-4.5145,-4.265,-4.0609,-3.803,-3.787,-4.1278,0.0,0.0,0.0,-3.7501,-3.687,-3.7184,-3.721,-3.7236,-3.7277,-3.5495,-3.3947,-3.2763,-2.8142,-2.5192,-2.397,-2.4431,-2.5025,-2.5703,-2.6207,-2.6592,-2.69,-2.7167,-2.7736,-2.8395,-2.8186,-2.9095,-3.0578,-3.0554,-3.1181,-3.1962,-3.1979,-3.1926,-3.1826,-3.172,-3.1617,-3.1483,-3.1607,-3.1629,-3.1527,-3.1322,-3.1424,-3.1607,-3.1586,-3.1564,-3.1455,-3.093,-3.0678,-3.0098,-2.8439,-2.6348,-2.4688,-2.4492,-2.3818,-2.2937,-2.1928,-2.2719,-2.2955,-2.1218,-2.196,-2.2317,-2.0977,-2.1669,-2.2157,0.0,0.0,0.0,-2.3043,-2.3743,-2.3992,0.0,0.0,0.0,0.0,0.0,-2.3251,-2.4762,-2.5238,-2.5873,-2.6745,-2.6898,-2.702,-2.7151,-2.7233,-2.7547,-2.8106,-2.7746,-2.7973,-2.8397,-2.802,-2.7779,-2.7418,-2.7415,-2.7685,-2.8094,-2.7794,-2.7916,-2.8263,-2.7882,-2.7499,-2.7232,0.0,0.0,-6.3462,-6.2335,-5.8728,-5.5131,-5.2397,-4.8293,-4.4643,-4.2067,-3.9677,-3.7565,-3.5981,-3.4847,-3.4241,-3.4406,-3.4515,-3.491,-3.5607,-3.4821,-3.5063,-3.689,-3.669,-3.6454,-3.632,-3.5201,-3.2818,-2.9161,-2.6832,-2.5354,-2.4692,-2.4575,-2.4827,-2.543,-2.6014,-2.6304,-2.6592,-2.7262,-2.7831,-2.8488,-2.9095,-2.9988,-3.0824,-3.0847,-3.1205,-3.1608,-3.0882,-3.048,-3.0398,-3.0899,-3.0874,-3.0643,-3.1396,-3.1629,-3.1629,-3.1527,-3.1527,-3.1542,-3.1171,-3.1061,-3.0865,-3.0035,-2.8646,-2.7247,-2.5957,-2.4881,-2.3935,-2.3438,-2.2736,-2.2232,-2.2636,-2.1795,-2.1345,-2.1761,-2.1543,-2.1252,-2.1033,-2.148,-2.2013,0.0,-2.291,-2.3553,-2.4367,-2.4302,-2.3985,0.0,0.0,0.0,-2.2656,-2.3184,-2.3859,-2.4782,-2.4863,-2.5411,-2.6467,-2.6187,-2.6132,-2.6299,-2.6191,-2.6532,-2.7211,-2.7079,-2.7176,-2.7435,-2.7315,-2.6935,-2.6432,-2.6411,-2.6844,-2.7444,-2.74,-2.7555,-2.7882,-2.8024,-2.7868,-2.7614,-6.2204,-6.069,-5.8574,-5.6312,-5.2116,-4.8158,-4.5551,-4.1904,-3.8865,-3.7016,-3.5568,-3.4275,-3.3148,-3.2821,-3.2463,-3.1761,-3.2201,-3.2947,-3.3872,-3.3596,-3.4259,-3.6096,-3.6095,-3.6082,-3.6082,-3.4448,-3.1494,-2.7274,-2.5974,-2.5216,-2.4941,-2.4843,-2.5137,-2.5528,-2.6014,-2.64,-2.6592,-2.7547,-2.8373,-2.9095,-2.9988,-3.0621,-3.1181,-3.1181,-3.127,-3.1252,-3.0605,-3.0319,-3.0264,-3.0756,-3.0556,-3.0413,-3.1309,-3.1476,-3.1323,-3.1564,-3.1455,-3.1192,-3.0712,-3.0581,-3.0351,-2.9559,-2.7688,-2.5977,-2.5385,-2.4262,-2.3256,-2.2535,-2.1928,-2.142,-2.1097,-2.0809,-2.0752,-2.0862,-2.1002,-2.0853,-2.0445,-2.098,-2.1551,-2.1983,-2.2553,-2.3299,-2.4251,-2.4272,-2.3998,-2.3649,-2.3564,0.0,-2.326,-2.38,-2.4271,-2.4598,-2.485,-2.5314,-2.5968,-2.5759,-2.5736,-2.5898,-2.5789,-2.6104,-2.6867,-2.6637,-2.6707,-2.7073,-2.683,-2.6327,-2.5855,-2.6003,-2.6411,-2.6807,-2.6858,-2.7247,-2.7499,-2.7868,-2.7861,-2.7725,-5.7877,-5.5609,-5.2823,-4.9548,-4.5338,-4.1515,-3.9127,-3.6536,-3.4383,-3.3275,-3.2698,-3.2176,-3.1625,-3.1737,-3.1673,-3.1407,-3.1849,-3.2445,-3.3341,-3.3469,-3.4086,-3.5414,-3.5678,-3.5713,-3.5748,-3.3187,-3.0077,-2.636,-2.5411,-2.4843,-2.4843,-2.5039,-2.5333,-2.5645,-2.6207,-2.6592,-2.6784,-2.7925,-2.9068,-3.0011,-3.0578,-3.1139,-3.1567,-3.1389,-3.121,-3.0807,-3.0626,-3.0526,-3.0471,-3.08,-3.0547,-3.0373,-3.1345,-3.128,-3.0952,-3.1302,-3.1061,-3.0603,-3.0297,-3.0003,-2.9483,-2.8598,-2.6903,-2.5434,-2.5233,-2.4072,-2.2736,-2.203,-2.142,-2.0806,-1.9657,-2.0241,-2.0573,-1.9794,-2.0479,-2.0841,-1.9881,0.0,-2.1051,-2.1149,-2.2108,-2.3125,-2.3667,-2.3947,-2.4034,-2.3754,-2.3754,-2.3827,-2.394,-2.4141,-2.4322,-2.4322,-2.489,-2.5267,-2.532,-2.5372,-2.5415,-2.5586,-2.5639,-2.601,-2.6549,-2.6093,-2.6253,-2.6745,-2.6294,-2.5839,-2.552,-2.5859,-2.6071,-2.6184,-2.6533,-2.6883,-2.7115,-2.7462,-2.7636,-2.7668,-4.9421,-4.7275,-4.4793,-4.1678,-3.937,-3.7186,-3.5114,-3.3454,-3.2277,-3.1737,-3.1205,-3.1026,-3.1294,-3.1205,-3.1205,-3.156,-3.2176,-3.3034,-3.3972,-3.368,-3.4195,-3.6071,-3.5702,-3.5077,-3.4296,-3.1139,-2.8236,-2.5489,-2.5118,-2.4745,-2.435,-2.4548,-2.4941,-2.543,-2.5917,-2.6764,-2.7809,-2.8351,-2.9338,-3.0441,-3.0376,-3.0742,-3.132,-3.0673,-3.0487,-3.0626,-3.0385,-3.0003,-2.9676,-3.0612,-3.0565,-3.0385,-3.1353,-3.128,-3.0843,-3.0515,-3.0078,-2.9773,-3.0122,-2.9,-2.7311,-2.5664,-2.4937,-2.4486,-2.3627,-2.3191,-2.2955,-2.2552,-2.1318,-2.0704,-2.2131,-2.0866,-2.0005,-2.1213,-2.0823,-2.0343,-1.9951,0.0,-2.1338,-2.1355,-2.2385,-2.3144,-2.3493,-2.358,-2.36,-2.358,-2.358,-2.3359,-2.2978,-2.3712,-2.3951,-2.3765,-2.4583,-2.4902,-2.4611,-2.4757,-2.4763,-2.4923,-2.525,-2.5343,-2.5235,-2.578,-2.5777,-2.5414,-2.5603,-2.5488,-2.5258,-2.5485,-2.5834,-2.6184,-2.6533,-2.6751,-2.6847,-2.7191,-2.7504,-2.7724,-4.3421,-4.1179,-3.8898,-3.6916,-3.5142,-3.3666,-3.2537,-3.1801,-3.1407,-3.1139,-3.096,-3.0871,-3.0937,-3.1205,-3.1567,-3.1961,-3.2921,-3.4063,-3.5325,-3.4726,-3.4752,-3.5898,-3.5274,-3.3707,-3.1328,-2.8984,-2.6873,-2.5118,-2.4529,-2.435,-2.435,-2.4871,-2.5248,-2.5528,-2.6348,-2.718,-2.7998,-2.8538,-2.9475,-3.0742,-3.0813,-3.102,-3.1292,-3.0914,-3.0628,-3.0408,-3.0504,-3.0231,-3.0024,-3.0939,-3.0752,-3.037,-3.1287,-3.128,-3.0908,-3.0952,-2.9667,-2.8338,-2.8572,-2.7221,-2.5548,-2.4688,-2.4097,-2.352,-2.3138,-2.2854,-2.2653,-2.203,-2.1318,-2.0845,-2.1042,-2.0392,-1.9894,-2.0388,-2.0188,0.0,-1.9563,-1.982,-2.0184,-2.0529,-2.1427,-2.2157,-2.2511,-2.2969,-2.3232,-2.3144,-2.3359,-2.3415,-2.3448,-2.3784,-2.3937,-2.3951,-2.4572,-2.476,-2.4597,-2.4676,-2.4751,-2.4812,-2.4889,-2.4935,-2.5208,-2.521,-2.5234,-2.5368,-2.5285,-2.5338,-2.5421,-2.5771,-2.612,-2.647,-2.6688,-2.6659,-2.6697,-2.6904,-2.7,-2.7123,-3.7974,-3.6136,-3.4446,-3.3524,-3.2339,-3.1472,-3.1139,-3.0984,-3.0894,-3.0894,-3.0871,-3.0871,-3.0937,-3.1472,-3.2098,-3.2808,-3.4089,-3.5412,-3.6732,-3.6132,-3.5789,-3.6004,-3.435,-3.1894,-2.8593,-2.7138,-2.5761,-2.4646,-2.4053,-2.4035,-2.4548,-2.5362,-2.5778,-2.5957,-2.6878,-2.7772,-2.8507,-2.8849,-2.9791,-3.1107,-3.1203,-3.1172,-3.124,-3.124,-3.0852,-3.0428,-3.0887,-3.0843,-3.0646,-3.1389,-3.1149,-3.0668,-3.1389,-3.12,-3.0874,-3.1244,-2.9225,-2.6962,-2.6962,-2.582,-2.459,-2.4196,-2.352,-2.2955,-2.2955,-2.2754,-2.2333,-2.1522,-2.1113,-2.0813,-2.014,-1.9948,-1.9878,-1.9718,0.0,-1.9487,-1.9196,-1.9088,-1.9271,-1.9712,-2.0619,-2.1248,-2.1606,-2.241,-2.2928,-2.277,-2.3062,-2.3423,-2.3653,-2.369,-2.3804,-2.409,-2.4499,-2.4703,-2.4555,-2.4734,-2.483,-2.4718,-2.4563,-2.4675,-2.5111,-2.4809,-2.4946,-2.5359,-2.5194,-2.531,-2.5659,-2.5881,-2.6229,-2.6577,-2.626,-2.6264,-2.6429,-2.6284,-2.6284,-2.6482,-3.2193,-3.1983,-3.172,-3.1199,-3.1201,-3.1294,-3.1318,-3.0937,-3.0668,-3.0668,-3.0397,-3.0668,-3.1801,-3.2152,-3.2882,-3.4515,-3.5839,-3.7013,-3.7849,-3.7907,-3.7558,-3.6816,-3.3047,-2.9806,-2.7223,-2.5799,-2.4707,-2.3854,-2.3854,-2.4035,-2.4529,-2.5547,-2.6348,-2.6784,-2.7565,-2.87,-2.9959,-2.9767,-3.0408,-3.1569,-3.1099,-3.0918,-3.0943,-3.0943,-3.0943,-3.0908,-3.1389,-3.1542,-3.152,-3.1607,-3.1586,-3.152,-3.1607,-3.1099,-3.0507,-3.0551,-2.8428,-2.609,-2.609,-2.5681,-2.4805,-2.3138,-2.2636,-2.2653,-2.2653,-2.2653,-2.2333,-2.1522,-2.0704,-2.0483,-2.1387,-2.0106,-1.9455,-2.0716,0.0,0.0,-1.892,-1.9363,-1.9712,-1.953,-2.0799,-2.1606,-2.1338,-2.2133,-2.2628,-2.2628,-2.2852,-2.2829,-2.2659,-2.2943,-2.3466,-2.407,-2.4158,-2.4279,-2.4555,-2.4734,-2.4718,-2.4384,-2.4704,-2.4563,-2.4072,-2.4736,-2.494,-2.4642,-2.496,-2.531,-2.5534,-2.5242,-2.5581,-2.6036,-2.504,-2.5052,-2.5592,-2.4931,-2.5271,-2.6055,-3.0424,-3.0699,-3.11,-3.1612,-3.124,-3.0937,-3.1294,-3.1026,-3.0847,-3.1026,-3.127,-3.2016,-3.3259,-3.3824,-3.4872,-3.6887,-3.809,-3.9032,-3.9733,-3.9002,-3.6968,-3.3617,-3.0341,-2.7692,-2.5489,-2.4473,-2.3818,-2.3755,-2.3737,-2.4233,-2.5314,-2.627,-2.6936,-2.7318,-2.8389,-2.9278,-2.9921,-2.9838,-3.059,-3.1703,-3.1108,-3.1108,-3.1345,-3.1345,-3.1345,-3.1367,-3.1564,-3.1331,-3.0867,-3.0867,-3.0694,-3.0256,-3.0256,-3.0149,-2.9899,-2.9657,-2.8202,-2.6626,-2.5929,-2.4727,-2.3438,-2.2736,-2.2653,-2.2653,-2.2653,-2.2653,-2.2552,-2.2131,-2.1827,-2.1659,-2.1845,-2.1164,-2.0541,-2.0483,0.0,-1.9268,-1.869,-1.8735,-1.8719,-1.8442,-1.9712,-2.0525,-2.0289,-2.1476,-2.2244,-2.2312,-2.2423,-2.2443,-2.2347,-2.2646,-2.298,-2.3313,-2.3459,-2.3871,-2.448,-2.4522,-2.4368,-2.4033,-2.3828,-2.3893,-2.4331,-2.4252,-2.4484,-2.4913,-2.5056,-2.5187,-2.5196,-2.4933,-2.4904,-2.4996,-2.4181,-2.4224,-2.4916,-2.4374,-2.4717,-2.55,-2.9774,-3.0494,-3.1283,-3.229,-3.1801,-3.1359,-3.1649,-3.1383,-3.1383,-3.1713,-3.2451,-3.3403,-3.4901,-3.5757,-3.7005,-3.9098,-3.9917,-4.038,-4.0538,-3.7652,-3.4366,-3.0802,-2.7979,-2.574,-2.3998,-2.342,-2.3238,-2.3655,-2.4035,-2.4707,-2.58,-2.6875,-2.7517,-2.783,-2.8742,-2.9311,-2.971,-2.971,-3.0361,-3.135,-3.1026,-3.1121,-3.1403,-3.1251,-3.1186,-3.1186,-3.1034,-3.0572,-3.0192,-3.0192,-2.9778,-2.9324,-2.9324,-2.9246,-2.9006,-2.8222,-2.7242,-2.619,-2.5058,-2.3533,-2.2333,-2.2552,-2.2535,-2.2434,-2.2434,-2.2333,-2.2232,-2.203,-2.1928,-2.1845,-2.1612,-2.1263,-2.0835,-2.0328,-1.9686,-1.9145,-1.8642,-1.8312,-1.8013,-1.7743,-1.8848,-1.9491,-1.9352,-2.0623,-2.1587,-2.1672,-2.1739,-2.1911,-2.2012,-2.2105,-2.2388,-2.2963,-2.3108,-2.3308,-2.368,-2.3921,-2.3921,-2.3585,-2.3135,-2.3371,-2.4156,-2.3685,-2.3956,-2.4734,-2.4595,-2.4589,-2.4605,-2.4043,-2.4009,-2.4088,-2.3133,-2.327,-2.3952,-2.3679,-2.4102,-2.4781,-3.006,-3.1122,-3.2027,-3.2893,-3.2821,-3.2673,-3.2438,-3.2176,-3.2215,-3.2857,-3.3656,-3.4901,-3.6852,-3.7854,-3.9204,-4.1141,-4.1267,-4.0738,-3.9711,-3.3509,-2.9665,-2.9104,-2.6024,-2.3925,-2.292,-2.2619,-2.2837,-2.3456,-2.4707,-2.5586,-2.6187,-2.7431,-2.8137,-2.8271,-2.84,-2.8882,-2.9656,-2.9515,-2.9976,-3.0827,-3.0827,-3.0931,-3.1073,-3.0397,-3.0205,-3.0443,-2.9693,-2.9543,-2.9444,-2.9444,-2.9324,-2.9105,-2.9105,-2.8707,-2.8005,-2.6445,-2.5409,-2.4509,-2.3226,-2.2333,-2.1827,-2.2434,-2.2333,-2.2131,-2.2131,-2.1928,-2.1522,-2.0688,-2.0483,-2.0483,-2.0483,-2.0218,-1.9984,-2.0285,-1.9803,-1.9177,-1.8701,-1.839,-1.8094,-1.7811,-1.8489,-1.8769,-1.8572,-1.9865,-2.0668,-2.0668,-2.082,-2.1068,-2.1401,-2.0895,-2.1449,-2.3234,-2.3023,-2.2636,-2.207,-2.3006,-2.336,-2.3022,-2.2683,-2.2928,-2.3567,-2.3211,-2.3459,-2.4007,-2.3695,-2.3507,-2.3448,-2.2685,-2.2727,-2.327,-2.176,-2.1897,-2.2859,-2.2859,-2.3406,-2.4088,-3.1589,-3.2199,-3.2867,-3.4762,-3.3674,-3.2846,-3.3843,-3.359,-3.3564,-3.468,-3.5891,-3.731,-3.8937,-3.9747,-4.0417,-4.1024,-4.0222,-3.7993,-3.3907,-2.9425,-2.6526,-2.5604,-2.3925,-2.2802,-2.203,-2.2333,-2.302,-2.4214,-2.5099,-2.636,-2.7977,-2.8186,-2.8553,-2.9151,-2.8972,-2.9107,-2.9536,-2.9827,-3.0274,-3.0806,-3.0466,-3.0215,-3.0049,-2.9606,-2.9316,-2.9195,-2.9048,-2.8499,-2.7934,-2.7934,-2.7317,-2.6663,-2.6467,-2.6369,-2.5937,-2.5013,-2.4081,-2.3261,-2.2535,-2.1709,-2.1216,-2.1827,-2.1928,-2.1827,-2.1827,-2.1725,-2.1623,-2.142,-2.1216,-2.1011,-2.1011,-2.0507,-1.9959,-1.9814,-1.9205,-1.8469,-1.7825,-1.7498,-1.72,-1.6714,-1.7399,-1.7868,-1.7778,-1.8903,-1.9558,-1.9683,-1.9702,-1.9711,-1.9816,-1.9928,-2.0255,-2.0788,-2.0998,-2.106,-2.0831,-2.1972,-2.2085,-2.1074,-2.0959,-2.1274,-2.1915,-2.1769,-2.2096,-2.2745,-2.2808,-2.2605,-2.2386,-2.2017,-2.1914,-2.176,-2.1081,-2.1358,-2.2173,-2.2722,-2.3133,-2.3679,-3.2511,-3.3119,-3.3807,-3.5538,-3.4709,-3.385,-3.4442,-3.46,-3.4954,-3.6009,-3.725,-3.8567,-4.0059,-4.0244,-4.0195,-3.9976,-3.7353,-3.3765,-2.9211,-2.6241,-2.407,-2.2955,-2.2512,-2.218,-2.203,-2.2719,-2.3701,-2.4786,-2.6147,-2.7295,-2.8445,-2.8466,-2.8653,-2.8932,-2.858,-2.8486,-2.8754,-2.8948,-2.9346,-2.9641,-2.9349,-2.9123,-2.8959,-2.8425,-2.8041,-2.7702,-2.742,-2.6883,-2.6271,-2.6153,-2.5585,-2.4786,-2.4393,-2.4196,-2.4097,-2.3384,-2.2584,-2.1912,-2.1591,-2.0893,-2.0308,-2.0704,-2.1011,-2.1232,-2.1232,-2.1113,-2.1113,-2.1113,-2.0806,-2.0704,-2.0704,-2.0189,-1.9612,-1.9199,-1.8671,-1.7997,-1.7381,-1.7048,-1.6741,-1.6433,-1.6741,-1.7012,-1.7184,-1.7908,-1.8462,-1.8668,-1.8656,-1.8851,-1.9056,-1.891,-1.9172,-1.9863,-1.9929,-1.9795,-1.9564,-2.0368,-2.067,-2.0219,-2.0047,-2.0359,-2.1133,-2.0944,-2.1257,-2.1792,-2.1849,-2.1753,-2.1512,-2.1391,-2.1196,-2.0943,-2.0665,-2.0804,-2.122,-2.176,-2.216,-2.2435,-3.2954,-3.3928,-3.4685,-3.5523,-3.5641,-3.5384,-3.479,-3.5459,-3.6381,-3.7186,-3.7961,-3.8971,-4.0099,-3.9598,-3.8779,-3.7928,-3.3156,-2.8763,-2.5404,-2.3591,-2.2274,-2.1395,-2.1807,-2.2257,-2.2619,-2.3701,-2.459,-2.5392,-2.7369,-2.8236,-2.8186,-2.8538,-2.8445,-2.7998,-2.7431,-2.7318,-2.7533,-2.7533,-2.7621,-2.7844,-2.7784,-2.7764,-2.7583,-2.6864,-2.6388,-2.6032,-2.5331,-2.4884,-2.459,-2.4295,-2.3899,-2.3285,-2.2584,-2.2282,-2.2181,-2.1558,-2.0861,-2.038,-2.0277,-1.9776,-1.9168,-1.9168,-1.9791,-2.0308,-2.0411,-2.0189,-2.0086,-2.0086,-1.9776,-1.9569,-1.9569,-1.9376,-1.8959,-1.8318,-1.8016,-1.7701,-1.7067,-1.6736,-1.663,-1.6524,-1.6311,-1.6324,-1.6524,-1.6855,-1.7197,-1.782,-1.778,-1.8065,-1.8691,-1.8033,-1.8263,-2.0026,-1.9448,-1.8868,-1.8311,-1.8576,-1.9073,-1.9905,-1.9721,-2.0026,-2.0916,-2.0571,-2.0763,-2.1305,-2.0938,-2.0831,-2.07,-2.0695,-2.0665,-2.0527,-2.0249,-2.011,-2.011,-2.0503,-2.0629,-2.0768,-3.41,-3.4181,-3.4388,-3.5723,-3.518,-3.5045,-3.639,-3.6756,-3.7229,-3.8362,-3.9062,-3.9154,-3.8442,-3.7643,-3.6221,-3.3861,-2.8694,-2.4849,-2.2991,-2.1764,-2.138,-2.2068,-2.2282,-2.2751,-2.3719,-2.4609,-2.547,-2.6456,-2.7861,-2.8817,-2.9209,-2.8653,-2.8279,-2.7998,-2.7051,-2.6932,-2.7259,-2.7061,-2.7202,-2.7481,-2.6722,-2.6284,-2.6045,-2.5008,-2.4362,-2.3945,-2.352,-2.3085,-2.2702,-2.2417,-2.1912,-2.1489,-2.1081,-2.057,-2.004,-1.9302,-1.9124,-1.9034,-1.8632,-1.8527,-1.8632,-1.8632,-1.8736,-1.8945,-1.948,-1.9687,-1.9672,-1.948,-1.9049,-1.8632,-1.8632,-1.8122,-1.749,-1.716,-1.6842,-1.6537,-1.5992,-1.5779,-1.5672,-1.5351,-1.5363,-1.5256,-1.5351,-1.5862,-1.6308,-1.6573,-1.6726,-1.699,-1.7382,-1.7289,-1.743,-1.8064,-1.7713,-1.7587,-1.7673,-1.7361,-1.7517,-1.8009,-1.8422,-1.8802,-1.9187,-1.9398,-1.967,-2.0005,-2.0025,-2.0038,-1.9882,-2.0142,-2.011,-1.982,-1.968,-1.968,-1.982,-2.0352,-2.0364,-2.0388,-3.4393,-3.4328,-3.4425,-3.5481,-3.5337,-3.5435,-3.6428,-3.6833,-3.7275,-3.7639,-3.7526,-3.6985,-3.5732,-3.4228,-3.1817,-2.8313,-2.4661,-2.2189,-2.1172,-2.083,-2.1114,-2.2083,-2.2682,-2.3438,-2.443,-2.5858,-2.6703,-2.72,-2.8538,-2.9209,-2.8954,-2.8581,-2.8019,-2.7241,-2.6572,-2.6326,-2.6232,-2.6055,-2.5775,-2.5648,-2.502,-2.4427,-2.4007,-2.2972,-2.2181,-2.1676,-2.1135,-2.0625,-2.0128,-1.9937,-1.9627,-1.9317,-1.902,-1.8693,-1.8276,-1.7765,-1.7779,-1.8003,-1.7701,-1.7701,-1.7806,-1.7806,-1.7806,-1.8016,-1.8541,-1.875,-1.884,-1.8541,-1.8003,-1.7582,-1.7582,-1.7054,-1.6524,-1.6205,-1.5992,-1.5779,-1.5351,-1.5244,-1.5244,-1.5041,-1.4934,-1.4871,-1.4995,-1.5555,-1.6055,-1.6182,-1.6426,-1.6634,-1.702,-1.702,-1.7197,-1.7434,-1.7327,-1.7206,-1.7097,-1.7088,-1.7156,-1.7526,-1.8042,-1.8482,-1.8879,-1.9145,-1.928,-1.9411,-1.9685,-1.9811,-1.9646,-1.9773,-1.9831,-1.9541,-1.9401,-1.9262,-1.9262,-1.9529,-1.9959,-2.0527,-3.4438,-3.46,-3.4823,-3.516,-3.5607,-3.5921,-3.5918,-3.6379,-3.6576,-3.5963,-3.4951,-3.3677,-3.2209,-2.9782,-2.6691,-2.2852,-2.1318,-2.0365,-1.992,-2.0483,-2.1233,-2.197,-2.3075,-2.4137,-2.502,-2.6798,-2.7746,-2.7788,-2.9117,-2.9324,-2.8395,-2.8207,-2.7431,-2.6304,-2.5994,-2.5489,-2.4884,-2.451,-2.3917,-2.3103,-2.2702,-2.2299,-2.1692,-2.0625,-1.9907,-1.9302,-1.8651,-1.8039,-1.7752,-1.7752,-1.7542,-1.7239,-1.7041,-1.6935,-1.6829,-1.663,-1.6736,-1.7067,-1.7067,-1.7067,-1.7067,-1.7067,-1.7067,-1.7067,-1.7384,-1.7595,-1.7701,-1.7371,-1.6842,-1.6418,-1.6311,-1.5992,-1.5565,-1.5244,-1.5244,-1.5137,-1.4826,-1.486,-1.4883,-1.4883,-1.4711,-1.4702,-1.4911,-1.5557,-1.593,-1.5941,-1.6283,-1.6537,-1.6785,-1.6949,-1.7066,-1.7276,-1.7323,-1.7108,-1.6852,-1.6937,-1.7196,-1.761,-1.7989,-1.8371,-1.9016,-1.9232,-1.9376,-1.9271,-1.9492,-1.9599,-1.9541,-1.9541,-1.9401,-1.9401,-1.8993,-1.8854,-1.8854,-1.8573,-1.9413,-2.0665,-3.5103,-3.5222,-3.5326,-3.5409,-3.5457,-3.5755,-3.6417,-3.5985,-3.5172,-3.4115,-3.2426,-3.0317,-2.7782,-2.4284,-2.1423,-1.9827,-1.9513,-1.951,-1.9837,-2.0543,-2.1543,-2.2955,-2.3607,-2.4487,-2.5586,-2.6744,-2.76,-2.8301,-2.9117,-2.9139,-2.8395,-2.722,-2.6264,-2.5392,-2.4922,-2.4115,-2.3185,-2.2685,-2.1862,-2.0813,-2.001,-1.9391,-1.8755,-1.8157,-1.7634,-1.7095,-1.6778,-1.6592,-1.6499,-1.6499,-1.6299,-1.6205,-1.6324,-1.6111,-1.5791,-1.6004,-1.6217,-1.643,-1.643,-1.663,-1.6736,-1.643,-1.643,-1.6217,-1.5577,-1.6205,-1.6736,-1.6205,-1.5672,-1.5137,-1.4922,-1.46,-1.4277,-1.3964,-1.4169,-1.4277,-1.3964,-1.4243,-1.4603,-1.4603,-1.4452,-1.4579,-1.4837,-1.5189,-1.5351,-1.5362,-1.6049,-1.6431,-1.6205,-1.6635,-1.6868,-1.7023,-1.6875,-1.6988,-1.7119,-1.6899,-1.7019,-1.7485,-1.7613,-1.7995,-1.8888,-1.8923,-1.9072,-1.9255,-1.9301,-1.9175,-1.9122,-1.9122,-1.8854,-1.8573,-1.8433,-1.8433,-1.8433,-1.8433,-1.9413,-2.0665,-3.527,-3.4971,-3.4777,-3.5102,-3.4669,-3.4358,-3.4711,-3.339,-3.1802,-3.0237,-2.8319,-2.6355,-2.4011,-2.1139,-1.9147,-1.8611,-1.8426,-1.8706,-1.9447,-2.0471,-2.1531,-2.2673,-2.3749,-2.4635,-2.5411,-2.6648,-2.741,-2.7715,-2.8466,-2.8373,-2.7505,-2.6648,-2.5684,-2.4609,-2.3601,-2.2584,-2.1659,-2.0845,-1.9804,-1.8769,-1.8248,-1.7725,-1.7095,-1.6156,-1.5743,-1.5518,-1.5007,-1.4804,-1.4922,-1.503,-1.5041,-1.5041,-1.547,-1.5363,-1.5256,-1.5791,-1.6111,-1.6217,-1.6111,-1.6205,-1.6099,-1.5684,-1.547,-1.5244,-1.4708,-1.4815,-1.503,-1.4922,-1.46,-1.4288,-1.4072,-1.3856,-1.364,-1.3532,-1.3853,-1.4004,-1.3769,-1.4282,-1.4617,-1.4516,-1.4375,-1.451,-1.4855,-1.5056,-1.5194,-1.544,-1.5773,-1.6131,-1.6275,-1.6496,-1.6796,-1.6954,-1.6952,-1.6992,-1.6979,-1.6979,-1.7033,-1.754,-1.7673,-1.8057,-1.8696,-1.8835,-1.8833,-1.8913,-1.9048,-1.8894,-1.8714,-1.8714,-1.8573,-1.8433,-1.8433,-1.8433,-1.8433,-1.8433,-1.9413,-2.0665]}]]